     2              OBSERVATION DATA    GPS                 RINEX VERSION / TYPE
ASRINEXO V2.4.4 UX USGS 17-JAN-97 11:18                     PGM / RUN BY / DATE
                                                            COMMENT
Original Marker Name: lae1 LAPE1__T6nR4e_S28S27_1919_GLO    COMMENT
Campaign Name: usgs.landers.pro                             COMMENT
4-Character Station Name: LAE1                              COMMENT
6-Character Antenna Code: ASHP12                            COMMENT
Vertical Measurement Point: EGP                             COMMENT
Vertical Offset to Rinex Ref. Point: 0.0593                 COMMENT
Radial Measurement Point: EGP                               COMMENT
Radial Offset to Rinex Ref. Point: 0.1425                   COMMENT
Antenna Height from Field Measurement: 1.1950 m             COMMENT
Additional Antenna Identification Info.:                    COMMENT
Ashtech L1/L2 Revision B                                    COMMENT
Original XYZ: -2350833.6695 -4703334.3591 3599581.9884      COMMENT
New XYZ position is based on association with SCEC monument COMMENT
E1F2J8I6+0011. Position of that monument is believed to be  COMMENT
valid to within 1 m horizontally; vertical accuracy         COMMENT
should be no worse than 3-times this value.                 COMMENT
                                                            COMMENT
Revised Rinex header created by UCSD GPS archive for        COMMENT
GSAC on 10-Nov-1999 (1999:314) 23:44:36 GMT                 COMMENT
For assistance contact dagnew@ucsd.edu or hjohnson@ucsd.edu COMMENT
                                                            COMMENT
LAE1 LAPE1__T6NR4E_S28S27_1919_GLO                          MARKER NAME
GDH US GEOLOGICAL SURVEY                                    OBSERVER / AGENCY
591 ASHTECH Z-XII3 1E95                                     REC # / TYPE / VERS
36 ASHTECH GEODETIC P                                       ANT # / TYPE
 -2350840.0000 -4703319.0000  3599601.0000                  APPROX POSITION XYZ
        1.1272        0.0000        0.0000                  ANTENNA: DELTA H/E/N
     1     1     0                                          WAVELENGTH FACT L1/2
     5    C1    L1    L2    P1    P2                        # / TYPES OF OBSERV
    30                                                      INTERVAL
  1997     1    15     0     0   30.000000                  TIME OF FIRST OBS
  1997     1    15    23     6   30.000000                  TIME OF LAST OBS
                                                            END OF HEADER
 97  1 15  0  0 30.0000000  0  6  7 15 19 26 27  2
  20844316.611   -31297112.09249 -24374500.40249  20844315.8004   20844320.3674
  23618038.917   -16683328.84149 -12504330.34249  23618038.0424   23618042.9554
  23099254.912   -26411374.61149 -20561172.72349  23099255.4684   23099259.7974
  22983447.555   -18267002.77149 -13922607.96849  22983447.1114   22983451.1974
  20598487.610   -43255404.74349 -33401194.52449  20598487.2744   20598491.3804
  21217975.895   -35643855.76049 -27749052.34849  21217975.3514   21217979.5194
 97  1 15  0  1  0.0000000  0  6  7 15 19 26 27  2
  20830103.334   -31371803.14349 -24432701.20449  20830102.3704   20830106.9844
  23610259.743   -16724207.30449 -12536183.65749  23610259.0884   23610263.5004
  23110848.001   -26350452.54049 -20513700.98649  23110847.6334   23110852.4924
  22972077.477   -18326752.90249 -13969166.48949  22972077.7224   22972081.3664
  20601078.363   -43241790.17549 -33390585.77249  20601078.2004   20601082.2944
  21212759.544   -35671267.79949 -27770412.37249  21212758.9334   21212763.3014
 97  1 15  0  1 30.0000000  0  6  7 15 19 26 27  2
  20815976.701   -31446038.78449 -24490547.14249  20815976.0304   20815980.6394
  23602578.400   -16764573.82749 -12567638.07049  23602578.0154   23602581.9314
  23122485.260   -26289297.93449 -20466048.08249  23122485.2174   23122490.0604
  22960797.965   -18386027.03249 -14015354.11549  22960797.9104   22960801.4214
  20603752.527   -43227737.75149 -33379635.83449  20603752.4394   20603756.0754
  21207567.517   -35698552.15349 -27791672.90249  21207566.9174   21207570.9604
 97  1 15  0  2  0.0000000  0  6  7 15 19 26 27  2
  20801948.118   -31519759.31949 -24547991.69649  20801947.4214   20801951.9324
  23595010.676   -16804342.92649 -12598626.95549  23595009.9054   23595014.1954
  23134182.601   -26227828.64249 -20418149.97449  23134182.4894   23134187.7614
  22949625.292   -18444739.33149 -14061103.93649  22949625.3054   22949629.3544
  20606526.256   -43213161.72949 -33368277.89749  20606525.8194   20606529.6794
  21202418.755   -35725608.99449 -27812756.14649  21202418.2814   21202422.3444
 97  1 15  0  2 30.0000000  0  6  7 15 19 26 27  2
  20788000.502   -31593054.40149 -24605104.73449  20787999.9074   20788004.3694
  23587541.959   -16843590.89349 -12629209.76049  23587540.6654   23587546.2044
  23145925.626   -26166118.44849 -20370064.13549  23145925.3594   23145929.6724
  22938547.820   -18502951.95349 -14106464.40549  22938548.2734   22938551.6084
  20609383.450   -43198147.05749 -33356578.15949  20609383.3514   20609387.1334
  21197300.766   -35752504.23049 -27833713.47049  21197299.9554   21197304.2124
 97  1 15  0  3  0.0000000  0  6  7 15 19 26 27  2
  20774139.696   -31665893.29049 -24661862.29549  20774139.0334   20774143.5414
  23580176.846   -16882294.51149 -12659368.40149  23580176.5934   23580180.4354
  23157719.401   -26104141.79849 -20321770.67649  23157719.1954   23157723.9924
  22927571.858   -18560630.97549 -14151409.09449  22927571.3434   22927575.6704
  20612332.157   -43182651.55449 -33344503.74549  20612331.9304   20612335.5044
  21192215.468   -35779227.65149 -27854536.91149  21192214.8454   21192219.1154
 97  1 15  0  3 30.0000000  0  6  7 15 19 26 27  2
  20760365.824   -31738275.09649 -24718263.68349  20760364.8584   20760369.3104
  23572915.849   -16920452.43749 -12689101.83549  23572915.5604   23572919.1544
  23169559.724   -26041920.21549 -20273286.35849  23169559.7684   23169564.5984
  22916697.808   -18617773.90249 -14195936.02649  22916697.4804   22916701.5194
  20615376.430   -43166653.58349 -33332037.79449  20615375.9024   20615380.0754
  21187160.028   -35805794.21549 -27875238.12049  21187159.3554   21187163.5324
 97  1 15  0  4  0.0000000  0  6  7 15 19 26 27  2
  20746673.995   -31810226.05649 -24774329.35049  20746673.2774   20746677.7864
  23565753.104   -16958091.92149 -12718431.26349  23565751.2704   23565757.1074
  23181439.451   -25979491.63049 -20224640.73849  23181439.2544   23181444.3464
  22905919.449   -18674414.39849 -14240071.46749  22905919.7024   22905923.6244
  20618506.855   -43150202.69049 -33319218.91949  20618506.3354   20618510.3424
  21182127.959   -35832237.78249 -27895843.49349  21182127.2784   21182131.5884
 97  1 15  0  4 30.0000000  0  6  7 15 19 26 27  2
  20733053.616   -31881801.77449 -24830102.61549  20733053.0164   20733057.6784
  23558674.287   -16995291.25149 -12747417.73949  23558674.1294   23558678.5084
  23193342.378   -25916941.03249 -20175900.03249  23193341.8544   23193348.1564
  22895220.188   -18730639.44449 -14283883.18249  22895220.3794   22895224.4284
  20621706.904   -43133386.18249 -33306115.14249  20621706.4404   20621710.8774
  21177100.951   -35858654.76249 -27916428.14349  21177100.1494   21177104.2664
 97  1 15  0  5  0.0000000  0  6  7 15 19 26 27  2
  20719537.793   -31952827.98149 -24885447.69749  20719537.2034   20719541.5384
  23551712.405   -17031876.29449 -12775925.53149  23551712.1694   23551716.7484
  23205300.851   -25854098.99849 -20126932.24549  23205300.8744   23205305.9484
  22884631.251   -18786285.08949 -14327243.41649  22884631.9794   22884634.4864
  20625011.086   -43116022.45649 -33292584.97349  20625010.7224   20625015.0104
  21172107.539   -35884895.32549 -27936875.33149  21172107.0154   21172111.2324
 97  1 15  0  5 30.0000000  0  6  7 15 19 26 27  2
  20706097.054   -32023459.64149 -24940485.33949  20706096.5784   20706100.8814
  23544841.565   -17067982.91849 -12804060.54049  23544840.3264   23544844.1704
  23217290.408   -25791093.78849 -20077837.29849  23217290.7744   23217295.5284
  22874126.583   -18841487.96049 -14370258.62649  22874126.6824   22874130.9724
  20628390.314   -43098264.45449 -33278747.57349  20628390.1334   20628394.2534
  21167124.830   -35911079.80849 -27957278.82149  21167124.1654   21167128.5244
 97  1 15  0  6  0.0000000  0  6  7 15 19 26 27  2
  20692748.257   -32093607.92049 -24995146.31749  20692747.4194   20692751.8604
  23538080.038   -17103514.59349 -12831747.55149  23538079.2274   23538083.8094
  23229334.282   -25727803.14449 -20028519.91749  23229334.1574   23229339.8104
  22863723.715   -18896155.33549 -14412856.57149  22863723.8834   22863727.2344
  20631859.392   -43080034.53849 -33264542.44549  20631859.0914   20631863.2834
  21162171.632   -35937109.02449 -27977561.31949  21162171.0544   21162175.1424
 97  1 15  0  6 30.0000000  0  6  7 15 19 26 27  2
  20679489.739   -32163281.66649 -25049437.52949  20679488.9784   20679493.2964
  23531427.069   -17138476.04949 -12858990.21549  23531426.2334   23531430.8584
  23241431.701   -25664231.12849 -19978983.29349  23241431.3524   23241435.7534
  22853422.003   -18950291.20749 -14455040.35549  22853421.6654   22853425.4254
  20635419.353   -43061327.00649 -33249965.15049  20635419.0074   20635423.1694
  21157247.293   -35962986.74649 -27997725.76949  21157246.7234   21157250.7304
 97  1 15  0  7  0.0000000  0  6  7 15 19 26 27  2
  20666307.222   -32232555.92749 -25103417.46049  20666306.5344   20666310.9384
  23524869.262   -17172936.83749 -12885842.76149  23524868.5124   23524872.7354
  23253568.348   -25600452.78049 -19929285.90449  23253568.1504   23253572.3654
  22843209.970   -19003955.69549 -14496856.82749  22843210.4054   22843214.0274
  20639057.703   -43042207.43249 -33235066.78949  20639057.4684   20639061.6824
  21152342.040   -35988764.10549 -28017812.02149  21152341.3694   21152345.4214
 97  1 15  0  7 30.0000000  0  6  7 15 19 26 27  2
  20653204.419   -32301411.56249 -25157071.18649  20653203.7454   20653208.0204
  23518408.105   -17206890.81949 -12912300.38549  23518408.6444   23518410.3794
  23265744.609   -25536465.90749 -19879426.00849  23265744.6104   23265749.9494
  22833089.651   -19057138.51549 -14538297.98049  22833089.7114   22833093.4634
  20642773.422   -43022681.07849 -33219851.45349  20642773.0964   20642777.4274
  21147460.258   -36014418.15649 -28037802.18349  21147459.6984   21147463.8014
 97  1 15  0  8  0.0000000  0  6  7 15 19 26 27  2
  20640184.607   -32369831.05649 -25210385.06049  20640184.0284   20640188.6324
  23512043.140   -17240338.64649 -12938363.59149  23512042.5224   23512047.0984
  23277955.735   -25472295.47349 -19829423.09549  23277955.1874   23277959.9624
  22823061.514   -19109836.35049 -14579361.20949  22823061.1144   22823065.1534
  20646568.944   -43002735.50249 -33204309.45049  20646568.5884   20646572.7464
  21142602.420   -36039946.09649 -28057694.07849  21142601.8314   21142605.8944
 97  1 15  0  8 30.0000000  0  6  7 15 19 26 27  2
  20627267.786   -32437709.44249 -25263277.29549  20627267.2304   20627271.5784
  23505793.534   -17273180.42449 -12963954.57349  23505792.5984   23505797.7274
  23290217.637   -25407858.40749 -19779212.41649  23290216.7284   23290223.1644
  22813147.013   -19161937.43349 -14619959.44649  22813147.2174   22813151.2514
  20650466.204   -42982255.38149 -33188350.92449  20650465.9804   20650470.1834
  21137790.924   -36065230.80449 -28077396.44449  21137790.2224   21137794.3914
 97  1 15  0  9  0.0000000  0  6  7 15 19 26 27  2
  20614429.418   -32505175.44049 -25315848.18649  20614428.6484   20614433.0114
  23499636.709   -17305535.30849 -12989166.14449  23499635.2214   23499640.4284
  23302510.296   -25343259.98849 -19728876.01149  23302510.0784   23302515.7404
  22803323.572   -19213559.53049 -14660184.45249  22803323.2884   22803326.7124
  20654440.737   -42961369.22349 -33172075.99749  20654440.3284   20654444.2924
  21133003.442   -36090388.89949 -28097000.14949  21133002.7774   21133007.0764
 97  1 15  0  9 30.0000000  0  6  7 15 19 26 27  2
  20601692.538   -32572108.03249 -25368003.43349  20601691.8754   20601696.0884
  23493596.121   -17337279.01449 -13013901.47049  23493594.5534   23493599.7124
  23314858.051   -25278372.22749 -19678314.15449  23314858.1704   23314863.4964
  22793612.085   -19264593.80249 -14699951.40349  22793612.5604   22793615.8714
  20658515.448   -42939956.41249 -33155390.69449  20658515.1384   20658519.3014
  21128261.291   -36115309.10049 -28116418.47749  21128260.7494   21128264.9294
 97  1 15  0 10  0.0000000  0  6  7 15 19 26 27  2
  20589084.454   -32638363.97249 -25419631.42249  20589083.6844   20589088.0174
  23487700.767   -17368258.39249 -13038041.24049  23487699.8544   23487704.4384
  23327290.538   -25213039.42549 -19627405.49549  23327290.5934   23327296.4814
  22784040.044   -19314895.42749 -14739147.47249  22784039.9174   22784044.0714
  20662718.975   -42917867.07449 -33138178.23249  20662718.9174   20662723.0644
  21123591.863   -36139847.15949 -28135539.03449  21123591.3024   21123595.5134
 97  1 15  0 10 30.0000000  0  6  7 15 19 26 27  2
  20576553.035   -32704216.98049 -25470945.44049  20576552.3594   20576556.7384
  23481901.100   -17398736.13449 -13061790.11049  23481899.9194   23481904.7534
  23339760.839   -25147507.35749 -19576341.58249  23339760.9104   23339766.2484
  22774554.207   -19364744.17249 -14777990.63549  22774554.0344   22774557.7944
  20666997.816   -42895381.74949 -33120657.20149  20666997.7054   20667001.6294
  21118941.755   -36164283.65649 -28154580.45349  21118941.1614   21118945.4244
 97  1 15  0 11  0.0000000  0  6  7 15 19 26 27  2
  20564130.955   -32769495.43849 -25521811.75649  20564130.3094   20564134.7014
  23476230.442   -17428535.57549 -13085010.43249  23476229.3754   23476234.4774
  23352300.761   -25081610.07249 -19524993.07349  23352299.9394   23352306.6244
  22765184.678   -19413981.25049 -14816357.18949  22765184.8604   22765188.6684
  20671382.591   -42872339.75849 -33102702.41549  20671382.2904   20671386.3224
  21114340.220   -36188464.65749 -28173422.78549  21114339.5574   21114343.8464
 97  1 15  0 11 30.0000000  0  6  7 15 19 26 27  2
  20551788.302   -32834356.51249 -25572352.83749  20551787.6134   20551791.9364
  23470657.225   -17457823.23949 -13107831.97449  23470655.3934   23470661.0994
  23364873.237   -25015541.67649 -19473511.24049  23364873.3254   23364878.7494
  22755900.180   -19462771.24049 -14854375.36449  22755900.4084   22755904.4584
  20675843.382   -42848898.08149 -33084436.18349  20675842.9024   20675847.1484
  21109754.494   -36212562.70949 -28192200.48149  21109753.6024   21109758.0854
 97  1 15  0 12  0.0000000  0  6  7 15 19 26 27  2
  20539520.557   -32898823.91349 -25622587.15749  20539519.6564   20539524.1574
  23465177.774   -17486616.57649 -13130268.32449  23465177.7954   23465181.2814
  23377473.625   -24949326.68349 -19421915.17549  23377473.1224   23377477.3894
  22746700.527   -19511116.01249 -14892046.60349  22746700.9774   22746704.4914
  20680376.827   -42825074.56249 -33065872.40249  20680376.5734   20680380.5534
  21105180.843   -36236597.14749 -28210928.60249  21105180.0284   21105184.3154
 97  1 15  0 12 30.0000000  0  6  7 15 19 26 27  2
  20527373.349   -32962657.66549 -25672327.72649  20527372.6364   20527376.9644
  23459838.577   -17514674.74349 -13152131.82249  23459837.8324   23459842.1424
  23390145.516   -24882736.01149 -19370026.36649  23390145.2594   23390151.6564
  22737632.056   -19558771.11149 -14929180.43649  22737631.9854   22737636.4954
  20685030.125   -42800621.08049 -33046817.75349  20685029.5024   20685033.7354
  21100663.998   -36260333.14149 -28229424.17749  21100663.3854   21100667.5464
 97  1 15  0 13  0.0000000  0  6  7 15 19 26 27  2
  20515309.948   -33026051.17949 -25721725.25449  20515309.3774   20515313.6714
  23454602.323   -17542191.06749 -13173573.11149  23454602.1074   23454605.5464
  23402850.428   -24815971.25949 -19318001.91449  23402850.7344   23402856.1114
  22728661.265   -19605912.55349 -14965914.01349  22728661.5054   22728665.0434
  20689769.207   -42775716.92849 -33027411.92849  20689768.7414   20689773.0204
  21096168.139   -36283959.13849 -28247834.03849  21096167.6074   21096171.7754
 97  1 15  0 13 30.0000000  0  6  7 15 19 26 27  2
  20503326.026   -33089027.13449 -25770797.40749  20503325.3234   20503329.7154
  23449464.865   -17569188.06249 -13194609.71749  23449465.1934   23449468.5774
  23415587.295   -24749038.67649 -19265846.67749  23415587.6864   23415592.5154
  22719785.323   -19652555.70349 -15002259.31749  22719785.6404   22719789.1424
  20694593.035   -42750367.40349 -33007659.05249  20694593.0014   20694597.1614
  21091690.101   -36307491.29549 -28266170.77549  21091689.5174   21091693.6574
 97  1 15  0 14  0.0000000  0  6  7 15 19 26 27  2
  20491430.559   -33151538.19049 -25819507.30649  20491429.9484   20491434.2224
  23444435.683   -17595617.26749 -13215203.89049  23444435.1554   23444440.6344
  23428368.145   -24681875.09149 -19213511.43749  23428367.4194   23428372.6504
  22711011.998   -19698659.99449 -15038184.72949  22711012.2134   22711015.6894
  20699510.215   -42724527.78149 -32987524.28649  20699509.9874   20699513.4944
  21087239.921   -36330877.26149 -28284393.59949  21087239.3384   21087243.4814
 97  1 15  0 14 30.0000000  0  6  7 15 19 26 27  2
  20479641.358   -33213490.55049 -25867781.85649  20479640.5204   20479644.8974
  23439529.488   -17621400.45049 -13235294.64949  23439528.6024   23439534.0664
  23441208.329   -24614399.31249 -19160932.91949  23441207.8004   23441212.8834
  22702356.153   -19744146.89149 -15073629.05749  22702356.6064   22702360.2584
  20704536.862   -42698112.32949 -32966940.82449  20704536.7274   20704540.5014
  21082833.907   -36354031.06049 -28302435.51449  21082833.2884   21082837.3824
 97  1 15  0 15  0.0000000  0  6  7 15 19 26 27  2
  20467932.909   -33275018.55949 -25915725.74149  20467932.2154   20467936.7524
  23434720.506   -17646670.87049 -13254985.86049  23434719.8714   23434723.5834
  23454082.759   -24546743.42949 -19108214.07349  23454082.5374   23454088.8354
  22693793.356   -19789144.88149 -15108692.41049  22693793.2444   22693796.8524
  20709646.440   -42671261.48049 -32946018.09149  20709646.1504   20709650.3484
  21078449.355   -36377071.97349 -28320389.46649  21078448.8834   21078452.9584
 97  1 15  0 15 30.0000000  0  6  7 15 19 26 27  2
  20456328.603   -33335999.62149 -25963243.43749  20456327.9094   20456332.4894
  23430032.061   -17671309.10249 -13274184.46949  23430031.4774   23430035.7034
  23467013.292   -24478793.64749 -19055266.23149  23467013.7244   23467017.6454
  22685343.018   -19833551.78049 -15143295.19149  22685343.5034   22685347.0214
  20714858.703   -42643870.84549 -32924674.75049  20714858.4924   20714862.3094
  21074109.540   -36399877.88649 -28338160.30349  21074108.9384   21074113.1854
 97  1 15  0 16  0.0000000  0  6  7 15 19 26 27  2
  20444802.808   -33396567.84549 -26010439.43649  20444802.1184   20444806.7084
  23425437.145   -17695455.49049 -13292999.82949  23425436.7084   23425440.9684
  23479971.068   -24410700.65949 -19002206.79249  23479971.3544   23479975.8884
  22676979.824   -19877500.53449 -15177540.95049  22676979.9534   22676984.1664
  20720144.223   -42616095.18649 -32903031.38049  20720143.9234   20720147.9454
  21069787.519   -36422590.21249 -28355858.21249  21069786.9504   21069791.1594
 97  1 15  0 16 29.9990000  0  6  7 15 19 26 27  2
  20433360.331   -33456698.49649 -26057294.47149  20433359.6694   20433364.0274
  23420940.483   -17719085.25849 -13311412.61449  23420939.3114   23420944.6564
  23492960.215   -24342442.55049 -18949018.68549  23492959.6524   23492964.7944
  22668707.693   -19920970.67649 -15211413.78149  22668707.7504   22668711.6414
  20725505.992   -42587919.23249 -32881076.09649  20725505.7714   20725509.4344
  21065488.400   -36445182.26349 -28373462.40049  21065487.7464   21065492.0924
 97  1 15  0 16 59.9990000  0  6  7 15 19 26 27  2
  20421997.425   -33516410.85049 -26103823.56549  20421996.8764   20422001.2584
  23416541.861   -17742199.76049 -13329423.88049  23416540.0674   23416545.4734
  23505981.335   -24274016.39549 -18895699.62449  23505981.2884   23505987.0164
  22660523.321   -19963979.52749 -15244927.16249  22660523.1464   22660528.0644
  20730941.024   -42559357.91449 -32858820.53449  20730941.0384   20730944.6724
  21061209.721   -36467666.81449 -28390982.82749  21061209.0484   21061212.9714
 97  1 15  0 17 29.9990000  0  6  7 15 19 26 27  2
  20410748.975   -33575521.76049 -26149883.99949  20410748.0934   20410752.7064
  23412273.823   -17764629.02349 -13346901.26649  23412272.4614   23412277.3804
  23519066.370   -24205253.74249 -18842118.37549  23519066.8394   23519072.2794
  22652458.137   -20006361.82149 -15277952.31849  22652458.3394   22652461.9924
  20736482.936   -42530235.08549 -32836127.42649  20736482.7024   20736486.5094
  21056981.573   -36489885.54249 -28408296.11549  21056980.9254   21056985.0254
 97  1 15  0 17 59.9990000  0  6  7 15 19 26 27  2
  20399588.988   -33634167.70549 -26195582.11649  20399588.4994   20399592.8744
  23408110.036   -17786509.68449 -13363951.06949  23408109.3634   23408113.7974
  23532189.391   -24136291.29149 -18788381.43549  23532188.5754   23532195.4304
  22644488.685   -20048241.24249 -15310585.60749  22644488.6874   22644492.8764
  20742107.681   -42500676.85849 -32813095.04549  20742107.3184   20742111.5244
  21052777.600   -36511977.49049 -28425510.61349  21052776.9664   21052781.2354
 97  1 15  0 18 29.9990000  0  6  7 15 19 26 27  2
  20388521.491   -33692327.97049 -26240901.79249  20388520.8814   20388525.2434
  23404056.552   -17807810.78249 -13380549.30549  23404055.4804   23404060.0264
  23545355.168   -24067104.10649 -18734469.37149  23545355.5204   23545360.1194
  22636621.263   -20089584.86149 -15342801.40749  22636621.2334   22636625.7544
  20747820.480   -42470655.73049 -32789701.97049  20747820.3134   20747824.1284
  21048603.337   -36533913.53749 -28442603.63249  21048602.7764   21048607.1574
 97  1 15  0 18 59.9990000  0  6  7 15 19 26 27  2
  20377558.954   -33749936.68849 -26285791.68449  20377558.2804   20377562.6564
  23400127.004   -17828460.61549 -13396640.07349  23400126.4904   23400130.1604
  23558574.390   -23997637.15649 -18680339.31349  23558574.5084   23558579.7064
  22628873.448   -20130299.66049 -15374527.21249  22628873.8474   22628878.0404
  20753636.337   -42440093.36949 -32765887.15449  20753636.2574   20753640.0454
  21044471.534   -36555626.40449 -28459522.74449  21044471.2164   21044475.1504
 97  1 15  0 19 29.9990000  0  6  7 15 19 26 27  2
  20366682.038   -33807095.20849 -26330330.77349  20366681.2704   20366685.7404
  23396301.435   -17848564.24949 -13412305.20649  23396301.6174   23396305.2394
  23571825.468   -23928002.87849 -18626078.87849  23571824.9454   23571831.1104
  22621228.491   -20170473.94849 -15405831.83649  22621228.1804   22621233.0414
  20759537.753   -42409081.57449 -32741722.12449  20759537.4914   20759541.4364
  21040362.585   -36577219.29249 -28476348.36549  21040362.0804   21040366.1764
 97  1 15  0 19 59.9990000  0  6  7 15 19 26 27  2
  20355886.066   -33863828.34049 -26374538.38749  20355885.2644   20355889.5134
  23392578.486   -17868128.94049 -13427550.39349  23392577.9854   23392582.7954
  23585107.692   -23858204.67949 -18571690.69649  23585107.2804   23585112.5194
  22613685.746   -20210111.25349 -15436718.03449  22613685.7314   22613689.8304
  20765521.160   -42377638.64949 -32717221.14849  20765520.7494   20765524.8944
  21036275.194   -36598698.83949 -28493085.66549  21036274.6204   21036278.6214
 97  1 15  0 20 29.9990000  0  6  7 15 19 26 27  2
  20345164.223   -33920171.66049 -26418442.26149  20345163.6964   20345167.9644
  23388952.724   -17887181.61349 -13442396.59749  23388951.3064   23388957.2014
  23598417.352   -23788262.04749 -18517189.97249  23598418.4854   23598423.2394
  22606238.523   -20249246.78949 -15467213.24949  22606239.1564   22606242.6674
  20771579.449   -42345802.20449 -32692413.54049  20771578.9554   20771583.0514
  21032204.026   -36620092.92149 -28509756.37449  21032203.4094   21032207.4824
 97  1 15  0 20 59.9990000  0  6  7 15 19 26 27  2
  20334525.170   -33976080.24349 -26462007.37649  20334524.6324   20334528.9324
  23385431.063   -17905687.48149 -13456816.75349  23385429.6444   23385435.1824
  23611762.778   -23718131.31049 -18462542.66349  23611762.3074   23611767.8074
  22598889.788   -20287864.78049 -15497305.18049  22598890.2844   22598894.1424
  20777720.890   -42313528.66049 -32667265.33249  20777720.7734   20777724.7874
  21028155.540   -36641368.09149 -28526334.42249  21028154.8914   21028158.9494
 97  1 15  0 21 29.9990000  0  6  7 15 19 26 27  2
  20323980.854   -34031491.22949 -26505184.75549  20323980.4214   20323984.6404
  23382023.770   -17923592.45949 -13470768.66849  23382023.8224   23382027.2904
  23625157.027   -23647744.47349 -18407695.79949  23625156.6444   23625160.8704
  22591645.763   -20325932.36349 -15526968.22549  22591645.7694   22591650.4984
  20783953.159   -42280778.00249 -32641745.34849  20783952.8894   20783956.9024
  21024140.155   -36662468.87349 -28542776.58249  21024139.3514   21024143.5194
 97  1 15  0 21 59.9990000  0  6  7 15 19 26 27  2
  20313525.409   -34086435.14549 -26547998.18149  20313524.8894   20313528.9914
  23378724.068   -17940932.40749 -13484280.29849  23378724.5164   23378727.7224
  23638593.650   -23577134.92649 -18352675.39149  23638593.4024   23638597.8394
  22584497.298   -20363498.04249 -15556240.16849  22584497.7584   22584501.4544
  20790267.824   -42247594.21849 -32615887.86149  20790267.4174   20790271.4424
  21020152.934   -36683421.54349 -28559103.33249  21020152.2014   21020156.2924
 97  1 15  0 22 29.9990000  0  6  7 15 19 26 27  2
  20303160.276   -34140904.09849 -26590441.50449  20303159.5954   20303164.0964
  23375531.236   -17957710.50849 -13497354.11249  23375530.4374   23375534.9044
  23652068.116   -23506325.89749 -18297499.54749  23652067.5144   23652073.7414
  22577444.450   -20400561.18749 -15585120.52549  22577444.7504   22577449.0354
  20796665.435   -42213974.31149 -32589690.53249  20796664.9284   20796669.1934
  21016193.957   -36704226.07949 -28575314.64849  21016193.2624   21016197.5464
 97  1 15  0 22 59.9990000  0  6  7 15 19 26 27  2
  20292890.618   -34194871.47949 -26632493.99649  20292890.0854   20292894.3594
  23372448.127   -17973911.24549 -13509978.04549  23372448.5414   23372451.9744
  23665579.515   -23435322.43149 -18242172.18449  23665580.3904   23665585.2714
  22570491.187   -20437100.48649 -15613592.69549  22570491.1544   22570495.1184
  20803149.895   -42179897.97049 -32563137.54749  20803149.6494   20803153.8424
  21012266.996   -36724862.17749 -28591394.72049  21012266.3714   21012270.6724
 97  1 15  0 23 29.9990000  0  6  7 15 19 26 27  2
  20282718.343   -34248327.13049 -26674147.73749  20282717.8274   20282722.0674
  23369477.821   -17989519.92449 -13522140.64049  23369476.7884   23369482.0614
  23679128.484   -23364122.12249 -18186691.44849  23679128.3714   23679132.3664
  22563642.273   -20473091.30449 -15641637.48249  22563642.8154   22563645.9764
  20809722.788   -42145357.36149 -32536222.79949  20809722.6294   20809726.2384
  21008375.359   -36745312.71549 -28607330.19849  21008374.6754   21008378.7144
 97  1 15  0 23 59.9990000  0  6  7 15 19 26 27  2
  20272640.785   -34301285.10149 -26715413.67349  20272640.0034   20272644.4354
  23366619.982   -18004537.24449 -13533842.44849  23366619.3464   23366624.4194
  23692713.790   -23292730.54949 -18131061.67249  23692713.8854   23692720.5104
  22556898.560   -20508529.83949 -15669251.91949  22556899.0144   22556903.0704
  20816386.721   -42110337.92549 -32508934.93649  20816386.5654   20816390.6674
  21004517.935   -36765583.47249 -28623125.58549  21004517.3654   21004521.6964
 97  1 15  0 24 29.9990000  0  6  7 15 19 26 27  2
  20262650.491   -34353784.22349 -26756322.06349  20262649.8094   20262654.1344
  23363868.700   -18018995.10049 -13545108.29149  23363868.7204   23363873.1744
  23706331.048   -23221172.25549 -18075301.98449  23706332.2584   23706334.8784
  22550254.591   -20543444.38349 -15696458.04549  22550254.8334   22550258.5904
  20823136.293   -42074868.54249 -32481296.46749  20823135.9134   20823140.0504
  21000687.431   -36785712.80849 -28638810.77549  21000686.9774   21000691.1184
 97  1 15  0 24 59.9990000  0  6  7 15 19 26 27  2
  20252745.866   -34405833.02449 -26796879.55849  20252745.2064   20252749.4414
  23361222.746   -18032900.71449 -13555943.80749  23361222.3324   23361225.8324
  23719982.975   -23149431.72549 -18019400.27749  23719983.9974   23719988.4374
  22543706.690   -20577853.78849 -15723270.56149  22543706.8274   22543710.4464
  20829966.311   -42038976.48349 -32453328.64249  20829965.7554   20829970.2444
  20996880.365   -36805719.32349 -28654400.26249  20996879.6734   20996883.9564
 97  1 15  0 25 29.9990000  0  6  7 15 19 26 27  2
  20242936.326   -34457382.53149 -26837047.99249  20242935.9074   20242940.1604
  23358693.779   -18046191.24349 -13566300.06049  23358693.0734   23358697.6714
  23733683.989   -23077432.33949 -17963296.87449  23733683.4334   23733689.4454
  22537266.893   -20611695.13949 -15749640.45249  22537267.2854   22537270.9524
  20836888.058   -42002602.32549 -32424985.15349  20836887.4534   20836892.0814
  20993106.809   -36825549.40949 -28669852.26949  20993106.3954   20993110.5344
 97  1 15  0 25 59.9990000  0  6  7 15 19 26 27  2
  20233196.299   -34508566.70049 -26876931.74749  20233195.6804   20233199.8934
  23356256.893   -18058997.35249 -13576278.82949  23356256.4804   23356260.7234
  23747408.592   -23005308.29149 -17907096.34449  23747407.5724   23747414.7054
  22530911.265   -20645094.32649 -15775665.78849  22530911.4154   22530915.7114
  20843876.974   -41965875.04649 -32396366.50149  20843876.6344   20843880.7364
  20989343.151   -36845327.83549 -28685264.02349  20989342.6804   20989346.7924
 97  1 15  0 26 29.9990000  0  6  7 15 19 26 27  2
  20223561.666   -34559196.90549 -26916383.84049  20223560.9804   20223565.1904
  23353945.022   -18071146.37649 -13585745.57449  23353944.0314   23353949.0064
  23761185.474   -22932910.40949 -17850682.44849  23761185.3144   23761191.2154
  22524673.742   -20677872.74649 -15801207.41149  22524674.4124   22524677.9414
  20850962.675   -41928639.64249 -32367351.90749  20850962.7994   20850966.8294
  20985622.473   -36864880.22249 -28700499.64649  20985621.8964   20985626.1174
 97  1 15  0 26 59.9990000  0  6  7 15 19 26 27  2
  20214010.097   -34609390.68949 -26955495.86749  20214009.4424   20214013.5804
  23351735.510   -18082757.41149 -13594793.11449  23351735.4004   23351739.0514
  23774988.253   -22860376.46549 -17794162.51249  23774987.8484   23774993.1034
  22518530.734   -20710154.53849 -15826362.04849  22518530.0764   22518534.5784
  20858121.806   -41891018.21249 -32338036.52049  20858121.7834   20858125.6964
  20981921.377   -36884329.48149 -28715654.90549  20981920.8684   20981924.9204
 97  1 15  0 27 29.9990000  0  6  7 15 19 26 27  2
  20204553.527   -34659085.20949 -26994218.85449  20204552.8194   20204557.1164
  23349641.489   -18093761.96249 -13603368.05449  23349640.3004   23349645.3704
  23788826.020   -22787658.14149 -17737498.92949  23788825.8794   23788831.0554
  22512496.468   -20741864.39649 -15851071.03049  22512497.0234   22512500.4784
  20865371.432   -41852921.36749 -32308350.67549  20865371.4844   20865375.1464
  20978256.434   -36903588.86549 -28730662.21049  20978255.8764   20978260.0234
 97  1 15  0 27 59.9990000  0  6  7 15 19 26 27  2
  20195218.493   -34708141.16049 -27032444.25549  20195217.8224   20195221.9224
  23347686.452   -18104035.54949 -13611373.43249  23347686.0434   23347690.2774
  23802721.814   -22714635.79049 -17680598.42249  23802721.6494   23802726.7084
  22506593.493   -20772884.37849 -15875242.44449  22506593.2104   22506597.1244
  20872734.552   -41814227.98949 -32278200.00149  20872734.6274   20872738.5444
  20974651.767   -36922531.47249 -28745422.67749  20974651.2614   20974655.2544
 97  1 15  0 28 29.9990000  0  6  7 15 19 26 27  2
  20185972.288   -34756730.20749 -27070305.83449  20185971.6534   20185975.8314
  23345837.446   -18113752.06749 -13618944.73149  23345836.1744   23345841.9504
  23816644.746   -22641470.65749 -17623586.65949  23816644.5504   23816650.4194
  22500786.813   -20803398.38349 -15899019.58349  22500786.9494   22500791.0774
  20880176.606   -41775120.10449 -32247726.33149  20880176.4954   20880180.2664
  20971071.779   -36941344.36749 -28760082.06749  20971071.1704   20971075.2914
 97  1 15  0 28 59.9990000  0  6  7 15 19 26 27  2
  20176821.922   -34804815.42449 -27107774.82549  20176821.0574   20176825.4444
  23344103.771   -18122862.39349 -13626043.65749  23344103.6134   23344108.0324
  23830610.622   -22568080.21149 -17566399.34149  23830610.3524   23830615.6934
  22495084.818   -20833362.60449 -15922368.32849  22495084.8374   22495088.2534
  20887709.816   -41735533.03249 -32216879.27949  20887709.8294   20887713.5134
  20967527.296   -36959970.76749 -28774596.14149  20967526.6934   20967530.7724
 97  1 15  0 29 29.9990000  0  6  7 15 19 26 27  2
  20167775.337   -34852355.10249 -27144818.71649  20167774.6404   20167778.8734
  23342492.366   -18131330.30749 -13632642.01149  23342491.4194   23342496.9294
  23844627.334   -22494421.75849 -17509003.17749  23844627.1484   23844632.2764
  22489496.369   -20862729.86749 -15945251.90449  22489496.4964   22489500.0564
  20895342.065   -41695425.66749 -32185626.79049  20895341.6764   20895345.7084
  20964025.664   -36978371.82649 -28788934.61749  20964025.1474   20964029.0054
 97  1 15  0 29 59.9990000  0  6  7 15 19 26 27  2
  20158832.383   -34899350.56149 -27181438.54449  20158831.7114   20158836.1464
  23341001.605   -18139164.39249 -13638746.47149  23341000.7014   23341005.4974
  23858693.686   -22420502.68549 -17451403.92449  23858693.5904   23858699.0684
  22484019.203   -20891512.78549 -15967680.15049  22484019.3774   22484023.4144
  20903071.071   -41654809.38149 -32153977.74049  20903070.7154   20903075.1244
  20960562.113   -36996572.89949 -28803117.26949  20960561.4654   20960565.7334
 97  1 15  0 30 29.9990000  0  6  7 15 19 26 27  2
  20149969.820   -34945923.76149 -27217729.33449  20149969.1874   20149973.5674
  23339610.250   -18146475.70549 -13644443.58249  23339609.3354   23339613.8174
  23872787.740   -22346438.26449 -17393691.40649  23872788.5124   23872793.2624
  22478633.626   -20919814.42749 -15989733.37549  22478634.3554   22478638.2884
  20910879.363   -41613776.55949 -32122004.11949  20910879.2004   20910883.0924
  20957116.380   -37014680.42349 -28817227.01949  20957115.7414   20957119.9124
 97  1 15  0 30 59.9990000  0  6  7 15 19 26 27  2
  20141177.173   -34992129.29249 -27253733.63749  20141176.5744   20141180.8914
  23338307.854   -18153319.08649 -13649776.08449  23338307.3364   23338311.9844
  23886895.716   -22272300.52149 -17335921.75849  23886895.5464   23886901.9204
  22473330.303   -20947683.77449 -16011449.75249  22473330.5174   22473334.4854
  20918758.409   -41572372.15749 -32089740.96249  20918758.0754   20918762.0224
  20953679.911   -37032739.02549 -28831298.65249  20953679.2804   20953683.5974
 97  1 15  0 31 29.9990000  0  6  7 15 19 26 27  2
  20132489.055   -35037785.76349 -27289310.09349  20132488.5884   20132492.7324
  23337129.496   -18159511.39849 -13654601.23649  23337129.0324   23337133.9484
  23901045.979   -22197940.43749 -17277978.85949  23901045.6604   23901049.8914
  22468144.462   -20974935.10749 -16032684.54849  22468144.8574   22468148.7994
  20926740.471   -41530426.12849 -32057055.74249  20926740.2894   20926744.4534
  20950285.849   -37050574.67549 -28845196.55249  20950285.3594   20950289.2334
 97  1 15  0 31 59.9990000  0  6  7 15 19 26 27  2
  20123892.744   -35082960.03049 -27324510.81049  20123892.2194   20123896.4494
  23336064.349   -18165109.05049 -13658963.02149  23336063.9594   23336068.3354
  23915229.017   -22123407.98049 -17219901.63149  23915229.9814   23915233.5124
  22463062.816   -21001639.14549 -16053492.88849  22463062.6554   22463066.7584
  20934813.073   -41488004.22949 -32023999.72749  20934812.7714   20934816.7904
  20946925.223   -37068234.75249 -28858957.64449  20946924.6564   20946928.6224
 97  1 15  0 32 29.9990000  0  6  7 15 19 26 27  2
  20115399.905   -35127590.15049 -27359287.50849  20115399.2794   20115403.5314
  23335124.929   -18170045.78249 -13662809.81149  23335124.6194   23335129.0244
  23929458.366   -22048631.77849 -17161634.48649  23929457.1724   23929463.2374
  22458098.753   -21027725.44949 -16073819.88249  22458099.1124   22458102.4914
  20942986.676   -41445051.63349 -31990530.17749  20942986.5824   20942990.4914
  20943613.055   -37085640.15549 -28872520.28949  20943612.4894   20943616.4604
 97  1 15  0 32 59.9990000  0  6  7 15 19 26 27  2
  20107010.601   -35171676.29249 -27393640.33149  20107009.9474   20107014.0424
  23334312.533   -18174315.01749 -13666136.44449  23334311.7924   23334316.9634
  23943736.315   -21973601.38949 -17103169.23849  23943737.3364   23943742.0114
  22453252.446   -21053193.16549 -16093664.85349  22453252.4574   22453256.6094
  20951257.735   -41401587.00649 -31956661.65149  20951257.3464   20951261.2544
  20940351.649   -37102778.95549 -28885875.19349  20940350.9874   20940354.9804
 97  1 15  0 33 29.9990000  0  6  7 15 19 26 27  2
  20098703.628   -35215329.76949 -27427656.01449  20098702.8184   20098707.0274
  23333605.484   -18178030.15749 -13669031.35349  23333605.2114   23333610.5964
  23958043.488   -21898417.21849 -17044584.19849  23958043.7314   23958048.2944
  22448500.385   -21078165.71449 -16113123.97949  22448500.2674   22448504.3274
  20959603.784   -41357728.28149 -31922486.03649  20959603.4484   20959607.8384
  20937119.370   -37119764.56149 -28899110.72749  20937118.8044   20937122.6144
 97  1 15  0 33 59.9990000  0  6  7 15 19 26 27  2
  20090484.459   -35258521.60849 -27461311.98049  20090483.8274   20090487.8114
  23333006.757   -18181176.51149 -13671483.04149  23333006.8554   23333011.4264
  23972385.741   -21823047.57649 -16985854.62249  23972385.4434   23972390.1434
  22443844.845   -21102630.84049 -16132187.70749  22443845.4194   22443848.5654
  20968028.648   -41313455.30049 -31887987.62649  20968028.3064   20968032.9004
  20933919.405   -37136580.54849 -28912214.09049  20933918.8204   20933922.8354
 97  1 15  0 34 29.9990000  0  6  7 15 19 26 27  2
  20082372.601   -35301149.37349 -27494528.41149  20082371.9834   20082376.1954
  23332535.480   -18183653.90649 -13673413.45549  23332534.7124   23332539.1974
  23986778.959   -21747410.22149 -16926916.45049  23986779.1384   23986784.6904
  22439307.175   -21126476.85649 -16150769.02349  22439307.4014   22439311.1574
  20976551.866   -41268665.20349 -31853086.26249  20976551.3464   20976555.5874
  20930768.268   -37153140.08749 -28925117.62049  20930767.6414   20930771.4954
 97  1 15  0 34 59.9990000  0  7  7  4 15 19 26 27  2
  20074347.841   -35343319.70549 -27527388.39149  20074347.1094   20074351.4294
  24399533.641    -5838428.17349  -4525656.34149  24399532.2554   24399537.8674
  23332169.553   -18185577.06849 -13674911.98749  23332168.9964   23332173.7094
  24001200.940   -21671622.11949 -16867860.81349  24001200.2654   24001205.9574
  22434865.539   -21149817.83449 -16168956.79349  22434865.3464   22434869.3434
  20985152.902   -41223466.22249 -31817866.28049  20985152.5714   20985157.0984
  20927641.484   -37169571.38449 -28937921.21649  20927640.9864   20927644.9094
 97  1 15  0 35 29.9990000  0  7  7  4 15 19 26 27  2
  20066433.641   -35384909.32949 -27559795.88349  20066432.9484   20066437.1544
  24375308.890    -5965729.11649  -4624851.80149  24375308.3354   24375314.3714
  23331928.810   -18186842.06549 -13675897.68049  23331928.3824   23331931.8414
  24015670.551   -21595583.78849 -16808610.16649  24015670.2274   24015676.0104
  22430539.605   -21172550.55149 -16186670.60049  22430539.6414   22430543.9664
  20993851.795   -41177753.34549 -31782245.87349  20993851.4694   20993855.9704
  20924555.568   -37185788.05649 -28950557.58349  20924554.9524   20924559.1384
 97  1 15  0 35 59.9990000  0  7  7  4 15 19 26 27  2
  20058608.669   -35426029.84449 -27591837.83449  20058608.0654   20058612.3334
  24351067.023    -6093120.03549  -4724117.38049  24351065.7384   24351072.9784
  23331793.977   -18187550.90249 -13676449.99549  23331793.3264   23331798.0674
  24030167.801   -21519399.58749 -16749245.86649  24030167.0224   24030173.9654
  22426312.125   -21194766.01149 -16203981.34649  22426312.3574   22426316.4904
  21002627.366   -41131637.36449 -31746311.35649  21002627.1744   21002631.6584
  20921489.568   -37201899.90349 -28963112.26149  20921488.8854   20921492.9834
 97  1 15  0 36 29.9990000  0  7  7  4 15 19 26 27  2
  20050884.920   -35466618.27549 -27623465.16949  20050884.0624   20050888.2934
  24326823.262    -6220521.04449  -4823390.78349  24326821.9724   24326826.0654
  23331779.654   -18187625.92149 -13676508.44349  23331779.0854   23331783.2314
  24044706.949   -21442995.48049 -16689710.20449  24044706.1464   24044713.3984
  22422199.320   -21216379.17949 -16220822.77449  22422199.7744   22422203.5284
  21011492.895   -41085048.50849 -31710008.35949  21011492.5164   21011496.7584
  20918458.643   -37217827.37349 -28975523.27149  20918457.9834   20918462.0554
 97  1 15  0 36 59.9990000  0  7  7  4 15 19 26 27  2
  20043251.713   -35506730.78449 -27654721.65849  20043250.9564   20043255.2024
  24302567.479    -6347984.93549  -4922713.18649  24302567.3234   24302573.6414
  23331873.881   -18187130.74549 -13676122.57049  23331873.0104   23331877.6964
  24059278.511   -21366420.70149 -16630041.57149  24059277.7394   24059283.7014
  22418186.713   -21237465.81849 -16237253.92049  22418186.8724   22418190.5974
  21020436.019   -41038052.31349 -31673387.95549  21020435.8054   21020439.9754
  20915454.129   -37233615.99849 -28987826.08949  20915453.5534   20915457.5554
 97  1 15  0 37 29.9990000  0  7  7  4 15 19 26 27  2
  20035720.361   -35546308.22249 -27685561.21549  20035719.6904   20035723.7314
  24278315.427    -6475430.22049  -5022021.11649  24278314.3234   24278321.3284
  23332091.519   -18185987.22549 -13675231.48449  23332090.1804   23332095.4124
  24073895.702   -21289607.55649 -16570187.18949  24073895.7394   24073901.0364
  22414287.751   -21257954.75949 -16253219.33149  22414287.6824   22414290.9584
  21029473.224   -40990561.57449 -31636382.20149  21029472.7494   21029476.9864
  20912494.368   -37249169.71249 -28999945.86549  20912493.9124   20912497.9684
 97  1 15  0 37 59.9990000  0  7  7  4 15 19 26 27  2
  20028269.477   -35585462.82949 -27716071.28449  20028268.7684   20028272.8694
  24254044.049    -6602976.97449  -5121408.10649  24254044.6544   24254049.4774
  23332412.853   -18184298.24249 -13673915.37249  23332412.1574   23332417.0044
  24088537.231   -21212666.51249 -16510233.14849  24088537.6624   24088542.4074
  22410483.171   -21277947.90749 -16268798.39849  22410483.4354   22410487.2694
  21038588.022   -40942662.96149 -31599058.61549  21038588.1784   21038591.7214
  20909563.044   -37264573.96749 -29011949.17149  20909562.5414   20909566.5604
 97  1 15  0 38 29.9990000  0  7  7  4 15 19 26 27  2
  20020909.427   -35624140.05949 -27746209.37649  20020908.7134   20020913.0254
  24229763.364    -6730572.94749  -5220833.45049  24229763.6844   24229768.5454
  23332845.324   -18182024.97549 -13672144.00049  23332844.8184   23332848.8004
  24103208.094   -21135570.47949 -16450158.35949  24103207.8264   24103213.5654
  22406778.862   -21297414.35849 -16283967.06449  22406778.7504   22406782.9334
  21047790.928   -40894301.57849 -31561374.43449  21047790.7884   21047794.5524
  20906670.435   -37279774.79449 -29023793.96849  20906669.8144   20906673.8434
 97  1 15  0 38 59.9990000  0  7  7  4 15 19 26 27  2
  20013624.730   -35662421.41549 -27776038.98849  20013623.9964   20013628.2674
  24205458.859    -6858294.37549  -5320356.54749  24205459.3594   24205464.3424
  23333371.517   -18179259.55649 -13669989.10149  23333370.5044   23333375.9494
  24117890.834   -21058411.75549 -16390034.69649  24117890.3724   24117897.2164
  22403155.662   -21316454.28649 -16298803.36549  22403155.6084   22403159.4994
  21057065.969   -40845561.03149 -31523394.79149  21057065.6474   21057069.4864
  20903797.776   -37294870.67049 -29035556.97949  20903797.1424   20903801.0824
 97  1 15  0 39 29.9990000  0  7  7  4 15 19 26 27  2
  20006461.915   -35700062.18549 -27805369.45549  20006461.3254   20006465.4254
  24181178.396    -6985888.95349  -5419780.80849  24181178.9884   24181183.4644
  23334038.336   -18175755.39449 -13667258.56649  23334037.3024   23334042.0154
  24132631.298   -20980949.81549 -16329674.77749  24132632.3964   24132637.2894
  22399662.542   -21334810.79349 -16313107.14649  22399662.7264   22399666.3004
  21066458.701   -40796201.81649 -31484933.07649  21066458.2044   21066462.0514
  20900988.542   -37309633.50949 -29047060.48849  20900988.0274   20900991.7574
 97  1 15  0 39 59.9990000  0  7  7  4 15 19 26 27  2
  19999390.877   -35737220.64549 -27834324.08549  19999390.1504   19999394.2604
  24156887.505    -7113538.42449  -5519247.84749  24156887.2854   24156892.2084
  23334813.235   -18171683.28649 -13664085.47449  23334812.4454   23334816.9944
  24147398.327   -20903348.87249 -16269206.53249  24147398.7644   24147404.1774
  22396268.455   -21352646.65749 -16327005.21749  22396268.5064   22396272.5344
  21075932.006   -40746419.38149 -31446141.57349  21075931.7064   21075935.7864
  20898208.127   -37324244.79949 -29058445.90549  20898207.5424   20898211.4664
 97  1 15  0 40 29.9990000  0  7  7  4 15 19 26 27  2
  19992433.093   -35773783.99449 -27862815.00049  19992432.4774   19992436.4254
  24132609.472    -7241120.41549  -5618662.30349  24132609.9124   24132614.9664
  23335717.672   -18166930.16449 -13660381.72349  23335717.1294   23335721.5654
  24162214.570   -20825488.81549 -16208536.36549  24162214.9274   24162220.7634
  22392995.609   -21369845.24349 -16340406.70749  22392995.1024   22392999.1884
  21085502.974   -40696123.88149 -31406950.28249  21085502.7304   21085506.7234
  20895476.760   -37338598.32249 -29069630.46449  20895476.1634   20895480.1534
 97  1 15  0 40 59.9990000  0  7  7  4 15 19 26 27  2
  19985550.760   -35809950.59849 -27890996.75549  19985550.0524   19985554.2594
  24108307.271    -7368829.01849  -5718175.42149  24108307.2364   24108312.8614
  23336717.759   -18161674.77849 -13656286.60549  23336717.2974   23336720.4304
  24177047.898   -20747539.56049 -16147796.72449  24177047.6684   24177053.8864
  22389810.520   -21386583.02149 -16353449.13349  22389810.9464   22389814.0294
  21095133.684   -40645514.10849 -31367514.09749  21095133.3234   21095137.0644
  20892759.811   -37352876.06049 -29080755.96849  20892759.1744   20892762.9624
 97  1 15  0 41 29.9990000  0  7  7  4 15 19 26 27  2
  19978767.434   -35845597.10849 -27918773.25349  19978766.8584   19978771.0734
  24084006.113    -7496532.19849  -5817684.32849  24084005.8804   24084010.5734
  23337840.545   -18155773.99049 -13651688.57749  23337840.1094   23337844.8324
  24191925.457   -20669357.72049 -16086875.82349  24191925.6484   24191931.7714
  22386740.587   -21402715.71049 -16366020.06349  22386741.1924   22386744.4714
  21104850.475   -40594452.11549 -31327725.54349  21104850.2864   21104853.9384
  20890086.850   -37366922.49949 -29091701.24049  20890086.1944   20890090.1734
 97  1 15  0 41 59.9990000  0  7  7  4 15 19 26 27  2
  19972059.563   -35880847.06149 -27946240.73849  19972058.9114   19972062.7354
  24059684.574    -7624342.60149  -5917276.79549  24059684.8274   24059689.6944
  23339063.097   -18149349.58449 -13646682.49649  23339062.8134   23339066.5084
  24206823.499   -20591067.73649 -16025870.63749  24206823.6254   24206829.7774
  22383761.803   -21418369.59649 -16378217.89949  22383761.8844   22383765.8044
  21114633.529   -40543041.91249 -31287665.65349  21114633.4734   21114637.1564
  20887437.018   -37380847.19049 -29102551.63949  20887436.4194   20887440.0714
 97  1 15  0 42 29.9990000  0  7  7  4 15 19 26 27  2
  19965447.809   -35915592.03249 -27973314.73249  19965447.1694   19965451.5094
  24035368.503    -7752124.33449  -6016846.89449  24035368.7204   24035374.2394
  23340404.814   -18142299.17449 -13641188.66349  23340404.6844   23340408.9854
  24221761.373   -20512568.91949 -15964702.72949  24221761.4434   24221766.1884
  22380893.402   -21433443.94649 -16389964.13849  22380892.9304   22380897.3974
  21124506.835   -40491157.20149 -31247236.01949  21124506.5984   21124510.3134
  20884830.611   -37394543.76749 -29113224.29349  20884829.9334   20884834.0614
 97  1 15  0 42 59.9990000  0  7  7  4 15 19 26 27  2
  19958943.464   -35949772.85449 -27999949.13049  19958942.9014   19958946.9624
  24011070.848    -7879808.88549  -6116341.30049  24011070.9024   24011076.9484
  23341876.170   -18134566.78849 -13635163.41449  23341876.2754   23341879.3594
  24236747.937   -20433814.44549 -15903335.62249  24236748.0084   24236754.2554
  22378144.757   -21447888.62849 -16401219.73649  22378145.0034   22378148.1084
  21134486.155   -40438715.39449 -31206372.28249  21134485.7604   21134489.3664
  20882277.669   -37407959.29949 -29123677.94849  20882277.1404   20882281.1684
 97  1 15  0 43 29.9990000  0  7  7  4 15 19 26 27  2
  19952511.763   -35983571.49449 -28026285.72249  19952511.0944   19952515.2924
  23986756.934    -8007579.22349  -6215902.54949  23986756.5344   23986762.2594
  23343437.842   -18126360.23449 -13628768.66249  23343436.4254   23343441.0294
  24251740.745   -20355026.70749 -15841942.60549  24251740.4794   24251747.3154
  22375475.215   -21461917.32149 -16412151.19249  22375474.9914   22375478.7834
  21144535.699   -40385904.72949 -31165221.12549  21144535.3434   21144539.5204
  20879737.776   -37421306.66949 -29134078.49149  20879737.4194   20879741.2364
 97  1 15  0 43 59.9990000  0  7  7  4 15 19 26 27  2
  19946175.658   -36016867.81949 -28052230.89949  19946175.1004   19946179.1324
  23962446.811    -8135329.26049  -6315447.94949  23962446.0344   23962451.7394
  23345108.458   -18117581.25849 -13621927.86449  23345106.8094   23345112.6834
  24266756.856   -20276116.53049 -15780454.17949  24266756.5444   24266763.5974
  22372903.345   -21475432.35649 -16422682.37749  22372903.1314   22372906.5294
  21154673.846   -40332628.37349 -31123707.08749  21154673.5444   21154677.4234
  20877228.817   -37434491.54349 -29144352.41249  20877228.1564   20877232.0664
 97  1 15  0 44 29.9990000  0  7  7  4 15 19 26 27  2
  19939955.417   -36049555.54149 -28077701.84049  19939954.9464   19939958.7874
  23938156.738    -8262974.04349  -6414911.34149  23938157.0294   23938160.3754
  23346907.462   -18108126.78049 -13614560.72849  23346906.6734   23346911.7204
  24281815.872   -20196981.31749 -15718790.36649  24281815.5694   24281820.4544
  22370450.257   -21488323.35549 -16432727.30949  22370450.2004   22370453.8764
  21164915.702   -40278807.16049 -31081768.48549  21164915.6844   21164919.3384
  20874770.020   -37447412.46149 -29154420.65549  20874769.4084   20874773.3414
 97  1 15  0 44 59.9990000  0  6  7  4 15 26 27  2
  19933832.266   -36081732.92949 -28102775.12049  19933831.6264   19933835.7714
  23913867.404    -8390614.95449  -6514371.71149  23913866.5854   23913872.4844
  23348818.788   -18098082.74249 -13606734.16949  23348818.9894   23348821.2914
  22368099.574   -21500675.59149 -16442352.43349  22368099.4374   22368103.1774
  21175241.491   -40224544.92449 -31039486.24249  21175241.3454   21175245.2434
  20872346.147   -37460149.79749 -29164345.84949  20872345.4664   20872349.1824
 97  1 15  0 45 29.9990000  0  6  7  4 15 26 27  2
  19927814.440   -36113356.62849 -28127416.95549  19927813.7424   19927818.0374
  23889587.328    -8518206.93849  -6613793.96049  23889587.2334   23889592.4284
  23350852.765   -18087393.98849 -13598405.23449  23350852.8414   23350856.0814
  22365864.067   -21512423.33049 -16451506.51649  22365864.0944   22365868.0224
  21185656.600   -40169813.10149 -30996838.08249  21185656.3154   21185660.0414
  20869969.572   -37472638.65549 -29174077.42149  20869969.1014   20869972.7824
 97  1 15  0 45 59.9990000  0  6  7  4 15 26 27  2
  19921868.283   -36144603.86249 -28151765.43349  19921867.6584   19921871.9234
  23865284.801    -8645916.97449  -6713308.17749  23865284.3174   23865290.8824
  23352979.729   -18076216.68349 -13589695.61049  23352978.3104   23352982.7304
  22363716.282   -21523710.24749 -16460301.51049  22363716.2314   22363720.3644
  21196129.401   -40114777.98249 -30953953.58549  21196128.9054   21196132.8074
  20867611.110   -37485032.40649 -29183734.88049  20867610.4844   20867614.5284
 97  1 15  0 46 29.9990000  0  6  7  4 15 26 27  2
  19916013.154   -36175372.75749 -28175741.18149  19916012.4414   19916016.8044
  23840983.526    -8773620.34449  -6812817.21949  23840983.1714   23840988.5484
  23355221.655   -18064434.99749 -13580515.02349  23355220.3974   23355226.2064
  22361678.822   -21534416.70549 -16468644.20349  22361678.1224   22361682.4044
  21206682.978   -40059318.42449 -30910738.35549  21206682.8294   21206686.7284
  20865291.678   -37497221.18349 -29193232.62149  20865291.0204   20865295.1024
 97  1 15  0 46 59.9990000  0  6  7  4 15 26 27  2
  19910260.957   -36205600.61649 -28199295.34749  19910260.2044   19910264.4874
  23816702.320    -8901218.44149  -6912244.22449  23816701.6914   23816706.9044
  23357591.941   -18051979.00749 -13570809.04549  23357590.4974   23357595.2254
  22359763.155   -21544483.32849 -16476488.32249  22359763.5884   22359766.9824
  21217332.972   -40003352.57649 -30867128.61649  21217333.1364   21217336.7274
  20863024.629   -37509134.51649 -29202515.73449  20863024.0494   20863027.9514
 97  1 15  0 47 29.9980000  0  6  7  4 15 26 27  2
  19904597.304   -36235363.46849 -28222487.17249  19904596.4654   19904600.9334
  23792426.162    -9028790.59849  -7011651.03449  23792425.5474   23792431.5434
  23360073.840   -18038935.78449 -13560645.50049  23360073.9474   23360077.2414
  22357951.705   -21554002.98449 -16483906.24549  22357952.0324   22357955.9374
  21228063.197   -39946964.93249 -30823190.21249  21228062.9784   21228067.0344
  20860792.662   -37520863.62949 -29211655.30349  20860792.0644   20860796.1504
 97  1 15  0 47 59.9980000  0  6  7  4 15 26 27  2
  19899004.651   -36264752.73749 -28245387.89049  19899003.9564   19899008.1614
  23768136.896    -9156430.85149  -7111110.88949  23768136.9614   23768141.8014
  23362649.061   -18025402.75549 -13550100.24849  23362647.6364   23362651.8314
  22356223.854   -21563082.83649 -16490981.46149  22356223.5194   22356227.4684
  21238856.716   -39890244.33249 -30778992.36149  21238856.7054   21238860.9144
  20858576.989   -37532507.09049 -29220728.12649  20858576.4484   20858580.4724
 97  1 15  0 48 29.9980000  0  6  7  4 15 26 27  2
  19893518.500   -36293582.53049 -28267852.64949  19893517.7844   19893521.9574
  23743873.203    -9283936.79149  -7210466.09949  23743873.5884   23743877.8914
  23365352.559   -18011195.84249 -13539029.89449  23365351.6144   23365356.6694
  22354612.949   -21571548.04649 -16497577.72649  22354613.5434   22354617.2354
  21249746.340   -39833019.18349 -30734401.35149  21249746.0974   21249750.0374
  20856414.827   -37543869.33049 -29229581.81049  20856414.2254   20856418.2274
 97  1 15  0 48 59.9980000  0  6  7  4 15 26 27  2
  19888102.289   -36322044.87349 -28290031.09149  19888101.6744   19888105.8244
  23719597.801    -9411504.70449  -7309869.60449  23719597.4144   23719603.3334
  23368146.262   -17996514.94949 -13527590.22749  23368144.9904   23368148.2234
  22353081.266   -21579597.49949 -16503850.03249  22353081.6044   22353085.0034
  21260693.540   -39775490.79549 -30689574.05849  21260693.0184   21260697.5724
  20854271.354   -37555133.37349 -29238358.98149  20854270.8594   20854274.7884
 97  1 15  0 49 29.9980000  0  6  7  4 15 26 27  2
  19882770.418   -36350064.12249 -28311864.25849  19882769.8954   19882773.9564
  23695322.334    -9539073.03849  -7409273.43349  23695322.3504   23695327.0924
  23371043.079   -17981291.22049 -13515727.56349  23371042.1544   23371046.5244
  22351641.981   -21587161.08549 -16509743.72949  22351642.0304   22351646.1354
  21271712.369   -39717586.40649 -30644453.77049  21271712.0704   21271716.6264
  20852160.475   -37566226.01649 -29247002.59349  20852159.8704   20852163.8634
 97  1 15  0 49 59.9980000  0  6  7  4 15 26 27  2
  19877539.727   -36377551.76049 -28333283.19049  19877539.3264   19877543.2724
  23671066.256    -9666539.59749  -7508597.97849  23671066.1424   23671070.6914
  23374060.629   -17965433.20849 -13503370.63649  23374059.8954   23374064.0704
  22350313.126   -21594144.01349 -16515184.98049  22350313.2604   22350316.5384
  21282821.632   -39659206.96449 -30598963.31749  21282821.7494   21282825.6424
  20850100.978   -37577048.72449 -29255435.86749  20850100.3864   20850104.5234
 97  1 15  0 50 29.9980000  0  6  7  4 15 26 27  2
  19872380.454   -36404663.86049 -28354409.48449  19872379.8084   19872383.8624
  23646798.506    -9794067.39149  -7607970.23049  23646798.1524   23646802.3814
  23377168.451   -17949101.26749 -13490644.40849  23377166.5244   23377172.2134
  22349063.420   -21600711.10349 -16520302.19749  22349063.8454   22349067.0784
  21293991.841   -39600507.39549 -30553223.40949  21293991.6564   21293995.9784
  20848060.746   -37587770.02549 -29263790.11749  20848060.0584   20848064.2484
 97  1 15  0 50 59.9980000  0  6  7  4 15 26 27  2
  19867352.352   -36431086.52049 -28374998.56249  19867351.7794   19867355.8494
  23622573.076    -9921372.28549  -7707168.79749  23622573.0334   23622578.0564
  23380422.441   -17932000.94449 -13477319.47449  23380422.4204   23380426.2094
  22347948.191   -21606571.57149 -16524868.78749  22347948.0184   22347952.0104
  21305280.856   -39541183.16349 -30506996.75149  21305280.2514   21305285.0794
  20846093.987   -37598105.32049 -29271843.58949  20846093.3304   20846097.5804
 97  1 15  0 51 29.9980000  0  6  7  4 15 26 27  2
  19862394.398   -36457140.87249 -28395300.64449  19862393.7214   19862397.7274
  23598327.536   -10048783.15449  -7806449.93449  23598327.6484   23598333.4464
  23383762.852   -17914447.17749 -13463641.18349  23383762.7984   23383767.2554
  22346906.271   -21612047.01049 -16529135.37649  22346906.5694   22346910.0854
  21316627.418   -39481556.35249 -30460534.32749  21316627.4564   21316631.7444
  20844137.895   -37608384.56949 -29279853.39049  20844137.4244   20844141.2114
 97  1 15  0 51 59.9980000  0  6  7  4 15 26 27  2
  19857536.724   -36482667.98349 -28415191.88949  19857536.0944   19857540.0184
  23574090.331   -10176150.28349  -7905696.99249  23574090.3274   23574095.9534
  23387219.971   -17896280.48149 -13449485.29749  23387219.7954   23387223.7714
  22345969.025   -21616972.42949 -16532973.35449  22345969.7174   22345972.5754
  21328060.428   -39421475.65649 -30413718.21049  21328060.6714   21328063.9854
  20842222.104   -37618452.28549 -29287698.35649  20842221.6304   20842225.5254
 97  1 15  0 52 29.9980000  0  6  7  4 15 26 27  2
  19852774.527   -36507693.20049 -28434692.04749  19852773.7714   19852777.9494
  23549857.572   -10303494.38949  -8004926.12449  23549857.4734   23549862.0864
  23390788.100   -17877529.64149 -13434874.23049  23390787.5054   23390792.0434
  22345130.780   -21621377.56149 -16536405.93249  22345130.8384   22345134.3814
  21339572.980   -39360977.14749 -30366576.53249  21339572.5214   21339577.2924
  20840341.531   -37628335.01849 -29295399.18249  20840340.9124   20840344.9204
 97  1 15  0 52 59.9980000  0  6  7  4 15 26 27  2
  19848119.825   -36532153.66749 -28453752.14249  19848119.2534   19848123.1034
  23525644.642   -10430734.21849  -8104073.98449  23525643.9864   23525649.6864
  23394480.353   -17858126.16649 -13419754.61349  23394480.2584   23394484.8244
  22344407.530   -21625177.94449 -16539367.27349  22344407.8884   22344411.7594
  21351178.991   -39299987.27049 -30319051.97049  21351179.0464   21351182.9574
  20838510.741   -37637955.75649 -29302895.85649  20838510.1404   20838514.2554
 97  1 15  0 53 29.9980000  0  6  7  4 15 26 27  2
  19843558.738   -36556122.20749 -28472428.91749  19843558.2404   19843562.1704
  23501444.246   -10557907.51549  -8203170.00449  23501444.2894   23501449.3104
  23398286.193   -17838126.68349 -13404170.55849  23398285.7044   23398289.7074
  22343789.835   -21628423.98249 -16541896.65849  22343790.7064   22343793.4174
  21362867.329   -39238564.72649 -30271190.26549  21362867.3554   21362871.4534
  20836720.692   -37647362.24749 -29310225.58049  20836720.0494   20836724.0954
 97  1 15  0 53 59.9980000  0  6  7  4 15 26 27  2
  19839066.220   -36579730.61949 -28490825.07049  19839065.6114   19839069.6254
  23477236.459   -10685119.98349  -8302296.54249  23477236.3174   23477241.9894
  23402179.193   -17817668.56349 -13388229.14749  23402179.2584   23402183.7474
  22343252.326   -21631248.97949 -16544097.95449  22343252.8484   22343256.4314
  21374611.206   -39176850.46649 -30223101.24149  21374611.0354   21374614.9674
  20834948.450   -37656675.34549 -29317482.53449  20834947.7964   20834952.0584
 97  1 15  0 54 29.9980000  0  6  7  4 15 26 27  2
  19834639.438   -36602993.54949 -28508952.01949  19834638.8454   19834642.9884
  23453025.070   -10812351.15749  -8401437.66649  23453024.8394   23453030.1304
  23406159.105   -17796754.03549 -13371932.10349  23406159.1534   23406162.7024
  22342793.110   -21633662.31749 -16545978.48449  22342793.2964   22342796.5864
  21386411.084   -39114841.59849 -30174782.65949  21386410.8964   21386415.3164
  20833193.482   -37665897.62249 -29324668.71849  20833192.8714   20833196.9774
 97  1 15  0 54 59.9980000  0  6  7  4 15 26 27  2
  19830293.236   -36625833.12349 -28526749.08049  19830292.6644   19830296.5784
  23428823.001   -10939533.82649  -8500540.98449  23428823.6134   23428827.8484
  23410241.131   -17775302.77849 -13355216.81249  23410240.6784   23410244.8944
  22342427.379   -21635584.06349 -16547475.94649  22342427.5194   22342430.7384
  21398282.222   -39052458.77249 -30126172.68249  21398281.9284   21398286.6204
  20831470.859   -37674949.96549 -29331722.48449  20831470.2634   20831474.5124
 97  1 15  0 55 29.9980000  0  7  7  4 15  9 26 27  2
  19826041.965   -36648173.66049 -28544157.28149  19826041.4274   19826045.3964
  23404644.470   -11066592.86749  -8599547.99249  23404644.8724   23404648.9984
  23414440.189   -17753236.14749 -13338022.01449  23414438.8214   23414444.3464
  24241471.086    -4297046.01349  -3297416.30449  24241470.9994   24241474.8914
  22342166.915   -21636952.61349 -16548542.35349  22342166.9404   22342170.2634
  21410236.809   -38989637.10149 -30077220.73749  21410236.4824   21410240.5734
  20829794.457   -37683759.46849 -29338587.02849  20829793.8544   20829798.0634
 97  1 15  0 55 59.9980000  0  7  7  4 15  9 26 27  2
  19821876.347   -36670063.98049 -28561214.66149  19821875.6014   19821879.8154
  23380479.058   -11193582.84049  -8698501.17349  23380479.0514   23380483.3154
  23418745.886   -17730610.45649 -13320391.59549  23418745.6104   23418750.1424
  24217889.625    -4420967.53949  -3393978.49849  24217889.2944   24217892.7104
  22342001.171   -21637823.13449 -16549220.67949  22342001.6644   22342005.0764
  21422264.758   -38926429.86749 -30027968.35949  21422264.5154   21422269.2154
  20828153.249   -37692384.06249 -29345307.48449  20828152.6704   20828156.8014
 97  1 15  0 56 29.9980000  0  7  7  4 15  9 26 27  2
  19817786.774   -36691554.65449 -28577960.62849  19817786.1024   19817790.1414
  23356314.300   -11320569.48449  -8797451.74149  23356314.4604   23356318.5644
  23423145.897   -17707488.72949 -13302374.64549  23423145.1844   23423149.8824
  24194315.825    -4544848.38449  -3490509.01349  24194315.5344   24194319.2034
  22341917.675   -21638261.51049 -16549562.27249  22341917.4524   22341922.4904
  21434356.805   -38862885.67349 -29978453.41449  21434356.5844   21434361.1014
  20826535.264   -37700886.46249 -29351932.72349  20826534.7504   20826538.7554
 97  1 15  0 56 59.9980000  0  7  7  4 15  9 26 27  2
  19813810.298   -36712451.20349 -28594243.64649  19813809.6254   19813813.5614
  23332185.418   -11447367.40849  -8896255.27749  23332185.4844   23332189.4064
  23427673.837   -17683694.57849 -13283833.73449  23427673.6394   23427678.0374
  24170782.387                                    24170781.796    24170784.8094
  22341952.582   -21638077.92549 -16549419.21649  22341953.3984   22341956.6544
  21446546.907   -38798826.02549 -29928536.82949  21446546.3854   21446551.3094
  20824976.411   -37709078.13249 -29358315.83749  20824975.7094   20824980.1054
 97  1 15  0 57 29.9980000  0  7  7  4 15  9 26 27  2
  19809910.319   -36732945.77049 -28610213.43149  19809909.5654   19809913.6814
  23308059.221   -11574151.50449  -8995048.02749  23308059.2064   23308063.5284
  23432291.715   -17659427.30149 -13264924.15349  23432290.2034   23432295.5134
  24147249.132                                    24147247.428    24147251.9654
  22342068.382   -21637469.63049 -16548945.22549  22342068.9384   22342072.1194
  21458798.569   -38734443.05149 -29878368.30249  21458798.2134   21458802.4304
  20823440.883   -37717147.23549 -29364603.44849  20823440.1724   20823444.3784
 97  1 15  0 57 59.9980000  0  7  7  4 15  9 26 27  2
  19806109.456   -36752919.24149 -28625777.16549  19806108.7664   19806112.8924
  23283958.043   -11700803.96649  -9093738.20649  23283958.2914   23283962.5594
  23437021.166   -17634572.91849 -13245557.08949  23437020.5384   23437025.9354
  24123736.157    -4915747.45659                  24123738.0944   24123741.1634
  22342289.014   -21636310.61249 -16548042.08949  22342289.7954   22342292.8474
  21471136.396   -38669607.42549 -29827847.05849  21471136.0224   21471140.3984
  20821953.603   -37724962.88849 -29370693.56249  20821953.0224   20821957.2744
 97  1 15  0 58 29.9980000  0  7  7  4 15  9 26 27  2
  19802382.475   -36772504.48149 -28641038.38049  19802381.7164   19802385.8714
  23259857.627   -11827451.87449  -9192424.83149  23259858.0654   23259862.1154
  23441839.962   -17609249.89149 -13225824.84349  23441839.4624   23441844.1054
  24100220.857    -5039320.81949  -3875812.19559  24100219.2854   24100224.7254
  22342591.267   -21634722.14949 -16546804.32449  22342590.6364   22342594.5344
  21483535.701   -38604448.57849 -29777073.95249  21483535.6184   21483539.8154
  20820492.039   -37732643.56749 -29376678.49749  20820491.4744   20820495.5204
 97  1 15  0 58 59.9980000  0  7  7  4 15  9 26 27  2
  19798753.478   -36791575.01449 -28655898.52749  19798752.9094   19798757.0474
  23235781.838   -11953970.49749  -9291010.72749  23235782.4534   23235786.0014
  23446775.010   -17583316.72549 -13205617.15549  23446773.8064   23446779.2184
  24076728.473    -5162773.85549  -3972009.33449  24076728.6584   24076732.1034
  22343000.976   -21632568.91649 -16545126.48849  22343000.9324   22343004.3654
  21496019.228   -38538847.36649 -29725956.15249  21496019.2164   21496023.3974
  20819080.898   -37740059.18149 -29382456.89149  20819080.2314   20819084.2804
 97  1 15  0 59 29.9980000  0  7  7  4 15  9 26 27  2
  19795204.794   -36810223.49549 -28670429.80049  19795203.8464   19795207.8924
  23211714.302   -12080446.44849  -9389563.37049  23211714.6944   23211719.1304
  23451810.635   -17556854.70749 -13184997.38049  23451810.3804   23451813.8634
  24053246.884    -5286169.79249  -4068161.98149  24053248.3434   24053250.0224
  22343499.282   -21629950.61949 -16543086.25949  22343499.3074   22343503.0804
  21508568.503   -38472900.67849 -29674569.14449  21508568.2284   21508572.8334
  20817703.468   -37747297.52049 -29388097.15149  20817702.9544   20817706.9774
 97  1 15  0 59 59.9980000  0  7  7  4 15  9 26 27  2
  19791727.295   -36828497.52349 -28684669.29249  19791726.8234   19791730.8424
  23187647.198   -12206919.91249  -9488114.05749  23187647.4764   23187651.5594
  23456940.484   -17529896.37449 -13163990.87249  23456939.8584   23456943.8014
  24029770.670    -5409537.63249  -4164292.73249  24029768.9274   24029774.1904
  22344079.139   -21626903.35049 -16540711.76149  22344079.1364   22344083.2064
  21521174.110   -38406657.98849 -29622951.49049  21521173.9914   21521178.1104
  20816349.883   -37754410.84149 -29393639.99449  20816349.3314   20816353.7714
 97  1 15  1  0 29.9980000  0  7  7  4 15  9 26 27  2
  19788337.494   -36846311.22249 -28698550.08949  19788336.9194   19788340.9244
  23163599.167   -12333293.29749  -9586586.77249  23163599.5044   23163603.9694
  23462182.309   -17502350.46449 -13142526.50049  23462181.4904   23462185.7014
  24006318.230    -5532780.20249  -4260325.80949  24006318.4124   24006322.7294
  22344756.011   -21623346.21049 -16537939.96649  22344756.3974   22344760.5624
  21533850.282   -38340044.35949 -29571044.78249  21533850.0564   21533854.0064
  20815034.976   -37761320.32649 -29399024.00649  20815034.4124   20815038.8684
 97  1 15  1  0 59.9980000  0  7  7  4 15  9 26 27  2
  19785017.692   -36863756.80249 -28712144.03149  19785016.8684   19785021.0124
  23139552.955   -12459656.69149  -9685051.68949  23139553.3014   23139557.6544
  23467515.517   -17474324.37649 -13120687.95549  23467515.3974   23467519.2794
  23982870.989    -5655995.52349  -4356337.65049  23982868.9454   23982874.4514
  22345510.067   -21619383.68849 -16534852.28449  22345509.8354   22345514.5414
  21546579.267   -38273153.35949 -29518921.93949  21546579.0344   21546583.6274
  20813738.377   -37768133.96449 -29404333.31949  20813737.6294   20813742.0174
 97  1 15  1  1 29.9980000  0  7  7  4 15  9 26 27  2
  19781787.158   -36880732.91649 -28725372.16149  19781786.3944   19781790.5334
  23115529.886   -12585898.74949  -9783422.08749  23115529.5224   23115534.4764
  23472958.225   -17445723.06049 -13098401.20549  23472956.9604   23472961.1134
  23959449.428    -5779075.44749  -4452244.01549  23959449.2484   23959453.5834
  22346361.601   -21614908.90049 -16531365.43649  22346362.7454   22346365.6234
  21559383.100   -38205868.68549 -29466492.35249  21559383.1104   21559387.0684
  20812479.474   -37774749.61149 -29409488.36549  20812478.8914   20812483.1234
 97  1 15  1  1 59.9980000  0  7  7  4 15  9 26 27  2
  19778635.579   -36897294.63549 -28738277.38949  19778634.9164   19778639.0124
  23091517.525   -12712084.49549  -9881748.60049  23091517.7054   23091521.1244
  23478498.881   -17416606.59949 -13075713.02449  23478496.9454   23478502.8374
  23936040.969    -5902087.06949  -4548097.13449  23936041.1244   23936044.7404
  22347302.999   -21609962.01249 -16527510.72849  22347303.9734   22347306.7824
  21572253.802   -38138232.88749 -29413789.15649  21572253.7694   21572257.6624
  20811248.855   -37781216.59049 -29414527.56649  20811248.3634   20811252.5404
 97  1 15  1  2 29.9980000  0  7  7  4 15  9 26 27  2
  19775572.807   -36913389.59449 -28750818.90249  19775572.0564   19775576.2474
  23067523.918   -12838171.83149  -9979998.42849  23067523.5164   23067528.3184
  23484144.651   -17386937.15049 -13052593.95449  23484143.4164   23484147.5594
  23912655.780    -6024977.15549  -4643855.55449  23912656.1134   23912660.0504
  22348341.720   -21604503.62449 -16523257.44349  22348341.6454   22348345.4254
  21585202.787   -38070185.29149 -29360765.07149  21585202.5854   21585206.6444
  20810058.377   -37787472.80449 -29419402.53149  20810057.8274   20810062.0784
 97  1 15  1  2 59.9980000  0  7  7  4 15  9 26 27  2
  19772605.251   -36928984.00649 -28762970.38349  19772604.4714   19772608.8104
  23043554.709   -12964130.84049 -10078148.26649  23043554.6594   23043557.7594
  23489900.582   -17356689.21049 -13029024.11149  23489900.8704   23489904.6874
  23889301.777    -6147703.34949  -4739486.27949  23889301.5914   23889305.6394
  22349483.184   -21598505.30749 -16518583.43449  22349482.5954   22349487.3934
  21598237.957   -38001685.64649 -29307388.74549  21598237.6814   21598241.6334
  20808914.982   -37793481.55249 -29424084.67049  20808914.3884   20808918.5714
 97  1 15  1  3 29.9980000  0  7  7  4 15  9 26 27  2
  19769704.659   -36944226.73649 -28774847.82749  19769704.1894   19769708.1494
  23019585.527   -13090089.15349 -10176297.55649  23019585.2334   23019590.4684
  23495741.574   -17325994.88649 -13005106.44349  23495740.4674   23495744.7824
  23865953.410    -6270399.91449  -4835093.92249  23865953.1544   23865957.1934
  22350702.385   -21592098.15249 -16513590.85249  22350701.6714   22350707.0154
  21611331.831   -37932877.03549 -29253771.67049  21611331.4174   21611335.9554
  20807795.742   -37799363.16049 -29428667.74049  20807795.2034   20807799.5384
 97  1 15  1  3 59.9980000  0  7  7  4 15  9 26 27  2
  19766899.722   -36958966.93049 -28786333.68349  19766898.9114   19766903.0454
  22995650.209   -13215869.45549 -10274308.14549  22995650.4924   22995654.0374
  23501697.657   -17294695.32649 -12980717.14949  23501695.9044   23501700.8974
  23842640.606    -6392909.46949  -4930555.85149  23842640.5134   23842643.8774
  22352028.763   -21585128.10649 -16508159.65149  22352028.7924   22352033.7234
  21624513.349   -37863607.54349 -29199795.45749  21624513.2014   21624517.4394
  20806732.896   -37804948.49449 -29433019.94449  20806732.3494   20806736.5494
 97  1 15  1  4 29.9980000  0  7  7  4 15  9 26 27  2
  19764184.147   -36973237.09449 -28797453.28149  19764183.5704   19764187.4374
  22971747.712   -13341477.63749 -10372184.60549  22971746.6014   22971752.7994
  23507762.655   -17262822.59549 -12955881.26349  23507762.8944   23507766.3074
  23819358.812    -6515256.00749  -5025890.74949  23819358.3314   23819362.4004
  22353453.493   -21577641.18849 -16502325.69249  22353454.1264   22353457.9294
  21637774.873   -37793918.06449 -29145491.99749  21637774.8504   21637778.7354
  20805717.297   -37810285.43949 -29437178.59449  20805716.5324   20805720.6674
 97  1 15  1  4 59.9980000  0  7  7  4 15  9 26 27  2
  19761546.101   -36987100.41149 -28808255.85249  19761545.5774   19761549.7164
  22947871.107   -13466949.41949 -10469954.78149  22947870.9504   22947875.2484
  23513924.625   -17230440.75749 -12930648.65949  23513923.6294   23513927.3634
  23796096.783    -6637498.63749  -5121144.67849  23796096.4154   23796100.5424
  22354965.719   -21569694.50649 -16496133.46649  22354966.0394   22354969.4294
  21651101.032   -37723888.71749 -29090923.70349  21651100.9254   21651104.9254
  20804734.263   -37815451.15549 -29441203.82349  20804733.6934   20804737.9794
 97  1 15  1  5 29.9980000  0  7  7  4 15  9 26 27  2
  19758989.034   -37000537.88149 -28818726.60149  19758988.4374   19758992.5084
  22924026.108   -13592255.32949 -10567595.70849  22924025.7874   22924030.4264
  23520186.666   -17197532.44449 -12905005.78649  23520185.6044   23520191.3484
  23772856.910    -6759624.99249  -5216308.02349  23772856.4744   23772860.1344
  22356567.295   -21561278.30649 -16489575.39949  22356567.2614   22356571.5024
  21664491.720   -37653520.61749 -29036091.44649  21664491.3054   21664495.5594
  20803786.583   -37820431.34549 -29445084.48749  20803786.0194   20803790.1994
 97  1 15  1  5 59.9980000  0  7  7  4 15  9 26 27  2
  19756516.550   -37013530.74349 -28828850.89649  19756515.9294   19756519.9874
  22900211.626   -13717401.28149 -10665111.98049  22900211.7134   22900215.0144
  23526547.193   -17164107.38049 -12878960.28849  23526546.7814   23526551.0264
  23749639.313    -6881634.09549  -5311380.01449  23749639.3474   23749641.8614
  22358254.792   -21552410.46849 -16482665.38649  22358255.3624   22358258.7924
  21677946.915   -37582813.31949 -28980994.88349  21677947.0104   21677950.8434
  20802871.433   -37825240.57549 -29448831.92949  20802870.9924   20802875.1054
 97  1 15  1  6 29.9980000  0  7  7  4 15  9 26 27  2
  19754126.621   -37026089.81749 -28838637.18149  19754126.1034   19754130.2104
  22876422.456   -13842414.16749 -10762524.56849  22876422.4924   22876426.3684
  23533002.602   -17130184.42449 -12852526.79749  23533002.6914   23533006.1824
  23726441.140    -7003541.11649  -5406372.46349  23726441.3164   23726444.3514
  22360024.010   -21543113.52249 -16475421.01949  22360024.7374   22360028.2044
  21691462.202   -37511789.81949 -28925651.92449  21691461.9834   21691466.2004
  20801984.610   -37829900.78049 -29452463.25449  20801984.1464   20801988.0964
 97  1 15  1  6 59.9980000  0  7  7  4 15  9 26 27  2
  19751826.989   -37038174.59849 -28848053.88049  19751826.4854   19751830.3614
  22852663.934   -13967265.94649 -10859811.61449  22852664.1504   22852668.5664
  23539560.456   -17095723.01249 -12825673.73049  23539559.9324   23539563.9074
  23703267.827    -7125317.64149  -5501263.21049  23703267.2404   23703271.5534
  22361883.392   -21533342.51149 -16467807.23649  22361883.1504   22361887.3624
  21705043.062   -37440421.73749 -28870040.43549  21705042.8524   21705047.3644
  20801137.474   -37834352.57349 -29455932.17449  20801136.9334   20801141.0124
 97  1 15  1  7 29.9980000  0  7  7  4 15  9 26 27  2
  19749610.103   -37049824.39749 -28857131.63349  19749609.5204   19749613.4944
  22828924.903   -14092014.84949 -10957018.50249  22828924.6644   22828928.8724
  23546214.113   -17060758.11549 -12798428.34449  23546213.8254   23546217.1924
  23680110.887    -7247008.64849  -5596087.33849  23680110.4914   23680113.8724
  22363826.239   -21523132.53949 -16459851.41249  22363826.4354   22363830.8564
  21718683.995   -37368738.12349 -28814183.09349  21718683.4084   21718687.6184
  20800325.586   -37838619.30349 -29459256.88949  20800325.0054   20800329.2834
 97  1 15  1  7 59.9980000  0  7  7  4 15  9 26 27  2
  19747473.728   -37061051.02849 -28865879.65049  19747473.2294   19747477.1724
  22805202.426   -14216676.81049 -11054157.64949  22805202.5374   22805207.1014
  23552961.642   -17025298.88949 -12770797.77549  23552961.1344   23552964.5244
  23656969.471    -7368617.72749  -5690847.62849  23656968.7614   23656971.7094
  22365854.528   -21512473.59149 -16451545.73449  22365855.0114   22365858.4054
  21732387.771   -37296724.20549 -28758068.38549  21732387.8214   21732392.5274
  20799547.406   -37842708.76949 -29462443.48249  20799547.0734   20799550.8364
 97  1 15  1  8 29.9980000  0  7  7  4 15  9 26 27  2
  19745417.887   -37071854.60949 -28874298.01449  19745417.4324   19745421.1034
  22781500.862   -14341228.93049 -11151211.19849  22781501.8744   22781504.8084
  23559808.499   -16989319.03649 -12742761.48949  23559808.6044   23559811.2834
  23633849.109    -7490115.96949  -5785521.53849  23633848.8274   23633850.6544
  22367975.381   -21501328.65249 -16442861.37249  22367974.7234   22367979.9694
  21746157.105   -37224365.88849 -28701685.30149  21746156.6294   21746161.1264
  20798808.185   -37846593.42049 -29465470.47249  20798807.4554   20798811.6714
 97  1 15  1  8 59.9980000  0  7  7  4 15  9 26 27  2
  19743442.315   -37082236.37449 -28882387.69249  19743441.7704   19743445.4834
  22757819.627   -14465674.28849 -11248181.55449  22757820.2794   22757824.7694
  23566752.999   -16952825.69049 -12714325.11549  23566753.2964   23566756.4804
  23610750.263    -7611501.21149  -5880107.44349  23610750.8074   23610752.1974
  22370187.670   -21489702.34949 -16433801.91749  22370187.7614   22370192.5744
  21759991.507   -37151665.89549 -28645035.97849  21759991.2124   21759995.7124
  20798107.150   -37850277.27549 -29468341.00549  20798106.6004   20798110.4684
 97  1 15  1  9 29.9980000  0  7  7  4 15  9 26 27  2
  19741546.579   -37092198.55049 -28890150.41649  19741545.9724   19741549.7494
  22734159.287   -14590009.84849 -11345066.35449  22734158.6494   22734164.6184
  23573794.890   -16915821.22649 -12685490.44049  23573794.5224   23573797.6554
  23587677.872    -7732747.09349  -5974584.71849  23587677.6114   23587680.0024
  22372491.186   -21477597.71449 -16424369.73649  22372491.6064   22372495.4564
  21773894.921   -37078603.26349 -28588104.08449  21773895.0464   21773899.1934
  20797443.788   -37853763.09049 -29471057.21649  20797443.2804   20797447.2794
 97  1 15  1  9 59.9980000  0  7  7  4 15  9 26 27  2
  19739732.465   -37101731.75949 -28897578.88049  19739731.8384   19739735.6324
  22710524.995   -14714208.68649 -11441844.62049  22710525.3804   22710529.6794
  23580936.638   -16878291.52749 -12656246.50449  23580935.9384   23580940.2064
  23564637.109    -7853826.22249  -6068932.03949  23564637.0614   23564638.8084
  22374886.487   -21465010.13249 -16414561.23049  22374886.6184   22374890.5334
  21787868.826   -37005170.09349 -28530883.45149  21787868.4334   21787873.3094
  20796822.216   -37857029.41049 -29473602.39249  20796821.5104   20796825.6094
 97  1 15  1 10 29.9980000  0  7  7  4 15  9 26 27  2
  19737991.749   -37110879.00949 -28904706.59549  19737991.0634   19737994.9584
  22686911.494   -14838298.60649 -11538538.02449  22686911.4184   22686916.7204
  23588169.805   -16840280.86349 -12626627.78749  23588170.7694   23588173.1454
  23541619.346    -7974784.80349  -6163185.41349  23541618.3674   23541623.2554
  22377363.034   -21451995.62849 -16404420.05749  22377363.4744   22377367.0414
  21801900.151   -36931434.83449 -28473427.42249  21801899.9794   21801904.3744
  20796235.993   -37860109.95449 -29476002.80649  20796235.5364   20796239.1364
 97  1 15  1 10 59.9980000  0  7  7  4 15  9 26 27  2
  19736333.502   -37119592.90649 -28911496.62949  19736332.6714   19736336.6144
  22663328.815   -14962226.42249 -11635105.10449  22663329.0244   22663332.8814
  23595501.017   -16801755.06349 -12596607.64849  23595500.8154   23595504.5614
  23518631.967    -8095583.58449  -6257314.29249  23518631.4804   23518635.4064
  22379927.527   -21438519.19949 -16393918.93849  22379927.6284   22379932.3864
  21815997.317   -36857353.93549 -28415702.07749  21815997.3594   21816001.7734
  20795692.815   -37862964.50249 -29478227.11949  20795692.1924   20795696.0744
 97  1 15  1 11 29.9980000  0  7  7  4 15  9 26 27  2
  19734747.464   -37127927.37749 -28917991.01549  19734746.7694   19734750.4814
  22639772.807   -15086014.33649 -11731563.17749  22639772.9814   22639777.3054
  23602922.408   -16762755.70849 -12566218.53649  23602923.5864   23602924.1724
  23495668.331    -8216257.58249  -6351345.91349  23495668.3374   23495672.2034
  22382571.703   -21424624.07749 -16383091.57749  22382572.0684   22382575.7724
  21830151.042   -36782976.01149 -28357745.26949  21830150.9514   21830154.8824
  20795185.783   -37865628.90749 -29480303.27249  20795185.0934   20795189.3194
 97  1 15  1 11 59.9980000  0  7  7  4 15  9 26 27  2
  19733247.177   -37135811.51749 -28924134.48849  19733246.3684   19733250.3714
  22616259.406   -15209577.61649 -11827846.21049  22616259.0304   22616264.0374
  23610446.290   -16723216.84249 -12535409.00649  23610446.6084   23610450.5864
  23472737.674    -8336758.74549  -6445242.88649  23472738.5014   23472740.8894
  22385306.111   -21410254.39249 -16371894.41949  22385305.9954   22385309.9874
  21844371.589   -36708246.70449 -28299514.66149  21844370.6474   21844375.2584
  20794727.055   -37868039.44049 -29482181.60049  20794726.3804   20794730.2984
 97  1 15  1 12 29.9980000  0  7  7  4 15  9 26 27  2
  19731801.472   -37143408.68149 -28930054.34349  19731800.9784   19731804.8544
  22592759.607   -15333069.60249 -11924073.69349  22592759.3784   22592763.8144
  23618040.694   -16683308.10649 -12504311.26549  23618039.7514   23618042.5034
  23449809.494    -8457247.36449  -6539130.07749  23449809.8344   23449812.4954
  22388099.074   -21395577.24149 -16360457.67849  22388099.7014   22388103.7464
  21858628.203   -36633327.60549 -28241136.16849  21858627.8474   21858632.5614
  20794282.882   -37870373.60749 -29484000.42449  20794282.2984   20794286.1474
 97  1 15  1 12 59.9980000  0  7  7  4 15  9 26 27  2
  19730425.307   -37150640.68049 -28935689.65949  19730424.7214   19730428.5304
  22569288.199   -15456412.95149 -12020185.36449  22569288.8364   22569292.2724
  23625720.498   -16642950.24549 -12472863.55949  23625720.1944   23625723.1874
  23426901.908    -8577627.87249  -6632933.02049  23426901.5844   23426905.9744
  22390963.037   -21380527.40849 -16348730.53649  22390963.4394   22390967.6564
  21872939.271   -36558122.57949 -28182534.87049  21872939.4594   21872943.2604
  20793866.668   -37872560.83949 -29485704.75649  20793866.0964   20793870.2404
 97  1 15  1 13 29.9980000  0  7  7  4 15  9 26 27  2
  19729142.326   -37157382.63149 -28940943.11449  19729141.6094   19729145.7424
  22545867.288   -15579490.63449 -12116090.01849  22545866.8614   22545872.2784
  23633508.705   -16602022.18349 -12440971.55249  23633507.5734   23633513.1584
  23404037.469    -8697781.89949  -6726559.50349  23404036.8324   23404040.5424
  22393918.395   -21364996.81349 -16336628.77449  22393918.2834   22393921.9964
  21887327.113   -36482513.82149 -28123618.98149  21887326.5894   21887331.2144
  20793501.607   -37874479.05749 -29487199.46149  20793501.0694   20793505.0184
 97  1 15  1 13 59.9980000  0  7  7  4 15  9 26 27  2
  19727929.723   -37163754.93849 -28945908.53549  19727929.0994   19727933.0254
  22522468.128   -15702453.58849 -12211905.27649  22522469.0194   22522472.7114
  23641381.089   -16560652.23449 -12408735.19649  23641379.9434   23641383.6954
  23381191.969    -8817836.19449  -6820108.25049  23381190.7884   23381194.6844
  22396941.296   -21349111.56549 -16324250.64949  22396941.2404   22396944.5294
  21901768.646   -36406622.85149 -28064483.19649  21901767.9824   21901772.8774
  20793161.935   -37876264.06849 -29488590.37049  20793161.2544   20793165.1414
 97  1 15  1 14 29.9980000  0  7  7  4 15  9 26 27  2
  19726792.277   -37169732.32249 -28950566.22949  19726791.6564   19726795.5454
  22499095.515   -15825277.52949 -12307612.20649  22499095.7604   22499099.9094
  23649344.744   -16518803.21149 -12376125.55849  23649344.2004   23649349.0344
  23358373.312    -8937748.96749  -6913546.73449  23358373.5244   23358376.5404
  22400041.912   -21332817.95249 -16311554.34149  22400041.6344   22400046.1414
  21916270.999   -36330412.69649 -28005098.69049  21916270.8614   21916274.3454
  20792856.659   -37877868.29649 -29489840.41149  20792856.1254   20792859.9464
 97  1 15  1 14 59.9980000  0  7  7  4 15  9 26 27  2
  19725720.015   -37175367.02549 -28954956.89649  19725719.4494   19725723.4994
  22475735.792   -15948033.38349 -12403266.07249  22475736.3814   22475739.6144
  23657389.817   -16476526.00349 -12343182.27749  23657388.4414   23657392.1674
  23335568.125    -9057590.84849  -7006929.98649  23335568.4024   23335570.7044
  22403212.825   -21316154.21649 -16298569.60349  22403213.1684   22403216.7114
  21930822.261   -36253945.54049 -27945513.91449  21930822.1584   21930826.2654
  20792576.963   -37879337.89949 -29490985.55149  20792576.4194   20792580.3994
 97  1 15  1 15 29.9980000  0  7  7  4 15  9 26 27  2
  19724739.563   -37180519.26949 -28958971.61949  19724738.9474   19724742.8104
  22452415.576   -16070581.63849 -12498758.18149  22452416.0964   22452419.6104
  23665542.955   -16433680.43549 -12309796.09849  23665542.1664   23665546.7674
  23312799.847    -9177239.01949  -7100162.29449  23312799.6154   23312803.0874
  22406485.431   -21298956.60249 -16285168.86449  22406484.5044   22406489.4844
  21945446.890   -36177092.70849 -27885628.60749  21945447.1434   21945450.3204
  20792354.386   -37880507.34949 -29491896.80249  20792353.6134   20792358.0474
 97  1 15  1 15 59.9980000  0  7  7  4 15  9 26 27  2
  19723827.007   -37185314.78049 -28962708.36949  19723826.1694   19723830.4104
  22429113.039   -16193036.94949 -12594177.86449  22429113.1384   22429117.7624
  23673781.276   -16390387.21749 -12276061.12449  23673781.3324   23673785.7214
  23290047.400    -9296804.03749  -7193329.80449  23290046.7464   23290050.3544
  22409839.905   -21281328.29449 -16271432.52049  22409840.1404   22409843.7044
  21960123.139   -36099968.76549 -27825532.05249  21960123.0334   21960126.7224
  20792167.913   -37881487.21549 -29492660.32449  20792167.3224   20792171.3704
 97  1 15  1 16 29.9980000  0  7  7  4 15  9 26 27  2
  19722998.367   -37189669.18249 -28966101.39849  19722997.8434   19723001.8004
  22405849.478   -16315287.62449 -12689438.09449  22405849.8134   22405853.9944
  23682119.994   -16346567.18149 -12241915.63349  23682119.4904   23682123.7704
  23267326.933    -9416200.88149  -7286366.27649  23267326.0154   23267329.9734
  22413293.250   -21263181.17449 -16257291.90349  22413293.5104   22413296.9754
  21974867.171   -36022488.21449 -27765157.61949  21974866.3774   21974870.4914
  20792034.262   -37882189.67049 -29493207.68749  20792033.6754   20792037.6644
 97  1 15  1 16 59.9980000  0  7  7  4 15  9 26 27  2
  19722237.405   -37193667.85549 -28969217.24049  19722236.7604   19722240.7454
  22382607.626   -16437424.88449 -12784609.94649  22382607.4734   22382611.6404
  23690537.924   -16302330.33949 -12207445.35649  23690536.7034   23690542.6054
  23244623.060    -9535510.49349  -7379334.77049  23244621.8034   23244625.8454
  22416821.402   -21244640.25449 -16242844.43949  22416821.4374   22416825.2714
  21989658.658   -35944758.30249 -27704588.87649  21989658.7664   21989663.2594
  20791930.554   -37882734.69149 -29493632.37449  20791930.1264   20791933.9834
 97  1 15  1 17 29.9980000  0  7  7  4 15  9 26 27  2
  19721552.766   -37197265.63049 -28972020.68949  19721552.1244   19721556.2184
  22359402.065   -16559371.07149 -12879632.90749  22359402.6384   22359407.0494
  23699042.499   -16257638.53049 -12172620.55949  23699042.5644   23699046.3264
  23221948.821    -9654664.15749  -7472181.75749  23221947.5404   23221951.4814
  22420428.631   -21225684.10649 -16228073.40649  22420428.9304   22420433.2144
  22004508.289   -35866722.68949 -27643781.92649  22004508.0564   22004511.9504
  20791864.101   -37883083.94949 -29493904.51549  20791863.6024   20791867.6544
 97  1 15  1 17 59.9980000  0  7  7  4 15  9 26 27  2
  19720947.767   -37200444.72249 -28974497.89449  19720946.9924   19720951.2524
  22336239.621   -16681090.13349 -12974478.88649  22336239.5934   22336243.3824
  23707637.234   -16212473.00449 -12137426.61449  23707636.7454   23707639.9394
  23199312.105    -9773619.99149  -7564874.59149  23199311.7114   23199314.8204
  22424116.610   -21206303.56349 -16212971.68949  22424116.4674   22424121.0004
  22019420.527   -35788358.53449 -27582718.96649  22019419.7634   22019425.0774
  20791833.394   -37883245.27849 -29494030.21849  20791832.7844   20791836.8604
 97  1 15  1 18 29.9980000  0  7  7  4 15  9 26 27  2
  19720421.992   -37203207.52749 -28976650.71649  19720421.2464   19720425.5724
  22313121.000   -16802578.99849 -13069145.49149  22313120.7684   22313125.2214
  23716321.020   -16166838.76249 -12101867.45149  23716320.3534   23716325.9974
  23176713.028    -9892378.19449  -7657413.43349  23176713.2354   23176715.6664
  22427880.884   -21186522.08049 -16197557.53149  22427880.5114   22427884.9414
  22034390.900   -35709688.72649 -27521417.85049  22034390.3494   22034395.3494
  20791836.788   -37883227.38949 -29494016.26949  20791835.9614   20791840.1894
 97  1 15  1 18 59.9980000  0  7  7  4 15  9 26 27  2
  19719988.261   -37205486.55849 -28978426.57449  19719987.7174   19719991.8004
  22290060.327   -16923763.35249 -13163574.82749  22290061.0024   22290064.6674
  23725109.331   -16120656.24749 -12065881.05549  23725108.4094   23725113.2224
  23154164.701   -10010869.89149  -7749744.59249  23154164.1664   23154167.4474
  22431733.607   -21166275.93349 -16181781.31849  22431732.9944   22431737.6514
  22049430.582   -35630654.77149 -27459832.96749  22049430.3974   22049434.5934
  20791889.453   -37882950.11349 -29493800.20349  20791888.8754   20791893.1304
 97  1 15  1 19 29.9980000  0  7  7  4 15  9 26 27  2
  19719620.137   -37207420.98849 -28979933.91549  19719619.6014   19719623.5784
  22267035.530   -17044759.35949 -13257857.39649  22267035.3224   22267039.7894
  23733981.090   -16074034.91149 -12029552.75349  23733979.9584   23733985.0964
  23131642.649   -10129224.19849  -7841968.71849  23131643.1874   23131646.5284
  22435656.373   -21145661.69849 -16165718.28749  22435655.8994   22435660.6914
  22064518.478   -35551367.51949 -27398050.73449  22064517.8724   22064522.7924
  20791972.463   -37882513.86249 -29493460.26249  20791971.8574   20791976.0344
 97  1 15  1 19 59.9980000  0  7  7  4 15  9 26 27  2
  19719321.537   -37208990.19049 -28981156.66049  19719320.9784   19719325.2774
  22244047.775   -17165560.73449 -13351988.29649  22244047.8664   22244051.9204
  23742941.949   -16026944.48049 -11992858.92149  23742941.2044   23742947.2284
  23109152.788   -10247409.18649  -7934060.87049  23109152.3074   23109155.7144
  22439655.790   -21124644.34349 -16149341.12249  22439654.9804   22439659.8324
  22079658.551   -35471805.88849 -27336054.69249  22079658.2914   22079663.5564
  20792092.628   -37881882.21549 -29492968.06349  20792092.2244   20792096.0714
 97  1 15  1 20 29.9980000  0  7  7  4 15  9 26 27  2
  19719085.904   -37210228.30249 -28982121.41149  19719085.4014   19719089.5854
  22221090.387   -17286202.37649 -13445994.72949  22221090.6894   22221094.3244
  23751984.736   -15979424.19249 -11955830.12849  23751983.3644   23751989.3854
  23086687.366   -10365465.54849  -8026052.81749  23086686.7894   23086690.7484
  22443723.691   -21103267.31149 -16132683.70049  22443723.2844   22443727.1214
  22094845.051   -35392000.23049 -27273868.50849  22094844.6974   22094850.1814
  20792245.836   -37881077.31349 -29492340.85949  20792245.2384   20792249.3424
 97  1 15  1 20 59.9970000  0  7  7  4 15  9 26 27  2
  19718925.320   -37211072.24849 -28982779.02049  19718924.5634   19718928.6504
  22198179.359   -17406601.08549 -13539811.86349  22198180.0104   22198183.0604
  23761122.054   -15931406.80249 -11918414.00849  23761121.2484   23761126.1394
  23064262.037   -10483311.18749  -8117880.56249  23064262.0444   23064266.1964
  22447875.215   -21081451.04949 -16115684.01549  22447875.3794   22447879.1304
  22110095.323   -35311859.73949 -27211421.40249  22110095.4094   22110100.0744
  20792445.439   -37880028.29649 -29491523.43749  20792444.7804   20792449.2324
 97  1 15  1 21 29.9970000  0  7  7  4 15  9 26 27  2
  19718827.344   -37211586.83949 -28983179.98449  19718826.8004   19718830.8914
  22175299.471   -17526835.73849 -13633501.15749  22175299.7894   22175303.7924
  23770339.956   -15882966.40449 -11880668.25349  23770339.1174   23770343.2304
  23041865.468   -10601005.93749  -8209590.70249  23041864.8794   23041870.2454
  22452097.659   -21059261.77949 -16098393.67549  22452097.7464   22452101.4714
  22125397.648   -35231445.55349 -27148761.00849  22125397.4764   22125401.1614
  20792678.404   -37878803.88149 -29490569.33849  20792677.8394   20792681.9864
 97  1 15  1 21 59.9970000  0  7  7  4 15  9 26 27  2
  19718811.469   -37211670.34449 -28983245.04849  19718810.7014   19718814.9004
  22152470.173   -17646804.03649 -13726982.90949  22152470.3244   22152473.8414
  23779653.163   -15834024.70649 -11842531.85249  23779652.7094   23779657.1944
  23019516.326   -10718451.20149  -8301106.45949  23019516.5804   23019520.0984
  22456405.374   -21036624.94849 -16080754.59149  22456405.9144   22456409.1334
  22140765.144   -35150688.68249 -27085833.60649  22140764.9274   22140769.1794
  20792960.593   -37877321.12849 -29489413.94649  20792960.1834   20792964.2584
 97  1 15  1 22 29.9970000  0  6  7  4  9 26 27  2
  19718860.746   -37211411.14449 -28983043.06249  19718860.0774   19718864.1834
  22129675.642   -17766589.49949 -13820322.19049  22129675.9644   22129679.7954
  22997194.392   -10835754.02449  -8392511.21649  22997194.3344   22997198.4724
  22460780.777   -21013632.23749 -16062838.19749  22460781.3554   22460784.3274
  22156178.029   -35069693.50949 -27022720.50349  22156178.3674   22156182.2014
  20793272.272   -37875683.37749 -29488137.77349  20793271.8474   20793275.6934
 97  1 15  1 22 59.9970000  0  6  7  4  9 26 27  2
  19718979.913   -37210784.97749 -28982555.12649  19718979.3954   19718983.4204
  22106917.504   -17886184.30649 -13913512.90149  22106917.1604   22106921.7174
  22974903.749   -10952892.19149  -8483787.66949  22974903.2054   22974907.5244
  22465227.305   -20990265.96249 -16044630.71949  22465227.3974   22465231.7914
  22171637.153   -34988455.74849 -26959418.35849  22171637.3754   22171641.1004
  20793616.405   -37873875.07449 -29486728.69949  20793615.9194   20793619.9254
 97  1 15  1 23 29.9970000  0  6  7  4  9 26 27  2
  19719192.162   -37209669.52849 -28981685.93349  19719191.4984   19719195.5024
  22084215.502   -18005483.97349 -14006473.63949  22084215.4664   22084219.3034
  22952664.044   -11069762.41349  -8574855.34449  22952663.3724   22952667.3444
  22469767.211   -20966408.84549 -16026040.76549  22469768.0534   22469771.8734
  22187161.458   -34906875.46349 -26895849.32549  22187161.7384   22187166.3484
  20794016.050   -37871774.77449 -29485092.09649  20794015.4834   20794019.5144
 97  1 15  1 23 59.9970000  0  6  7  4  9 26 27  2
  19719471.560   -37208201.26349 -28980541.82349  19719471.2044   19719475.0894
  22061546.645   -18124609.24849 -14099298.48849  22061546.7794   22061551.3464
  22930450.419   -11186495.60249  -8665816.23449  22930449.3804   22930453.3384
  22474376.644   -20942186.35249 -16007166.09449  22474377.3924   22474380.7404
  22202728.538   -34825070.61249 -26832105.29649  22202728.1014   22202732.8234
  20794447.939   -37869504.96449 -29483323.40949  20794447.1544   20794451.5594
 97  1 15  1 24 29.9970000  0  6  7  4  9 26 27  2
  19719822.964   -37206354.79549 -28979103.00549  19719822.3214   19719826.4264
  22038915.949   -18243534.02949 -14191967.11549  22038916.1664   22038920.1734
  22908268.629   -11303061.30649  -8756646.61649  22908268.0364   22908271.5184
  22479059.777   -20917576.62049 -15987989.67549  22479060.4204   22479063.6984
  22218345.437   -34743003.31749 -26768156.76949  22218345.5794   22218349.2024
  20794919.284   -37867028.01149 -29481393.30849  20794918.8174   20794923.0774
 97  1 15  1 24 59.9970000  0  6  7  4  9 26 27  2
  19720246.751   -37204127.88149 -28977367.73649  19720246.1684   19720250.2124
  22016328.061   -18362234.47149 -14284460.93149  22016328.0334   22016332.3844
  22886123.949   -11419432.28349  -8847325.28249  22886123.8364   22886127.1124
  22483819.360   -20892565.04149 -15968500.14849  22483820.3454   22483823.2344
  22234015.578   -34660655.68649 -26703989.79749  22234015.5514   22234019.6634
  20795436.122   -37864312.00649 -29479276.93549  20795435.3604   20795439.7614
 97  1 15  1 25 29.9970000  0  6  7  4  9 26 27  2
  19720728.284   -37201597.27349 -28975395.82549  19720727.7544   19720731.7924
  21993776.093   -18480745.98549 -14376807.52349  21993776.1164   21993780.3014
  22864003.967   -11535673.35549  -8937902.72749  22864004.0094   22864007.6884
  22488643.683   -20867213.25049 -15948745.50049  22488644.2464   22488647.7784
  22249726.088   -34578096.30749 -26639657.83049  22249725.6054   22249730.5624
  20795986.881   -37861417.65249 -29477021.58649  20795986.2284   20795990.5934
 97  1 15  1 25 59.9970000  0  6  7  4  9 26 27  2
  19721273.413   -37198732.52349 -28973163.54249  19721272.7774   19721276.7544
  21971266.987   -18599031.93349 -14468978.35249  21971266.8284   21971270.5704
  22841916.121   -11651745.83749  -9028348.78349  22841916.1114   22841920.3684
  22493533.982   -20841514.34349 -15928720.38049  22493534.4604   22493537.7974
  22265481.123   -34495302.91349 -26575143.52049  22265480.5694   22265485.0874
  20796576.215   -37858320.54949 -29474608.25549  20796575.5304   20796579.7574
 97  1 15  1 26 29.9970000  0  6  7  4  9 26 27  2
  19721898.596   -37195447.17249 -28970603.52349  19721898.0844   19721901.9724
  21948815.611   -18717014.39249 -14560912.70049  21948815.4014   21948820.0364
  22819874.436   -11767575.50449  -9118605.64049  22819874.0804   22819877.7054
  22498503.255   -20815400.92749 -15908372.27649  22498503.5204   22498507.1584
  22281293.298   -34412209.37249 -26510395.33449  22281293.6014   22281297.2174
  20797218.257   -37854946.36949 -29471979.01049  20797217.6564   20797221.7154
 97  1 15  1 26 59.9970000  0  6  7  4  9 26 27  2
  19722583.266   -37191849.48049 -28967800.11449  19722582.6304   19722586.5554
  21926402.706   -18834794.50649 -14652689.37349  21926402.6774   21926406.6614
  22797858.192   -11883271.39649  -9208758.24149  22797857.9214   22797860.7124
  22503531.049   -20788979.84149 -15887784.41649  22503531.0404   22503535.0714
  22297140.317   -34328932.89549 -26445504.60649  22297140.3314   22297144.3014
  20797890.693   -37851412.70349 -29469225.49849  20797890.3304   20797894.3094
 97  1 15  1 27 29.9970000  0  6  7  4  9 26 27  2
  19723329.827   -37187926.23849 -28964743.02949  19723329.1434   19723333.2244
  21904027.328   -18952377.74549 -14744312.63849  21904027.1284   21904031.8174
  22775868.241   -11998828.95649  -9298803.05349  22775868.2644   22775870.7054
  22508615.725   -20762259.55149 -15866963.41849  22508616.1194   22508619.6484
  22313023.879   -34245464.38049 -26380464.19849  22313023.2754   22313027.0894
  20798593.132   -37847721.71849 -29466349.39149  20798592.4744   20798596.6734
 97  1 15  1 27 59.9970000  0  6  7  4  9 26 27  2
  19724170.770   -37183507.00149 -28961299.46349  19724170.0314   19724173.9764
  21881717.711   -19069615.30549 -14835666.54649  21881717.8624   21881721.4614
  22753936.789   -12114079.20149  -9388608.40249  22753936.7074   22753940.0334
  22513789.543   -20735071.07349 -15845777.58749  22513789.6384   22513794.4634
  22328979.209   -34161618.55349 -26315129.79249  22328979.3994   22328983.8524
  20799356.442   -37843710.24549 -29463223.56949  20799355.8964   20799360.0214
 97  1 15  1 28 29.9970000  0  6  7  4  9 26 27  2
  19725079.346   -37178732.38549 -28957578.97349  19725078.8824   19725082.5244
  21859449.429   -19186635.63749 -14926851.19049  21859449.6384   21859453.7224
  22732039.698   -12229149.26349  -9478273.35649  22732039.5964   22732043.0294
  22519029.143   -20707536.40349 -15824322.00549  22519028.8714   22519033.0404
  22344982.101   -34077522.63749 -26249600.51149  22344982.2314   22344986.5344
  20800154.156   -37839518.28949 -29459957.10649  20800153.8234   20800158.0144
 97  1 15  1 28 59.9970000  0  6  7  4  9 26 27  2
  19726033.600   -37173717.85349 -28953671.53449  19726032.9124   19726036.7284
  21837202.283   -19303545.07849 -15017949.41449  21837202.5194   21837206.4174
  22710158.552   -12344135.24249  -9567872.79249  22710158.3154   22710160.8794
  22524313.193   -20679768.65249 -15802684.80549  22524313.5524   22524317.7824
  22361013.083   -33993279.58649 -26183956.59749  22361012.4934   22361017.8294
  20800963.102   -37835267.18249 -29456644.54349  20800962.6934   20800966.6894
 97  1 15  1 29 29.9970000  0  6  7  4  9 26 27  2
  19727070.101   -37168270.78449 -28949427.05349  19727069.4444   19727073.2334
  21815015.509   -19420137.08049 -15108800.29449  21815015.4794   21815019.9034
  22688334.319   -12458822.37049  -9657239.36549  22688333.8134   22688337.5584
  22529680.446   -20651563.40849 -15780706.67549  22529680.7674   22529684.2654
  22377112.800   -33908675.20949 -26118031.11549  22377112.0684   22377117.2634
  20801824.442   -37830740.94849 -29453117.60249  20801823.9674   20801827.9594
 97  1 15  1 29 59.9970000  0  6  7  4  9 26 27  2
  19728176.330   -37162457.45749 -28944897.17549  19728175.7384   19728179.6394
  21792881.328   -19536453.07249 -15199436.08449  21792881.7424   21792885.1544
  22666557.668   -12573259.84149  -9746411.39649  22666556.8894   22666560.1864
  22535119.048   -20622982.90349 -15758436.16249  22535118.1024   22535123.1484
  22393266.772   -33823785.44849 -26051883.26049  22393266.6544   22393271.2954
  20802727.793   -37825993.97949 -29449418.65649  20802727.2424   20802731.2874
 97  1 15  1 30 29.9970000  0  6  7  4  9 26 27  2
  19729332.680   -37156380.73349 -28940162.05749  19729332.0384   19729335.6644
  21770786.181   -19652563.71649 -15289911.88849  21770786.6484   21770790.4384
  22644814.471   -12687521.26949  -9835446.25949  22644814.1714   22644817.4564
  22540608.815   -20594133.41349 -15735956.03649  22540610.1204   22540613.6884
  22409453.433   -33738724.08549 -25985601.69349  22409453.8584   22409458.5384
  20803657.130   -37821110.13149 -29445613.05849  20803656.5984   20803660.6934
 97  1 15  1 30 59.9970000  0  6  7  4  9 26 27  2
  19730552.109   -37149972.45149 -28935168.58049  19730551.6534   19730555.1324
  21748746.253   -19768384.39449 -15380161.73649  21748746.3564   21748749.6814
  22623117.939   -12801537.56249  -9924290.10049  22623117.6524   22623120.5904
  22546164.887   -20564935.83949 -15713204.67249  22546164.8854   22546169.1184
  22425685.244   -33653425.33949 -25919135.13449  22425684.6524   22425690.2454
  20804631.786   -37815988.42249 -29441622.10949  20804631.3434   20804635.4394
 97  1 15  1 31 29.9970000  0  6  7  4  9 26 27  2
  19731825.081   -37143283.09449 -28929956.07949  19731824.5724   19731828.3094
  21726753.817   -19883955.11749 -15470216.81349  21726753.5814   21726757.9964
  22601458.294   -12915359.95849 -10012982.85649  22601457.6164   22601461.2334
  22551779.934   -20535429.08949 -15690212.39949  22551780.4774   22551784.7264
  22441949.866   -33567954.29549 -25852534.33449  22441949.6524   22441953.2724
  20805647.080   -37810653.09049 -29437464.70149  20805646.5014   20805650.7174
 97  1 15  1 31 59.9970000  0  6  7  4  9 26 27  2
  19733162.858   -37136253.19249 -28924478.22349  19733162.2464   19733166.0014
  21704818.984   -19999223.44249 -15560036.26149  21704819.2964   21704823.3474
  22579846.247   -13028931.75149 -10101480.34949  22579845.5484   22579849.0924
  22557464.471   -20505556.59049 -15666935.13349  22557465.5924   22557468.8574
  22458256.450   -33482262.72949 -25785761.68849  22458256.2334   22458261.2464
  20806710.163   -37805066.46449 -29433111.48149  20806709.7454   20806713.8004
 97  1 15  1 32 29.9970000  0  6  7  4  9 26 27  2
  19734559.777   -37128912.29349 -28918758.03249  19734559.2494   19734562.9724
  21682932.498   -20114237.64849 -15649657.68349  21682933.0984   21682936.5724
  22558271.916   -13142305.36449 -10189823.39849  22558271.4644   22558274.5754
  22563213.355   -20475346.26049 -15643394.62049  22563213.2724   22563217.5394
  22474600.217   -33396375.61749 -25718836.67249  22474599.8384   22474605.0634
  20807812.349   -37799274.15349 -29428597.98749  20807811.5724   20807815.8524
 97  1 15  1 32 59.9970000  0  6  7  4  9 26 27  2
  19736025.875   -37121207.91749 -28912754.60949  19736025.2944   19736029.1854
  21661098.480   -20228975.83949 -15739064.04249  21661098.7034   21661102.3604
  22536738.993   -13255461.34549 -10277996.87149  22536738.8104   22536742.0434
  22569034.865   -20444753.91349 -15619556.42649  22569035.3924   22569039.1144
  22490990.454   -33310244.02749 -25651721.16749  22490990.3314   22490995.2964
  20808959.691   -37793244.66749 -29423899.68149  20808959.2074   20808963.3164
 97  1 15  1 33 29.9970000  0  6  7  4  9 26 27  2
  19737556.804   -37113162.68949 -28906485.59349  19737556.0944   19737559.8264
  21639311.477   -20343467.48449 -15828278.28449  21639311.6464   21639315.3354
  22515243.096   -13368422.94749 -10366018.87549  22515243.4514   22515246.5284
  22574920.493   -20413824.64849 -15595455.70549  22574920.3184   22574924.3184
  22507422.509   -33223892.73449 -25584434.45049  22507421.8664   22507427.5194
  20810140.627   -37787038.62749 -29419063.80249  20810140.0304   20810144.4594
 97  1 15  1 33 59.9970000  0  6  7  4  9 26 27  2
  19739155.896   -37104759.17149 -28899937.38849  19739155.3374   19739158.8774
  21617572.855   -20457704.78649 -15917294.33049  21617572.6464   21617576.7764
  22493784.741   -13481187.54749 -10453887.39249  22493784.2474   22493788.2654
  22580869.851   -20382560.29349 -15571093.88949  22580870.2394   22580875.0934
  22523899.807   -33137303.64449 -25516962.47649  22523898.5504   22523904.3804
  20811356.408   -37780649.66349 -29414085.38349  20811355.7484   20811359.9824
 97  1 15  1 34 29.9970000  0  6  7  4  9 26 27  2
  19740829.543   -37095964.08549 -28893084.05849  19740828.8094   19740832.5254
  21595892.994   -20571632.91949 -16006069.46249  21595892.5854   21595896.9864
  22472369.539   -13593725.15249 -10541578.99749  22472369.2924   22472372.8684
  22586886.190   -20350944.12449 -15546457.90449  22586886.3544   22586891.1824
  22540427.605   -33050449.19849 -25449283.66549  22540428.1464   22540432.5644
  20812618.046   -37774019.74749 -29408919.20649  20812617.6954   20812621.5524
 97  1 15  1 34 59.9970000  0  6  7  4  9 26 27  2
  19742552.753   -37086908.38049 -28886027.65149  19742552.1364   19742555.7414
  21574252.402   -20685354.58949 -16094683.71849  21574252.3964   21574256.4344
  22450977.451   -13706140.74849 -10629175.53949  22450976.9424   22450981.2574
  22592943.618   -20319112.29749 -15521653.89549  22592943.2414   22592947.4874
  22556980.395   -32963463.51649 -25381502.64149  22556979.9884   22556984.8454
  20813903.893   -37767262.88649 -29403654.11549  20813903.1454   20813907.1704
 97  1 15  1 35 29.9970000  0  6  7  4  9 26 27  2
  19744333.126   -37077552.64549 -28878737.45749  19744332.6034   19744336.1934
  21552663.782   -20798803.42049 -16183085.36249  21552663.9514   21552668.0514
  22429621.858   -13818364.85649 -10716622.87349  22429621.8564   22429624.9804
  22599051.441   -20287015.48349 -15496643.38649  22599051.9324   22599055.4954
  22573567.217   -32876299.87549 -25313582.90649  22573567.1454   22573572.2174
  20815224.703   -37760321.90349 -29398245.55649  20815224.2104   20815228.2474
 97  1 15  1 35 59.9970000  0  6  7  4  9 26 27  2
  19746159.788   -37067953.43749 -28871257.54749  19746159.0594   19746162.7494
  21531116.955   -20912032.60849 -16271315.86449  21531117.0584   21531121.2144
  22408294.934   -13930438.43649 -10803952.90349  22408294.4414   22408298.3484
  22605202.203   -20254692.75349 -15471456.85649  22605202.4144   22605205.9414
  22590179.722   -32789001.21849 -25245557.98349  22590179.4544   22590183.8034
  20816575.223   -37753224.90149 -29392715.42449  20816574.8054   20816578.4354
 97  1 15  1 36 29.9970000  0  6  7  4  9 26 27  2
  19748062.149   -37057956.28949 -28863467.54949  19748061.4524   19748065.2654
  21509642.314   -21024882.67249 -16359250.95449  21509642.5044   21509646.3284
  22387033.253   -14042168.49849 -10891015.26149  22387032.7704   22387036.4234
  22611428.689   -20221972.41749 -15445960.49249  22611428.9534   22611433.4494
  22606848.128   -32701408.21649 -25177303.70349  22606848.0954   22606853.3394
  20817982.790   -37745828.20549 -29386951.76049  20817982.3614   20817986.3424
 97  1 15  1 36 59.9970000  0  6  7  4  9 26 27  2
  19750022.799   -37047652.76649 -28855438.81349  19750021.9744   19750025.9144
  21488220.786   -21137453.55849 -16446968.48249  21488220.8044   21488224.7664
  22365822.910   -14153629.70649 -10977868.12649  22365822.3334   22365826.5564
  22617717.556   -20188924.29449 -15420208.70449  22617717.3104   22617721.4204
  22623555.098   -32613613.03249 -25108891.88049  22623555.3494   22623559.2134
  20819427.795   -37738234.57249 -29381034.63549  20819427.0314   20819431.1934
 97  1 15  1 37 29.9970000  0  6  7  4  9 26 27  2
  19752033.413   -37037086.66749 -28847205.48349  19752032.9224   19752036.8264
  21466843.457   -21249791.83249 -16534504.77049  21466843.4744   21466847.5404
  22344655.985   -14264863.14849 -11064543.51649  22344656.0274   22344659.7014
  22624062.837   -20155579.54549 -15394225.79249  22624063.2574   22624067.6744
  22640292.594   -32525657.35549 -25040355.00149  22640292.3124   22640296.6494
  20820903.531   -37730479.66749 -29374991.84849  20820902.7294   20820906.9784
 97  1 15  1 37 59.9970000  0  6  7  4  9 26 27  2
  19754105.364   -37026198.57249 -28838721.24349  19754104.7584   19754108.5954
  21445521.393   -21361839.85349 -16621814.88549  21445521.4244   21445525.0044
  22323542.471   -14375815.75549 -11151000.08349  22323542.3334   22323545.4094
  22630473.452   -20121891.65049 -15367975.47749  22630472.4904   22630477.9304
  22657068.106   -32437501.51549 -24971662.14049  22657067.7684   22657072.8264
  20822420.227   -37722509.14849 -29368781.05249  20822419.6194   20822423.7884
 97  1 15  1 38 29.9970000  0  6  7  4  9 26 27  2
  19756233.917   -37015013.11949 -28830005.29749  19756233.3144   19756237.0054
  21424252.210   -21473609.98249 -16708908.45349  21424252.1694   21424256.0034
  22302474.537   -14486528.29149 -11237269.56349  22302474.1784   22302476.8834
  22636938.819   -20087916.05349 -15341500.98449  22636939.3734   22636942.8654
  22673871.274   -32349199.97049 -24902855.74249  22673871.4654   22673876.0724
  20823970.307   -37714363.33849 -29362433.66449  20823969.6664   20823973.8384
 97  1 15  1 38 59.9970000  0  6  7  4  9 26 27  2
  19758435.925   -37003441.52449 -28820988.45749  19758435.2904   19758438.9944
  21403056.148   -21584995.62049 -16795702.42249  21403056.3624   21403060.2344
  22281464.203   -14596938.09149 -11323303.16249  22281463.5844   22281467.4454
  22643472.860   -20053579.18849 -15314745.00049  22643472.3004   22643477.5454
  22690719.826   -32260660.08749 -24833863.62149  22690719.5324   22690724.0764
  20825574.777   -37705931.68149 -29355863.53849  20825574.2154   20825578.4264
 97  1 15  1 39 29.9970000  0  6  7  4  9 26 27  2
  19760676.202   -36991668.92649 -28811814.98549  19760675.6094   19760679.3944
  21381896.794   -21696188.85949 -16882346.45549  21381896.9814   21381900.6744
  22260473.311   -14707245.93449 -11409257.29049  22260473.0754   22260476.2534
  22650035.303   -20019093.79549 -15287873.25849  22650035.1174   22650039.3024
  22707577.710   -32172070.97249 -24764833.14849  22707577.4314   22707582.9544
  20827197.132   -37697406.17049 -29349220.27349  20827196.5124   20827200.5404
 97  1 15  1 39 59.9970000  0  6  7  4  9 26 27  2
  19762995.745   -36979479.65649 -28802316.85049  19762995.1034   19762998.8934
  21360814.689   -21806976.08249 -16968674.13649  21360814.9764   21360819.0684
  22239541.988   -14817241.05449 -11494967.76249  22239542.1354   22239545.0034
  22656663.089   -19984264.73349 -15260733.73349  22656663.3184   22656666.9794
  22724484.983   -32083222.63649 -24695600.70149  22724484.8564   22724490.3354
  20828874.730   -37688590.39549 -29342350.83949  20828874.3004   20828878.3244
 97  1 15  1 40 29.9970000  0  6  7  4  9 26 27  2
  19765368.819   -36967008.91749 -28792599.37849  19765368.1704   19765371.9704
  21339784.551   -21917490.18549 -17054788.98049  21339784.8944   21339788.3584
  22218644.788   -14927056.87849 -11580538.49949  22218644.5324   22218648.1924
  22663334.218   -19949207.85149 -15233416.68449  22663333.6114   22663337.8484
  22741420.394   -31994225.47049 -24626252.28549  22741420.5824   22741425.2244
  20830584.368   -37679606.05349 -29335350.04749  20830583.8674   20830588.1504
 97  1 15  1 40 59.9970000  0  6  7  4  9 26 27  2
  19767802.937   -36954217.65049 -28782632.14749  19767802.3954   19767806.2984
  21318812.770   -22027697.54349 -17140664.81049  21318812.5534   21318816.3834
  22197793.694   -15036630.35349 -11665920.41149  22197792.8584   22197796.4184
  22670062.156   -19913852.36749 -15205866.95849  22670061.7334   22670066.4284
  22758394.670   -31905024.59749 -24556745.12749  22758394.2914   22758399.5424
  20832337.234   -37670394.67749 -29328172.34849  20832336.5734   20832340.9144
 97  1 15  1 41 29.9970000  0  6  7  4  9 26 27  2
  19770292.057   -36941136.98049 -28772439.40649  19770291.5124   19770295.2254
  21297893.662   -22137627.97149 -17226324.85049  21297893.6354   21297897.3504
  22176987.262   -15145968.57149 -11751119.00249  22176986.6024   22176990.0544
  22676844.168   -19878212.62649 -15178095.72749  22676844.2974   22676847.8594
  22775401.469   -31815653.41349 -24487105.25949  22775401.7874   22775406.4774
  20834126.763   -37660990.86649 -29320844.70649  20834126.0054   20834130.3974
 97  1 15  1 41 59.9970000  0  6  7  4  9 26 27  2
  19772827.513   -36927813.10849 -28762057.16249  19772826.9474   19772830.7674
  21277024.169   -22247297.54549 -17311781.62849  21277024.3034   21277027.6964
  22156222.511   -15255087.60649 -11836146.80249  22156222.0174   22156225.0484
  22683676.983   -19842305.84849 -15150116.42249  22683677.5274   22683680.4814
  22792435.100   -31726141.58849 -24417355.79949  22792434.9464   22792439.5084
  20835949.526   -37651412.07249 -29313380.70549  20835948.8334   20835953.1864
 97  1 15  1 42 29.9970000  0  6  7  4  9 26 27  2
  19775422.328   -36914177.32249 -28751431.86049  19775421.8004   19775425.5324
  21256219.024   -22356629.16149 -17396975.04749  21256218.6764   21256222.8204
  22135516.155   -15363900.39249 -11920935.96049  22135515.8014   22135518.9334
  22690577.007   -19806046.59749 -15121862.45649  22690576.8314   22690581.5954
  22809510.887   -31636408.17749 -24347433.66249  22809511.1544   22809515.6454
  20837822.147   -37641571.28749 -29305712.55649  20837821.4264   20837825.7894
 97  1 15  1 42 59.9970000  0  6  7  4  9 26 27  2
  19778070.989   -36900258.72249 -28740586.18749  19778070.3474   19778074.2144
  21235474.114   -22465643.92449 -17481921.58549  21235474.1174   21235478.4704
  22114865.410   -15472420.79149 -12005497.29249  22114865.0184   22114867.8964
  22697533.806   -19769488.63749 -15093375.72949  22697534.3544   22697538.6944
  22826620.308   -31546497.61349 -24277373.50349  22826619.9504   22826625.0794
  20839736.488   -37631511.20049 -29297873.52849  20839736.0814   20839740.1644
 97  1 15  1 43 29.9970000  0  6  7  4  9 26 27  2
  19780771.056   -36886069.74449 -28729529.83449  19780770.4884   19780774.1364
  21214791.497   -22574331.73549 -17566613.35249  21214791.3464   21214795.1974
  22094267.555   -15580663.24549 -12089842.03649  22094267.4174   22094270.3234
  22704542.022   -19732660.32449 -15064678.35349  22704542.5724   22704545.8244
  22843761.849   -31456418.54749 -24207182.04749  22843761.5134   22843767.2924
  20841690.149   -37621244.69149 -29289873.64749  20841689.4994   20841693.5734
 97  1 15  1 43 59.9970000  0  6  7  4  9 26 27  2
  19783531.669   -36871562.53649 -28718225.50549  19783530.9474   19783534.8204
  21194180.616   -22682642.13549 -17651011.03449  21194180.5244   21194184.9604
  22073729.340   -15688591.90649 -12173942.26649  22073728.5764   22073731.5994
  22711604.245   -19695547.91349 -15035759.57949  22711604.8734   22711608.3094
  22860943.536   -31366128.18449 -24136825.93749  22860943.1284   22860947.1204
  20843692.643   -37610721.61549 -29281673.84549  20843691.9624   20843696.1084
 97  1 15  1 44 29.9970000  0  7  7  4  9 24 26 27  2
  19786360.570   -36856696.34449 -28706641.45349  19786359.6984   19786363.5554
  21173648.828   -22790537.13049 -17735085.02649  21173648.5784   21173652.9894
  22053254.741   -15796186.46449 -12257782.16449  22053254.4004   22053256.8794
  23709842.067    -5104660.36149  -3640613.90249  23709841.3884   23709848.5494
  22718723.092   -19658139.01549 -15006609.78849  22718724.2844   22718727.9564
  22878170.391   -31275600.72249 -24066285.07649  22878169.8034   22878174.9114
  20845748.698   -37599916.66749 -29273254.40349  20845748.2094   20845752.4034
 97  1 15  1 44 59.9970000  0  7  7  4  9 24 26 27  2
  19789231.812   -36841607.58749 -28694883.97249  19789231.2004   19789235.0244
  21153173.505   -22898135.26449 -17818927.69349  21153173.5934   21153177.4504
  22032816.623   -15903589.38149 -12341472.73049  22032816.0494   22032819.4174
  23684679.586    -5236889.27849  -3743649.38849  23684679.3584   23684685.0634
  22725870.864   -19620577.19649 -14977340.84449  22725870.7074   22725875.6764
  22895413.733   -31184986.82449 -23995676.85349  22895413.8054   22895417.5184
  20847831.896   -37588969.63949 -29264724.25149  20847831.1074   20847835.4854
 97  1 15  1 45 29.9970000  0  7  7  4  9 24 26 27  2
  19792146.671   -36826289.84449 -28682948.06249  19792146.0524   19792149.8854
  21132757.543   -23005421.75349 -17902527.53249  21132757.4864   21132761.4044
  22012415.702   -16010795.99549 -12425010.31349  22012415.2624   22012418.5834
  23659495.434    -5369232.77049  -3846774.16649  23659495.8924   23659500.8204
  22733052.143   -19582838.78449 -14947934.28949  22733052.8354   22733056.1674
  22912676.132   -31094271.76249 -23924989.81049  22912674.6554   22912681.0264
  20849946.112   -37577859.21349 -29256066.77549  20849945.4534   20849949.3884
 97  1 15  1 45 59.9970000  0  7  7  4  9 24 26 27  2
  19795110.472   -36810714.91649 -28670811.74749  19795109.6514   19795113.6964
  21112402.558   -23112387.63249 -17985877.53649  21112402.8084   21112406.3164
  21992058.332   -16117774.32249 -12508370.02649  21992058.2154   21992062.0514
  23634294.703    -5501663.00449  -3949966.53249  23634293.2994   23634298.7384
  22740274.086   -19544887.89249 -14918362.17449  22740273.8464   22740277.9624
  22929960.795   -31003439.51049 -23854211.44949  22929960.8684   22929965.3734
  20852095.075   -37566566.49549 -29247267.25249  20852094.3054   20852098.6974
 97  1 15  1 46 29.9970000  0  7  7  4  9 24 26 27  2
  19798134.584   -36794822.82349 -28658428.28849  19798133.8074   19798137.8264
  21092119.898   -23218973.84549 -18068931.69449  21092120.3194   21092123.8914
  21971758.602   -16224450.22549 -12591494.08449  21971758.3684   21971761.4534
  23609094.181    -5634091.91249  -4053157.85349  23609093.4354   23609097.8384
  22747553.928   -19506631.67949 -14888552.14549  22747553.7364   22747558.3124
  22947277.737   -30912438.11749 -23783301.27449  22947278.0504   22947281.7164
  20854289.505   -37555034.45949 -29238281.24749  20854288.8764   20854292.8414
 97  1 15  1 46 59.9970000  0  7  7  4  9 24 26 27  2
  19801208.975   -36778666.65349 -28645839.06249  19801208.3894   19801212.2334
  21071897.805   -23325241.65349 -18151737.74949  21071897.9694   21071901.8394
  21951508.762   -16330863.99549 -12674413.89249  21951507.8974   21951511.6984
  23583888.679    -5766546.98649  -4156369.55249  23583888.3544   23583893.1664
  22754884.653   -19468108.56349 -14858534.14349  22754883.9924   22754888.8004
  22964616.580   -30821322.63849 -23712302.24049  22964616.5174   22964620.7654
  20856522.007   -37543302.52749 -29229139.48449  20856521.1614   20856525.4034
 97  1 15  1 47 29.9970000  0  7  7  4  9 24 26 27  2
  19804341.156   -36762206.95549 -28633013.31849  19804340.4704   19804344.5084
  21051741.190   -23431165.57849 -18234275.84349  21051741.4234   21051745.2954
  21931317.213   -16436971.17049 -12757094.78549  21931316.4864   21931320.2934
  23558688.372    -5898974.95049  -4259560.14149  23558688.1904   23558693.3864
  22762271.938   -19429287.90349 -14828284.28749  22762271.7474   22762275.9444
  22981985.113   -30730050.72249 -23641181.29049  22981984.3934   22981989.0784
  20858799.589   -37531333.85149 -29219813.24249  20858799.1044   20858803.1154
 97  1 15  1 47 59.9970000  0  7  7  4  9 24 26 27  2
  19807530.445   -36745447.24949 -28619953.79849  19807529.7824   19807533.7984
  21031648.713   -23536752.07349 -18316551.00349  21031649.0624   21031652.8124
  21911182.766   -16542778.22849 -12839541.82049  21911182.0044   21911185.8584
  23533490.950    -6031387.91249  -4362739.02249  23533490.3644   23533496.5304
  22769712.360   -19390187.75449 -14797816.62949  22769712.7764   22769716.9584
  22999379.847   -30638640.71249 -23569952.72549  22999379.5214   22999384.8454
  20861120.428   -37519138.11549 -29210310.06449  20861119.9774   20861123.7294
 97  1 15  1 48 29.9970000  0  7  7  4  9 24 26 27  2
  19810768.546   -36728430.86949 -28606694.27949  19810767.8414   19810771.8154
  21011617.456   -23642017.23549 -18398575.78049  21011617.7404   21011621.3284
  21891098.905   -16648319.40949 -12921781.68349  21891098.9384   21891101.9794
  23508292.583    -6163805.95449  -4465921.89149  23508292.9874   23508298.1064
  22777196.593   -19350857.56949 -14767169.75049  22777195.7754   22777200.7954
  23016796.144   -30547117.51449 -23498635.98149  23016795.8744   23016800.4364
  20863480.377   -37506736.41949 -29200646.40749  20863479.4644   20863483.9354
 97  1 15  1 48 59.9970000  0  7  7  4  9 24 26 27  2
  19814058.813   -36711140.51649 -28593221.27149  19814058.2434   19814062.2204
  20991654.161   -23746925.01049 -18480322.07349  20991654.3504   20991657.8394
  21871072.047   -16753561.38649 -13003788.40449  21871071.8124   21871074.8004
  23483095.254    -6296218.77649  -4569100.68849  23483094.2924   23483100.6324
  22784724.765   -19311296.05849 -14736342.61949  22784726.1424   22784729.0614
  23034240.402   -30455448.03649 -23427205.23349  23034240.1974   23034244.6204
  20865883.824   -37494106.08149 -29190804.58749  20865883.2004   20865887.1784
 97  1 15  1 49 29.9970000  0  7  7  4  9 24 26 27  2
  19817391.649   -36693626.26049 -28579573.79149  19817391.0364   19817394.8854
  20971751.696   -23851512.98449 -18561819.16649  20971751.7884   20971755.3684
  21851094.057   -16858546.72549 -13085595.14349  21851094.1224   21851097.2864
  23457888.984    -6428678.70149  -4672316.17449  23457888.4924   23457894.4944
  22792287.497   -19271554.19949 -14705374.94949  22792287.7184   22792291.9004
  23051705.219   -30363670.06449 -23355689.94649  23051705.0874   23051709.3714
  20868321.454   -37481295.89849 -29180822.62349  20868320.8124   20868325.3944
 97  1 15  1 49 59.9970000  0  7  7  4  9 24 26 27  2
  19820777.432   -36675833.83449 -28565709.56049  19820776.6524   19820780.5254
  20951922.391   -23955716.64149 -18643016.79049  20951922.5564   20951925.9464
  21831176.080   -16963216.45149 -13167155.95349  21831176.0314   21831179.1524
  23432683.716    -6561133.30649  -4775527.52249  23432683.0814   23432689.0564
  22799896.544   -19231568.89149 -14674217.57849  22799895.8514   22799900.9074
  23069200.810   -30271729.88549 -23284048.26949  23069200.7654   23069204.9194
  20870808.035   -37468228.74149 -29170640.42949  20870807.2014   20870811.6464
 97  1 15  1 50 29.9970000  0  7  7  4  9 24 26 27  2
  19824221.068   -36657737.17449 -28551608.25649  19824220.6684   19824224.3834
  20932172.122   -24059505.22449 -18723890.97949  20932172.2594   20932175.6034
  21811325.065   -17067534.53049 -13248442.76049  21811325.2144   21811328.5384
  23407486.333    -6693545.86349  -4878706.09349  23407486.0054   23407492.0504
  22807557.624   -19191309.61149 -14642846.71849  22807557.5864   22807562.6324
  23086733.087   -30179597.34549 -23212256.68749  23086731.5184   23086737.1824
  20873349.877   -37454871.07949 -29160231.85949  20873349.4414   20873353.2424
 97  1 15  1 50 59.9970000  0  7  7  4  9 24 26 27  2
  19827714.703   -36639378.20449 -28537302.56049  19827714.0894   19827718.0484
  20912490.855   -24162930.74449 -18804482.26249  20912491.0044   20912494.4164
  21791532.479   -17171545.59849 -13329490.33549  21791532.1964   21791535.2584
  23382285.785    -6825975.29649  -4981897.81549  23382285.6304   23382291.8414
  22815263.215   -19150816.63249 -14611293.76349  22815262.7924   22815268.5534
  23104290.040   -30087334.92949 -23140363.91949  23104289.6134   23104294.0044
  20875936.645   -37441277.42149 -29149639.40049  20875935.9304   20875940.1934
 97  1 15  1 51 29.9970000  0  7  7  4  9 24 26 27  2
  19831254.512   -36620776.55349 -28522807.76049  19831254.0984   19831257.9784
  20892874.041   -24266017.66349 -18884809.70449  20892874.2044   20892877.7464
  21771790.100   -17275292.28749 -13410331.90549  21771789.8444   21771793.1824
  23357079.171    -6958437.08749  -5085114.74849  23357078.5114   23357084.7594
  22823008.392   -19110115.26249 -14579578.40949  22823007.9604   22823013.4744
  23121866.666   -29994968.83549 -23068390.33949  23121867.1044   23121871.2794
  20878563.135   -37427475.21949 -29138884.43749  20878563.0124   20878566.6894
 97  1 15  1 51 59.9970000  0  7  7  4  9 24 26 27  2
  19834844.321   -36601911.93949 -28508108.05149  19834843.7534   19834847.6994
  20873327.792   -24368733.36149 -18964847.88449  20873327.7064   20873330.9304
  21752103.513   -17378746.28049 -13490945.40049  21752103.4324   21752106.6104
  23331872.890    -7090896.90149  -5188330.12349  23331872.8914   23331878.8434
  22830795.801   -19069191.71249 -14547689.94149  22830796.0294   22830800.5174
  23139464.784   -29902489.90949 -22996328.87649  23139463.2134   23139469.6334
  20881230.601   -37413457.76349 -29127961.74449  20881230.3554   20881234.0964
 97  1 15  1 52 29.9970000  0  7  7  4  9 24 26 27  2
  19838489.946   -36582753.99149 -28493179.77349  19838489.2304   19838492.9724
  20853861.890   -24471027.13149 -19044557.29149  20853862.1824   20853865.6404
  21732481.976   -17481857.87649 -13571292.08149  21732481.6864   21732484.8504
  23306676.304    -7223305.88649  -5291505.89049  23306675.5444   23306681.9384
  22838632.739   -19028008.68149 -14515599.28449  22838633.4734   22838637.5874
  23157092.585   -29809854.84749 -22924145.73149  23157092.2994   23157096.6124
  20883941.471   -37399212.26949 -29116861.36049  20883940.8994   20883945.0134
 97  1 15  1 52 59.9970000  0  7  7  4  9 24 26 27  2
  19842182.941   -36563347.20149 -28478057.59649  19842182.3134   19842186.1174
  20834469.890   -24572932.74849 -19123964.23649  20834469.9574   20834473.3464
  21712916.247   -17584676.01649 -13651410.10449  21712915.6714   21712918.8894
  23281480.670    -7355710.03349  -5394677.89049  23281481.0464   23281485.5334
  22846508.133   -18986623.61849 -14483351.19849  22846508.4814   22846512.9574
  23174741.896   -29717106.82849 -22851874.58149  23174740.6914   23174747.4424
  20886685.745   -37384791.15049 -29105624.13049  20886685.0794   20886689.1614
 97  1 15  1 53 29.9970000  0  7  7  4  9 24 26 27  2
  19845909.801   -36543762.53649 -28462796.80849  19845909.3034   19845913.0794
  20815138.245   -24674521.08949 -19203123.95549  20815138.6494   20815141.9174
  21693393.736   -17687266.95549 -13731351.09049  21693392.9174   21693396.3094
  23256272.658    -7488178.42349  -5497899.94149  23256272.5184   23256277.3754
  22854406.423   -18945117.36849 -14451008.67349  22854406.6044   22854411.0464
  23192399.496   -29624316.01249 -22779570.06049  23192398.9764   23192403.8034
  20889450.043   -37370264.43049 -29094304.60749  20889449.4654   20889453.3714
 97  1 15  1 53 59.9970000  0  7  7  4  9 24 26 27  2
  19849711.952   -36523782.14949 -28447227.67349  19849711.5114   19849715.0514
  20795909.110   -24775571.06249 -19281864.17649  20795909.2424   20795912.3484
  21673958.343   -17789399.66349 -13810935.01349  21673957.3724   21673961.6204
  23231093.133    -7620496.82749  -5601005.11549  23231092.5894   23231098.2454
  22862369.992   -18903268.05849 -14418398.83049  22862370.1114   22862373.8584
  23210103.659   -29531280.53749 -22707074.90649  23210103.7304   23210107.9594
  20892279.357   -37355396.42149 -29082719.14649  20892279.2664   20892282.7734
 97  1 15  1 54 29.9970000  0  7  7  4  9 24 26 27  2
  19853551.941   -36503602.87349 -28431503.55249  19853551.3424   19853554.9794
  20776743.229   -24876288.26249 -19360345.08949  20776743.4204   20776746.6724
  21654569.774   -17891287.08949 -13890327.79249  21654570.0934   21654572.8004
  23205902.794    -7752872.43549  -5704154.86849  23205902.5584   23205907.6374
  22870358.377   -18861288.71949 -14385687.65049  22870358.9204   22870362.8534
  23227816.295   -29438200.47249 -22634544.99249  23227815.7684   23227820.4434
  20895138.971   -37340369.06449 -29071009.51549  20895138.3874   20895142.4044
 97  1 15  1 54 59.9960000  0  7  7  4  9 24 26 27  2
  19857443.533   -36483152.32649 -28415568.05649  19857442.8284   19857446.5004
  20757652.933   -24976608.40549 -19438516.60649  20757652.9064   20757656.4744
  21635239.509   -17992868.05249 -13969481.78049  21635239.4754   21635243.3594
  23180715.525    -7885232.20249  -5807292.28749  23180715.8844   23180720.6994
  22878381.063   -18819129.40349 -14352836.24849  22878381.5164   22878384.7184
  23245548.499   -29345017.24249 -22561934.70149  23245548.2524   23245553.3184
  20898045.034   -37325097.57949 -29059109.65749  20898044.1554   20898048.5024
 97  1 15  1 55 29.9960000  0  7  7  4  9 24 26 27  2
  19861364.376   -36462548.40449 -28399513.04149  19861363.8144   19861367.3924
  20738613.459   -25076661.76249 -19516480.22949  20738613.8064   20738616.8974
  21615946.183   -18094255.57849 -14048485.03149  21615945.9124   21615949.1544
  23155512.201    -8017676.69049  -5910495.74849  23155512.6024   23155516.8444
  22886419.443   -18776887.96649 -14319920.83149  22886419.7614   22886423.9724
  23263279.451   -29251840.80649 -22489329.70349  23263278.9674   23263282.7594
  20900980.252   -37309672.63149 -29047090.21949  20900979.5734   20900983.6944
 97  1 15  1 55 59.9960000  0  7  7  4  9 24 26 27  2
  19865331.880   -36441699.19249 -28383266.89549  19865331.3274   19865334.9234
  20719646.041   -25176336.40049 -19594148.76249  20719646.1474   20719649.5504
  21596710.480   -18195340.10149 -14127252.18249  21596710.5084   21596713.3914
  23130319.100    -8150067.53749  -6013657.42349  23130319.5134   23130323.1614
  22894492.752   -18734462.85449 -14286862.30349  22894492.7224   22894497.2184
  23281028.565   -29158568.55149 -22416650.02649  23281028.8094   23281033.0644
  20903965.854   -37293983.02049 -29034864.54949  20903965.2664   20903969.1494
 97  1 15  1 56 29.9960000  0  7  7  4  9 24 26 27  2
  19869340.539   -36420633.48949 -28366852.05749  19869340.0024   19869343.6624
  20700745.812   -25275657.85949 -19671542.08649  20700745.7324   20700749.2024
  21577530.731   -18296130.39649 -14205790.06449  21577530.4474   21577533.8394
  23105135.648    -8282407.86049  -6116779.73049  23105135.7174   23105139.9664
  22902596.861   -18691875.14649 -14253677.08049  22902597.3724   22902601.1694
  23298793.248   -29065214.69249 -22343906.76949  23298792.4424   23298797.1364
  20906996.844   -37278055.25849 -29022453.30949  20906996.3784   20907000.7264
 97  1 15  1 56 59.9960000  0  7  7  4  9 24 26 27  2
  19873385.965   -36399374.67849 -28350286.74349  19873385.3724   19873389.0044
  20681911.133   -25374634.61949 -19748666.80649  20681911.1814   20681914.5454
  21558409.453   -18396613.06549 -14284088.23149  21558409.6244   21558412.8704
  23079962.013    -8414696.48249  -6219861.74049  23079961.8754   23079966.2824
  22910736.341   -18649101.80649 -14220347.20049  22910736.6174   22910740.1914
  23316571.094   -28971791.70449 -22271109.64249  23316571.0344   23316575.2334
  20910069.657   -37261907.47349 -29009870.62049  20910069.4604   20910073.1804
 97  1 15  1 57 29.9960000  0  7  7  4  9 24 26 27  2
  19877454.235   -36377995.85049 -28333627.91349  19877453.5554   19877457.1364
  20663127.228   -25473344.40249 -19825583.49949  20663127.4154   20663130.8674
  21539334.643   -18496851.50849 -14362196.09849  21539334.3694   21539337.8534
  23054781.921    -8547018.89749  -6322970.07949  23054782.1564   23054786.5414
  22918898.354   -18606211.00849 -14186925.80449  22918898.1974   22918902.4384
  23334347.282   -28878377.59149 -22198319.42749  23334346.8684   23334351.0164
  20913167.867   -37245626.30049 -28997183.99449  20913167.5154   20913171.2844
 97  1 15  1 57 59.9960000  0  7  7  4  9 24 26 27  2
  19881569.342   -36356370.75649 -28316777.18349  19881568.5374   19881572.2334
  20644419.549   -25571653.73549 -19902188.15349  20644419.3764   20644423.2674
  21520328.979   -18596727.03149 -14440021.16349  21520329.2664   21520331.9644
  23029611.650    -8679289.92749  -6426038.37249  23029611.5224   23029616.1474
  22927101.439   -18563103.95749 -14153335.90149  22927102.8274   22927105.9034
  23352143.900   -28784855.62249 -22125445.16649  23352142.9984   23352148.3314
  20916308.585   -37229121.91049 -28984323.43149  20916308.1714   20916312.1624
 97  1 15  1 58 29.9960000  0  7  7  4  9 24 26 27  2
  19885727.699   -36334518.14849 -28299749.17049  19885726.9584   19885730.5894
  20625785.440   -25669576.39849 -19978491.50349  20625785.5664   20625789.1044
  21501387.319   -18696266.14749 -14517584.09149  21501387.2094   21501390.0414
  23004440.535    -8811565.00649  -6529109.80749  23004440.4074   23004445.1244
  22935339.721   -18519811.76549 -14119601.70049  22935339.6254   22935343.6584
  23369956.740   -28691248.59849 -22052504.60749  23369957.0554   23369960.9744
  20919485.827   -37212425.24249 -28971313.03849  20919485.0424   20919489.8264
 97  1 15  1 58 59.9960000  0  7  7  4  9 24 26 27  2
  19889930.697   -36312431.13449 -28282538.50549  19889930.0484   19889933.6924
  20607228.164   -25767095.50249 -20054480.39549  20607228.1434   20607231.7844
  21482508.098   -18795476.67249 -14594890.98149  21482507.7794   21482511.6814
  22979266.608    -8943854.07349  -6632192.13749  22979265.7854   22979270.8664
  22943610.084   -18476351.04149 -14085736.19649  22943610.5994   22943614.3244
  23387785.284   -28597558.87049 -21979499.63349  23387784.6344   23387789.6894
  20922699.286   -37195538.16149 -28958154.27749  20922698.5774   20922703.4204
 97  1 15  1 59 29.9960000  0  7  7  4  9 24 26 27  2
  19894179.761   -36290101.85049 -28265139.05649  19894179.0064   19894182.5624
  20588748.044   -25864208.82849 -20130153.10049  20588748.0664   20588751.7584
  21463689.079   -18894371.38049 -14671951.77649  21463689.1174   21463692.8844
  22954087.215    -9076172.01549  -6735296.96749  22954087.4164   22954092.7404
  22951904.924   -18432760.95249 -14051769.88249  22951905.5864   22951909.1244
  23405627.168   -28503798.51349 -21906439.63349  23405627.3214   23405631.2414
  20925948.596   -37178463.00849 -28944848.96749  20925948.0584   20925952.2044
 97  1 15  1 59 59.9960000  0  7  7  4  9 24 26 27  2
  19898473.414   -36267538.60149 -28247557.29949  19898472.9644   19898476.4174
  20570349.980   -25960890.91149 -20205489.76449  20570350.1034   20570353.4624
  21444931.210   -18992945.10649 -14748762.46049  21444931.0134   21444933.9874
  22928906.529    -9208496.80949  -6838407.13349  22928905.1494   22928910.7294
  22960226.526   -18389030.76449 -14017694.41549  22960226.6264   22960231.4834
  23423481.546   -28409972.39249 -21833328.37649  23423480.7424   23423486.9574
  20929237.112   -37161181.80349 -28931383.09149  20929236.5114   20929240.6174
 97  1 15  2  0 29.9960000  0  7  7  4  9 24 26 27  2
  19902810.597   -36244746.69949 -28229797.36849  19902810.0314   19902813.7344
  20552034.313   -26057140.35349 -20280489.31049  20552034.2534   20552038.1174
  21426235.887   -19091189.88849 -14825316.82549  21426235.8064   21426238.7884
  22903730.745    -9340795.89949  -6941497.27449  22903730.2574   22903736.4464
  22968580.303   -18345131.57949 -13983487.26249  22968580.6724   22968584.1714
  23441348.190   -28316082.53049 -21760167.45749  23441348.2224   23441353.1044
  20932569.546   -37143669.92249 -28917737.47249  20932569.1544   20932573.1844
 97  1 15  2  0 59.9960000  0  7  7  4  9 24 26 27  2
  19907180.853   -36221780.95449 -28211901.97749  19907180.3764   19907183.9274
  20533789.312   -26153018.04749 -20355199.17949  20533789.2444   20533793.0204
  21407593.812   -19189154.93849 -14901653.21949  21407593.7814   21407596.8744
  22878552.909    -9473105.83249  -7044595.86149  22878552.9374   22878557.8594
  22976958.626   -18301103.21149 -13949179.46949  22976958.1334   22976963.0664
  23459216.275   -28222185.33449 -21687000.85749  23459214.6844   23459220.7774
  20935936.734   -37125975.70449 -28903949.77749  20935936.0934   20935940.1804
 97  1 15  2  1 29.9960000  0  7  7  4  9 24 26 27  2
  19911587.985   -36198621.41049 -28193855.57649  19911587.3554   19911591.1464
  20515618.441   -26248506.35649 -20429605.63549  20515618.4934   20515622.2354
  21389008.974   -19286818.89849 -14977754.99949  21389008.8374   21389012.0854
  22853379.903    -9605390.30349  -7147674.60649  22853379.3954   22853384.7934
  22985369.403   -18256903.99549 -13914738.53749  22985369.8604   22985374.5984
  23477092.294   -28128246.01349 -21613801.40949  23477092.1774   23477096.9274
  20939345.234   -37108063.94749 -28889992.56449  20939344.7934   20939348.7604
 97  1 15  2  1 59.9960000  0  6  7  4  9 24 26  2
  19916027.708   -36175290.45649 -28175675.60649  19916027.0114   19916030.6544
  20497521.109   -26343608.48449 -20503711.17049  20497521.2514   20497524.6554
  21370477.338   -19384203.32649 -15053638.96049  21370476.6274   21370480.5424
  22828213.298    -9737641.40749  -7250727.36549  22828213.3474   22828218.2364
  22993813.014   -18212532.62949 -13880163.45549  22993812.6154   22993817.3744
  20942794.426   -37089938.40349 -28875868.75849  20942793.7864   20942797.7594
 97  1 15  2  2 29.9960000  0  6  7  4  9 24 26  2
  19920501.953   -36151778.00149 -28157354.20749  19920501.3544   19920505.2984
  20479496.706   -26438327.22749 -20577517.96449  20479496.9494   20479500.2804
  21352000.046   -19481301.71449 -15129300.03549  21351999.5184   21352002.8984
  22803055.067    -9869848.30449  -7353745.66449  22803054.8244   22803059.7854
  23002285.805   -18168007.40249 -13845468.48749  23002285.9194   23002290.3234
  20946284.290   -37071598.98549 -28861578.31449  20946283.5804   20946287.3674
 97  1 15  2  2 59.9960000  0  6  7  4  9 24 26  2
  19925022.191   -36128024.04649 -28138844.62849  19925021.5654   19925025.2024
  20461557.917   -26532596.41949 -20650974.45949  20461558.1184   20461561.5174
  21333591.554   -19578038.74249 -15204679.53049  21333591.5724   21333594.4274
  22777917.273   -10001948.38049  -7456680.73849  22777916.7764   22777922.2414
  23010792.880   -18123302.42249 -13810633.46049  23010792.7104   23010797.5504
  20949824.817   -37052993.51849 -28847080.54949  20949824.4284   20949827.8504
 97  1 15  2  3 29.9960000  0  6  7  4  9 24 26  2
  19929578.832   -36104078.78749 -28120185.97949  19929578.1104   19929581.9874
  20443698.377   -26626448.87649 -20724106.22549  20443698.4624   20443702.2574
  21315244.078   -19674455.27849 -15279809.28249  21315243.6444   21315247.3464
  22752792.663   -10133979.03349  -7559561.72149  22752792.6094   22752797.7644
  23019322.750   -18078477.20549 -13775704.74649  23019323.0044   23019328.0024
  20953404.991   -37034179.33649 -28832420.15249  20953404.4004   20953408.2784
 97  1 15  2  3 59.9960000  0  6  7  4  9 24 26  2
  19934168.409   -36079960.40049 -28101392.42349  19934167.6634   19934171.6744
  20425917.711   -26719887.00649 -20796915.14149  20425917.9514   20425921.6794
  21296959.901   -19770539.26749 -15354679.90949  21296959.6324   21296962.6904
  22727679.061   -10265952.01049  -7662397.77649  22727679.0554   22727684.3894
  23027869.343   -18033564.35049 -13740707.75049  23027869.7574   23027873.9764
  20957019.968   -37015182.38549 -28817617.33549  20957019.3574   20957023.7064
 97  1 15  2  4 29.9960000  0  6  7  4  9 24 26  2
  19938797.555   -36055633.71149 -28082436.56049  19938796.8784   19938800.7964
  20408220.485   -26812886.87849 -20869382.56149  20408220.3934   20408223.9734
  21278748.913   -19866238.72749 -15429250.91349  21278748.4994   21278751.5684
  22702581.425   -10397841.17949  -7765168.52249  22702581.2104   22702586.8554
  23036435.132   -17988551.05749 -13705632.47549  23036435.3084   23036439.7334
  20960674.470   -36995977.80949 -28802652.73649  20960673.9474   20960677.8814
 97  1 15  2  4 59.9960000  0  6  7  4  9 24 26  2
  19943456.911   -36031148.65249 -28063357.28449  19943456.1334   19943460.1854
  20390597.082   -26905498.30849 -20941547.29049  20390597.2734   20390600.8724
  21260602.458   -19961599.02749 -15503557.62949  21260602.2714   21260605.2884
  22677489.120   -10529702.28049  -7867917.39049  22677488.1624   22677493.4074
  23045013.831   -17943469.74749 -13670504.20149  23045013.8694   23045018.0954
  20964358.229   -36976619.55849 -28787568.39249  20964357.5274   20964361.7654
 97  1 15  2  5 29.9960000  0  6  7  4  9 24 26  2
  19948155.300   -36006458.47749 -28044118.18849  19948154.7804   19948158.6274
  20373056.287   -26997675.79149 -21013373.88149  20373056.3874   20373059.6114
  21242526.717   -20056587.74849 -15577574.80549  21242526.1954   21242529.9844
  22652410.354   -10661491.86349  -7970610.53649  22652410.3434   22652414.8804
  23053616.871   -17898260.10049 -13635275.92149  23053617.2234   23053621.1164
  20968080.595   -36957058.49649 -28772326.01049  20968079.7504   20968084.2184
 97  1 15  2  5 59.9960000  0  6  7  4  9 24 26  2
  19952885.845   -35981599.35049 -28024747.43549  19952885.4454   19952889.2414
  20355591.248   -27089455.40949 -21084890.44849  20355591.5574   20355594.7354
  21224513.917   -20151245.51349 -15651334.09049  21224513.6454   21224516.7004
  22627336.558   -10793255.67249  -8073283.61049  22627335.7614   22627340.9294
  23062237.021   -17852960.92649 -13599977.87649  23062237.1554   23062241.5754
  20971838.496   -36937310.42649 -28756937.91149  20971837.8294   20971842.3074
 97  1 15  2  6 29.9960000  0  6  7  4  9 24 26  2
  19957651.882   -35956553.79049 -28005231.41349  19957651.0664   19957654.8614
  20338203.950   -27180826.33549 -21156088.55649  20338204.1944   20338207.5534
  21206563.940   -20245573.19349 -15724836.17849  21206563.4224   21206566.8414
  22602270.079   -10924980.70949  -8175926.46349  22602268.8854   22602273.8784
  23070877.392   -17807556.51349 -13564597.82249  23070878.4034   23070881.8314
  20975635.990   -36917354.48349 -28741387.83049  20975635.6604   20975639.5364
 97  1 15  2  6 59.9960000  0  6  7  4  9 24 26  2
  19962441.638   -35931383.23049 -27985617.98549  19962440.9404   19962444.9334
  20320884.690   -27271839.38949 -21227007.80149  20320884.7344   20320888.1034
  21188665.104   -20339631.77449 -15798128.57349  21188664.7334   21188667.8974
  22577200.016   -11056724.79149  -8278584.15149  22577199.9704   22577204.6294
  23079529.952   -17762087.68349 -13529167.56949  23079530.5634   23079534.4494
  20979462.131   -36897248.11849 -28725720.53849  20979461.7614   20979465.5884
 97  1 15  2  7 29.9960000  0  6  7  4  9 24 26  2
  19967264.158   -35906040.88049 -27965870.69649  19967263.5514   19967267.5314
  20303642.465   -27362447.90549 -21297611.82449  20303642.5314   20303646.0474
  21170825.298   -20433380.61149 -15871179.61149  21170824.9534   21170828.5154
  22552135.341   -11188440.02749  -8381219.36849  22552135.1624   22552139.9834
  23088201.084   -17716520.86349 -13493660.95449  23088201.6114   23088205.0384
  20983328.395   -36876930.52749 -28709888.65649  20983327.5854   20983332.3894
 97  1 15  2  7 59.9960000  0  7  7  4  9 24  5 26  2
  19972124.475   -35880499.81149 -27945968.56249  19972123.9364   19972127.7964
  20286482.678   -27452623.27949 -21367878.33049  20286482.7704   20286486.2244
  21153053.049   -20526774.91349 -15943954.37749  21153053.1964   21153056.2784
  22527083.544   -11320087.65449  -8483801.87649  22527083.4554   22527088.1594
  23653601.398    -5184713.36349  -4000176.24949  23653601.0734   23653604.6174
  23096896.116   -17670828.53549 -13458056.54449  23096896.3414   23096899.7194
  20987241.363   -36856367.83349 -28693865.78649  20987240.6564   20987245.7714
 97  1 15  2  8 29.9960000  0  7  7  4  9 24  5 26  2
  19977022.787   -35854759.07149 -27925910.83749  19977022.1254   19977025.8944
  20269403.855   -27542373.14349 -21437813.27149  20269404.0144   20269407.3564
  21135350.977   -20619800.52749 -16016441.86449  21135351.0814   21135353.9464
  22502047.116   -11451654.87549  -8586321.73649  22502047.0374   22502052.0894
  23633282.888    -5291488.33749  -4083377.52449  23633282.7594   23633286.1774
  23105614.751   -17625012.01249 -13422355.36349  23105615.3254   23105618.0684
  20991195.736   -36835587.38949 -28677673.23649  20991195.3384   20991199.3934
 97  1 15  2  8 59.9960000  0  7  7  4  9 24  5 26  2
  19981953.770   -35828846.38049 -27905719.12649  19981953.1124   19981957.0444
  20252400.689   -27631725.49749 -21507438.46249  20252400.7154   20252404.2494
  21117715.984   -20712473.44649 -16088654.52449  21117715.9694   21117718.8504
  22477022.379   -11583160.99949  -8688793.99749  22477022.5514   22477027.4604
  23612947.860    -5398350.05249  -4166646.35349  23612947.8064   23612951.3614
  23114354.288   -17579085.24949 -13386568.27349  23114353.5264   23114358.9134
  20995186.890   -36814613.87749 -28661330.24749  20995186.7154   20995190.7714
 97  1 15  2  9 29.9960000  0  7  7  4  9 24  5 26  2
  19986924.718   -35802723.95849 -27885363.98949  19986924.2704   19986927.9134
  20235482.105   -27720632.91649 -21576716.95249  20235482.1674   20235485.5144
  21100156.572   -20804748.96649 -16160557.51949  21100156.2864   21100159.3394
  22452021.158   -11714543.28849  -8791169.75649  22452021.5994   22452025.8184
  23592603.389    -5505261.33049  -4249953.83049  23592602.9014   23592606.8454
  23123120.122   -17533020.79349 -13350673.88849  23123121.9164   23123124.2214
  20999223.128   -36793403.41449 -28644802.62249  20999222.7014   20999226.8344
 97  1 15  2  9 59.9960000  0  7  7  4  9 24  5 26  2
  19991921.534   -35776465.80649 -27864903.08649  19991920.9414   19991924.7404
  20218638.981   -27809144.11349 -21645686.70349  20218639.1974   20218642.1654
  21082663.187   -20896677.23449 -16232189.93249  21082662.9164   21082666.5184
  22427033.132   -11845855.88449  -8893491.22549  22427033.4184   22427037.7404
  23572236.228    -5612291.99149  -4333354.34549  23572235.1814   23572239.0334
  23131898.657   -17486889.45149 -13314727.39049  23131899.2394   23131902.7754
  21003288.197   -36772041.58349 -28628157.04949  21003287.5274   21003291.8544
 97  1 15  2 10 29.9960000  0  7  7  4  9 24  5 26  2
  19996944.004   -35750072.55449 -27844336.91249  19996943.4844   19996947.1274
  20201873.948   -27897244.93549 -21714336.67749  20201874.0844   20201877.5294
  21065234.978   -20988262.78449 -16303555.28649  21065234.4824   21065237.9284
  22402058.311   -11977099.13149  -8995758.64049  22402058.0384   22402062.7204
  23551849.255    -5719426.14649  -4416835.49949  23551847.9454   23551852.8504
  23140688.528   -17440698.48249 -13278734.43949  23140688.7654   23140691.8124
  21007381.841   -36750529.31449 -28611394.24749  21007381.3134   21007386.0734
 97  1 15  2 10 59.9960000  0  7  7  4  9 24  5 26  2
  20002002.583   -35723489.52449 -27823622.85949  20002001.7624   20002005.6294
  20185201.583   -27984858.69849 -21782607.12849  20185201.6064   20185205.0124
  21047884.798   -21079438.22849 -16374601.08149  21047884.4134   21047887.7624
  22377109.095   -12108207.70849  -9097921.13349  22377108.6204   22377113.9224
  23531455.016    -5826598.50449  -4500346.41749  23531454.1434   23531458.0904
  23149499.142   -17394397.34549 -13242655.62349  23149498.6164   23149503.5234
  21011521.357   -36728775.76649 -28594443.44049  21011520.4874   21011525.4124
 97  1 15  2 11 29.9960000  0  7  7  4  9 24  5 26  2
  20007082.644   -35696793.44449 -27802820.71449  20007082.1354   20007086.0214
  20168611.069   -28072042.16049 -21850542.27849  20168611.4814   20168614.6084
  21030598.496   -21170278.07749 -16445385.36849  21030597.8404   21030601.7544
  22352171.250   -12239256.64149  -9200037.14849  22352171.4344   22352175.6094
  23511036.506    -5933898.38049  -4583956.71749  23511036.0884   23511040.2744
  23158311.798   -17348085.24049 -13206568.28749  23158310.5654   23158315.4674
  21015693.171   -36706852.75849 -28577360.59149  21015692.6694   21015696.9564
 97  1 15  2 11 59.9960000  0  7  7  4  9 24  5 26  2
  20012207.281   -35669863.43649 -27781836.29049  20012206.6984   20012210.3714
  20152124.062   -28158682.15749 -21918053.95149  20152124.2154   20152127.3464
  21013396.636   -21260674.40949 -16515824.06149  21013396.5284   21013399.6404
  22327262.774   -12370151.59249  -9302033.17949  22327262.9674   22327267.6514
  23490615.447    -6041211.60949  -4667577.39049  23490614.6464   23490618.8204
  23167148.758   -17301645.96449 -13170381.83949  23167147.9074   23167152.4154
  21019920.458   -36684638.03249 -28560050.42949  21019920.1324   21019924.3424
 97  1 15  2 12 29.9960000  0  7  7  4  9 24  5 26  2
  20017358.143   -35642795.51149 -27760744.39849  20017357.6424   20017361.1234
  20135718.321   -28244894.73849 -21985232.57349  20135718.1924   20135721.7274
  20996257.239   -21350742.57249 -16586007.04549  20996257.2144   20996260.5704
  22302363.301   -12500999.50149  -9403992.57049  22302362.9854   22302367.6174
  23470171.364    -6148645.98649  -4751292.48149  23470169.8504   23470175.5064
  23175991.813   -17255175.30449 -13134170.94549  23175991.9954   23175996.5764
  21024189.728   -36662202.98949 -28542568.59149  21024189.2374   21024193.4534
 97  1 15  2 12 59.9960000  0  7  7  4  9 24  5 26  2
  20022530.063   -35615616.79449 -27739566.17049  20022529.3314   20022532.8294
  20119387.095   -28330715.87249 -22052106.16449  20119387.2384   20119390.7024
  20979171.534   -21440528.54849 -16655970.13249  20979171.2324   20979174.3154
  22277465.354   -12631839.24849  -9505945.60849  22277464.8024   22277469.5354
  23449694.796    -6256251.54049  -4835140.95649  23449695.3444   23449699.0324
  23184835.260   -17208703.01249 -13097958.76049  23184835.1834   23184840.5134
  21028496.419   -36639571.55249 -28524933.71649  21028495.6654   21028500.3334
 97  1 15  2 13 29.9960000  0  7  7  4  9 24  5 26  2
  20027748.655   -35588192.48749 -27718196.57649  20027747.9994   20027751.6584
  20103153.710   -28416022.61649 -22118578.93549  20103153.7764   20103157.3054
  20962158.846   -21529930.45949 -16725633.94849  20962158.7594   20962162.2044
  22252592.087   -12762549.27049  -9607797.54549  22252592.0414   22252597.1604
  23429211.694    -6363890.78749  -4919015.64749  23429211.0954   23429214.9874
  23193704.678   -17162093.37949 -13061639.56549  23193704.8124   23193708.0624
  21032860.766   -36616636.67949 -28507062.39749  21032860.2844   21032864.6664
 97  1 15  2 13 59.9960000  0  7  7  4  9 24  5 26  2
  20033004.868   -35560570.99949 -27696673.33049  20033004.1404   20033008.1354
  20087006.190   -28500878.35649 -22184700.27749  20087006.2654   20087009.6804
  20945210.640   -21618994.37649 -16795034.40249  20945210.6824   20945213.7814
  22227734.364   -12893177.48749  -9709585.73549  22227734.3904   22227739.3524
  23408715.541    -6471597.93649  -5002943.25449  23408715.1244   23408718.3054
  23202592.411   -17115388.33249 -13025246.06049  23202593.0894   23202596.3034
  21037272.238   -36593454.05849 -28488998.02749  21037271.3404   21037276.3904
 97  1 15  2 14 29.9960000  0  7  7  4  9 24  5 26  2
  20038306.812   -35532709.17149 -27674962.81249  20038306.1194   20038310.1234
  20070953.606   -28585234.95149 -22250432.67249  20070953.7584   20070957.1994
  20928340.241   -21707648.98849 -16864115.91049  20928339.8324   20928342.9344
  22202902.961   -13023667.21949  -9811266.01549  22202902.1614   22202907.3144
  23388216.894    -6579318.61649  -5086881.38249  23388216.5454   23388218.6184
  23211505.537   -17068549.41649 -12988748.19649  23211505.2594   23211510.0104
  21041737.770   -36569987.62349 -28470712.50349  21041737.2884   21041741.5324
 97  1 15  2 14 59.9960000  0  7  7  4  9 24  5 26  2
  20043643.653   -35504663.90249 -27653109.35549  20043643.0854   20043646.9004
  20054989.057   -28669129.17349 -22315804.77849  20054989.2404   20054992.6684
  20911541.740   -21795925.50849 -16932902.80749  20911541.3514   20911544.4524
  22178090.120   -13154059.33849  -9912870.23949  22178089.7784   22178094.3604
  23367708.875    -6687088.72449  -5170858.05249  23367708.6724   23367711.4854
  23220432.438   -17021637.43549 -12952193.40949  23220431.7004   23220437.2274
  21046240.038   -36546327.94349 -28452276.40549  21046239.2424   21046243.8124
 97  1 15  2 15 29.9960000  0  7  7  4  9 24  5 26  2
  20049015.528   -35476434.39949 -27631112.33149  20049014.8264   20049018.7494
  20039113.369   -28752556.37049 -22380812.96849  20039113.1014   20039116.7584
  20894823.183   -21883782.14649 -17001362.51949  20894822.9454   20894825.5454
  22153299.704   -13284333.55349 -10014382.58549  22153299.9104   22153304.7004
  23347196.844    -6794880.86049  -5254851.87449  23347196.5724   23347199.9064
  23229371.975   -16974659.50449 -12915587.24249  23229372.3804   23229377.4534
  21050777.918   -36522480.97549 -28433694.35749  21050777.7404   21050781.3354
 97  1 15  2 15 59.9960000  0  7  7  4  9 24  5 26  2
  20054427.109   -35447996.20149 -27608952.69749  20054426.6194   20054430.2854
  20023334.897   -28835472.42249 -22445422.86349  20023335.0544   20023338.3944
  20878198.700   -21971144.18149 -17069436.82749  20878198.4344   20878201.5674
  22128541.917   -13414436.14049 -10115761.19549  22128541.8494   22128545.8824
  23326686.503    -6902663.60549  -5338838.39449  23326686.5114   23326689.4304
  23238331.496   -16927577.78149 -12878900.19849  23238332.0674   23238336.2744
  21055362.994   -36498386.70349 -28414919.61249  21055362.5564   21055366.9144
 97  1 15  2 16 29.9960000  0  7  7  4  9 24  5 26  2
  20059847.965   -35419509.51049 -27586755.27349  20059847.3774   20059851.2964
  20007626.811   -28918019.04349 -22509744.88949  20007626.9484   20007630.6094
  20861641.594   -22058152.58749 -17137235.58049  20861641.1664   20861644.6124
  22103790.550   -13544505.48449 -10217113.90549  22103790.7444   22103794.4844
  23306149.911    -7010583.35449  -5422931.65549  23306149.4384   23306153.2274
  23247282.377   -16880541.52149 -12842248.59049  23247282.4014   23247287.7944
  21059967.190   -36474191.72649 -28396066.39549  21059966.6184   21059970.4864
 97  1 15  2 16 59.9960000  0  7  7  4  9 24  5 26  2
  20065295.214   -35390883.98049 -27564449.66149  20065294.7854   20065298.0994
  19992008.946   -29000091.45049 -22573697.39849  19992009.1104   19992012.3814
  20845168.643   -22144718.33249 -17204689.39949  20845168.2304   20845171.4754
  22079065.348   -13674437.38049 -10318359.51349  22079064.5524   22079070.1754
  23285604.848    -7118547.56549  -5507059.57549  23285604.1224   23285608.0094
  23256243.844   -16833449.19049 -12805553.27649  23256244.4274   23256248.5524
  21064611.454   -36449786.06449 -28377049.00449  21064610.9134   21064615.1144
 97  1 15  2 17 29.9960000  0  7  7  4  9 24  5 26  2
  20070767.668   -35362126.16849 -27542040.97549  20070767.0474   20070770.8154
  19976478.453   -29081704.79949 -22637292.20149  19976478.5724   19976481.9034
  20828777.726   -22230852.82549 -17271807.18349  20828777.5574   20828780.8214
  22054365.066   -13804238.11749 -10419502.91949  22054365.1014   22054369.6854
  23265050.164    -7226563.05449  -5591227.44149  23265049.9914   23265052.9844
  23265215.861   -16786301.37949 -12768814.74649  23265216.3764   23265220.5344
  21069302.532   -36425134.38049 -28357839.91649  21069301.8264   21069306.5454
 97  1 15  2 17 59.9960000  0  7  7  4  9 24  5 26  2
  20076275.954   -35333179.82249 -27519485.38349  20076275.2244   20076279.0884
  19961050.400   -29162779.58449 -22700467.34949  19961050.6824   19961054.0694
  20812477.074   -22316513.28049 -17338555.58649  20812476.4924   20812480.3704
  22029703.185   -13933836.67749 -10520488.79049  22029704.0534   22029707.9344
  23244496.353    -7334573.91549  -5675391.71549  23244496.0404   23244499.5144
  23274213.869   -16739016.98949 -12731969.78449  23274213.8374   23274219.2164
  21074053.954   -36400165.22349 -28338383.44249  21074053.7464   21074057.7404
 97  1 15  2 18 29.9960000  0  7  7  4  9 24  5 26  2
  20081798.675   -35304157.86149 -27496870.86449  20081798.1804   20081801.9564
  19945704.847   -29243421.14149 -22763304.91049  19945705.1164   19945708.4844
  20796240.344   -22401837.57849 -17405042.04649  20796239.8834   20796243.7654
  22005056.185   -14063357.69649 -10621414.22749  22005055.7474   22005060.3274
  23223922.529    -7442690.61249  -5759638.47649  23223922.3034   23223925.2114
  23283213.787   -16691722.12149 -12695116.65249  23283214.4164   23283218.5404
  21078842.219   -36375002.98949 -28318776.51549  21078841.6724   21078846.1194
 97  1 15  2 18 59.9960000  0  7  7  4  9 24  5 26  2
  20087359.618   -35274934.80349 -27474099.64949  20087358.8814   20087362.4584
  19930467.396   -29323494.38549 -22825699.63949  19930467.5044   19930470.5864
  20780087.438   -22486721.43149 -17471185.30549  20780087.0954   20780090.6424
  21980446.237   -14192683.96849 -10722187.92049  21980445.1244   21980450.0284
  23203352.307    -7550788.58649  -5843870.63749  23203352.0444   23203354.7354
  23292238.440   -16644297.90849 -12658162.73049  23292238.4394   23292242.7264
  21083691.586   -36349519.39849 -28298919.18549  21083691.2344   21083695.0564
 97  1 15  2 19 29.9960000  0  7  7  4  9 24  5 26  2
  20092929.191   -35245666.16349 -27451292.91849  20092928.5754   20092932.5604
  19915308.062   -29403157.27849 -22887774.61149  19915308.1994   19915311.4994
  20763984.956   -22571340.69249 -17537122.39149  20763984.7034   20763988.1334
  21955844.065   -14321969.03049 -10822929.50249  21955843.8264   21955848.7924
  23182755.413    -7659025.41149  -5928210.99349  23182754.7134   23182758.2094
  23301256.607   -16596906.85449 -12621234.64849  23301257.6654   23301260.9064
  21088569.100   -36323887.92949 -28278946.62649  21088568.7984   21088572.8514
 97  1 15  2 19 59.9960000  0  7  7  4  9 24  5 26  2
  20098539.190   -35216185.57149 -27428321.02349  20098538.4714   20098542.5644
  19900261.977   -29482225.20049 -22949385.96749  19900262.2154   19900265.4104
  20747966.554   -22655518.21949 -17602715.26549  20747966.4624   20747969.5604
  21931283.563   -14451034.96649 -10923500.34349  21931283.1794   21931287.4554
  23162164.203    -7767232.61249  -6012528.25349  23162164.0084   23162167.0384
  23310298.220   -16549393.62749 -12584211.37249  23310298.8664   23310302.9944
  21093503.293   -36297958.53649 -28258741.91849  21093503.0524   21093507.3124
 97  1 15  2 20 29.9960000  0  7  7  4  9 24  5 26  2
  20104182.538   -35186529.61649 -27405212.48749  20104181.9444   20104185.8944
  19885317.926   -29560756.58549 -23010579.24449  19885318.1614   19885321.6694
  20732024.026   -22739296.74749 -17667997.23349  20732024.2784   20732027.0194
  21906753.999   -14579938.60249 -11023944.72749  21906753.8904   21906757.9074
  23141568.749    -7875462.19349  -6096862.97349  23141568.8354   23141571.8594
  23319348.477   -16501834.72349 -12547152.49249  23319347.8914   23319353.0454
  21098484.379   -36271782.81749 -28238345.26549  21098484.1334   21098487.5474
 97  1 15  2 20 59.9960000  0  7  7  4  9 24  5 26  2
  20109848.390   -35156755.38049 -27382011.78649  20109847.9624   20109851.8794
  19870459.810   -29638836.55849 -23071420.76949  19870460.2374   19870463.3514
  20716145.503   -22822739.40049 -17733017.48249  20716145.5614   20716148.3954
  21882242.210   -14708748.94449 -11124316.39749  21882242.1094   21882247.0424
  23120956.005    -7983783.04949  -6181268.82149  23120955.4964   23120959.2974
  23328391.551   -16454312.01149 -12510121.80749  23328391.3114   23328395.5064
  21103498.041   -36245436.03049 -28217815.31949  21103497.9224   21103501.9484
 97  1 15  2 21 29.9960000  0  7  7  4  9 24  5 26  2
  20115553.800   -35126773.41449 -27358649.21149  20115553.2824   20115557.2664
  19855704.185   -29716378.20849 -23131842.81749  19855704.5424   19855707.3164
  20700353.928   -22905724.94949 -17797681.54449  20700353.7234   20700356.9584
  21857767.368   -14837364.61149 -11224536.38049  21857766.8434   21857771.7324
  23100342.691    -8092106.59349  -6265676.75849  23100342.9654   23100345.7234
  23337443.634   -16406743.43149 -12473055.39849  23337444.2944   23337448.0204
  21108562.685   -36218821.34149 -28197076.61249  21108562.3164   21108566.6074
 97  1 15  2 21 59.9960000  0  7  7  4  9 24  5 26  2
  20121288.146   -35096639.40749 -27335168.16749  20121287.6224   20121291.5324
  19841042.016   -29793428.42549 -23191881.93949  19841042.1424   19841045.3734
  20684643.521   -22988283.68149 -17862013.02149  20684643.3694   20684646.4404
  21833318.932   -14965841.75249 -11324648.42049  21833318.7984   21833323.0284
  23079719.659    -8200481.18149  -6350124.46449  23079719.1334   23079720.6984
  23346492.998   -16359189.28649 -12436000.22449  23346493.1094   23346495.7114
  21113670.396   -36191980.09949 -28176161.37449  21113669.8804   21113674.2954
 97  1 15  2 22 29.9960000  0  7  7  4  9 24  5 26  2
  20127055.242   -35066333.32349 -27311553.03449  20127054.7604   20127058.5614
  19826475.935   -29869973.76449 -23251527.64449  19826476.0964   19826479.3864
  20669015.613   -23070408.90049 -17926006.69849  20669015.4884   20669018.5074
  21808897.560   -15094176.85849 -11424649.78049  21808898.3044   21808901.7964
  23059087.528    -8308903.62049  -6434609.45249  23059086.8764   23059089.5534
  23355544.168   -16311624.87749 -12398937.06749  23355544.1134   23355548.4804
  21118824.038   -36164897.49449 -28155058.06949  21118823.6734   21118828.0744
 97  1 15  2 22 59.9960000  0  7  7  4  9 24  5 26  2
  20132848.443   -35035890.03449 -27287830.99249  20132847.9194   20132851.6034
  19812003.082   -29946028.96349 -23310791.42049  19812003.1964   19812006.4024
  20653469.338   -23152105.41049 -17989666.31549  20653469.5414   20653472.3504
  21784503.339   -15222369.68649 -11524540.26949  21784503.4124   21784507.3594
  23038443.461    -8417388.62349  -6519143.25249  23038442.7784   23038446.9944
  23364598.796   -16264042.40149 -12361859.82849  23364598.2354   23364602.2014
  21124020.170   -36137591.42649 -28133780.62449  21124019.5864   21124024.2274
 97  1 15  2 23 29.9960000  0  7  7  4  9 24  5 26  2
  20138673.762   -35005277.76949 -27263977.28049  20138673.2774   20138677.0394
  19797631.594   -30021551.70349 -23369640.29349  19797631.6554   19797634.6644
  20638014.175   -23233322.98849 -18052952.73949  20638014.0404   20638016.8284
  21760147.735   -15350359.44449 -11624272.53549  21760147.5834   21760151.7354
  23017794.172    -8525901.22749  -6603698.48449  23017792.6544   23017796.6464
  23373668.192   -16216382.38449 -12324722.16249  23373668.5164   23373671.3364
  21129264.769   -36110030.42549 -28112304.53749  21129264.1854   21129268.2464
 97  1 15  2 23 59.9960000  0  7  7  4  9 24  5 26  2
  20144519.074   -34974560.85249 -27240042.01849  20144518.6304   20144522.1174
  19783348.239   -30096611.14149 -23428128.15049  19783348.4334   19783351.9964
  20622635.207   -23314140.03249 -18115927.05649  20622635.0474   20622637.9584
  21735817.842   -15478213.96849 -11723899.40949  21735816.8474   21735822.7634
  22997125.475    -8634515.22549  -6688332.74749  22997124.2724   22997128.5974
  23382740.906   -16168705.47149 -12287571.34849  23382740.9254   23382745.0304
  21134543.358   -36082291.58649 -28090689.87449  21134542.6914   21134547.6504
 97  1 15  2 24 29.9960000  0  7  7  4  9 24  5 26  2
  20150395.309   -34943681.21549 -27215979.96649  20150394.6224   20150398.3444
  19769161.530   -30171162.70349 -23486220.26249  19769161.6844   19769164.7724
  20607345.643   -23394487.61949 -18178535.56349  20607345.5724   20607348.3144
  21711525.596   -15605870.42049 -11823371.95049  21711525.1444   21711530.1834
  22976448.194    -8743174.50549  -6773002.30849  22976446.6874   22976451.3044
  23391828.133   -16120950.90249 -12250360.00549  23391827.9054   23391831.9564
  21139866.519   -36054318.35449 -28068892.56349  21139865.7154   21139869.8324
 97  1 15  2 24 59.9960000  0  7  7  4  9 24  5 26  2
  20156302.521   -34912638.35749 -27191790.72749  20156301.8834   20156305.5364
  19755071.441   -30245206.37349 -23543916.61849  19755071.6784   19755075.0704
  20592148.804   -23474347.74049 -18240764.22949  20592148.3724   20592151.5204
  21687274.263   -15733311.85649 -11922676.95549  21687274.9624   21687278.9914
  22955767.885    -8851850.27649  -6857684.71749  22955767.2134   22955769.9854
  23400930.046   -16073120.33849 -12213089.44649  23400929.4844   23400931.8594
  21145236.712   -36026097.60649 -28046902.39149  21145236.2284   21145240.1584
 97  1 15  2 25 29.9960000  0  7  7  4  9 24  5 26  2
  20162240.007   -34881436.56249 -27167477.64249  20162239.5124   20162242.9904
  19741079.710   -30318733.35949 -23601210.36149  19741079.9454   19741083.3334
  20577041.606   -23553736.58349 -18302625.66149  20577041.2314   20577044.1624
  21663060.516   -15860555.93349 -12021828.16649  21663060.3654   21663064.8034
  22935083.103    -8960549.61049  -6942385.48149  22935082.5834   22935086.5344
  23410039.448   -16025250.18149 -12175788.04749  23410040.3564   23410043.4384
  21150655.107   -35997624.03349 -28024715.20149  21150654.9464   21150658.7214
 97  1 15  2 25 59.9960000  0  7  7  4  9 24  5 26  2
  20168208.891   -34850069.88149 -27143036.07349  20168208.0504   20168211.8584
  19727192.622   -30391710.48449 -23658075.63749  19727192.7794   19727196.1614
  20562027.481   -23632636.05149 -18364105.76749  20562027.2354   20562030.1014
  21638886.350   -15987592.11049 -12120817.37149  21638886.6604   21638890.9294
  22914400.100    -9069239.13949  -7027078.59049  22914399.5714   22914403.7574
  23419157.308   -15977336.27749 -12138452.53549  23419157.1054   23419161.7644
  21156129.706   -35968854.84049 -28002297.66249  21156128.9474   21156133.6274
 97  1 15  2 26 29.9960000  0  7  7  4  9 24  5 26  2
  20174216.324   -34818500.36749 -27118436.45349  20174215.8314   20174219.7144
  19713418.999   -30464090.91849 -23714475.96649  19713419.0244   19713422.7324
  20547112.675   -23711013.76949 -18425179.31249  20547112.3804   20547115.4314
  21614758.784   -16114383.58349 -12219615.91049  21614758.5244   21614763.8774
  22893727.660    -9177873.92149  -7111729.04049  22893727.1424   22893730.9964
  23428289.761   -15929345.18449 -12101056.89149  23428288.9034   23428292.9784
  21161667.167   -35939755.23849 -27979622.66349  21161666.6834   21161670.5724
 97  1 15  2 26 59.9950000  0  7  7  4  9 24  5 26  2
  20180254.402   -34786770.26349 -27093711.69849  20180254.1014   20180257.6184
  19699755.130   -30535894.88549 -23770427.10049  19699755.4434   19699758.7574
  20532286.384   -23788926.35949 -18485890.42449  20532286.1744   20532289.1024
  21590672.919   -16240956.18349 -12318243.88849  21590673.0784   21590677.2364
  22873059.327    -9286486.88349  -7196362.49449  22873059.4804   22873063.3744
  23437427.891   -15881323.77049 -12063637.61349  23437428.8264   23437432.7024
  21167259.137   -35910369.68849 -27956724.84749  21167258.7724   21167262.7174
 97  1 15  2 27 29.9950000  0  7  7  4  9 24  5 26  2
  20186335.113   -34754815.74249 -27068812.06949  20186334.5214   20186338.2324
  19686213.965   -30607054.24949 -23825875.94349  19686214.2374   19686217.6364
  20517559.636   -23866315.90249 -18546193.96349  20517559.2294   20517562.3574
  21566640.403   -16367247.68149 -12416652.83049  21566640.6354   21566644.6824
  22852403.133    -9395036.03849  -7280946.21949  22852403.0014   22852406.2834
  23446584.901   -15833204.33649 -12026141.96449  23446584.1584   23446588.8584
  21172916.899   -35880637.98849 -27933557.30049  21172916.3054   21172920.2504
 97  1 15  2 27 59.9950000  0  7  7  4  9 24  5 26  2
  20192454.178   -34722659.73549 -27043755.43849  20192453.4054   20192457.0714
  19672786.912   -30677613.60949 -23880857.25049  19672786.9534   19672790.5174
  20502928.977   -23943200.48749 -18606104.02349  20502928.9084   20502931.6994
  21542656.194   -16493285.63649 -12514864.19849  21542655.8904   21542660.4424
  22831753.233    -9503551.90149  -7365504.01549  22831753.5064   22831756.7634
  23455756.944   -15785005.30349 -11988584.27949  23455757.8074   23455761.0384
  21178631.867   -35850605.59449 -27910155.44449  21178631.0994   21178635.5684
 97  1 15  2 28 29.9950000  0  7  7  4  9 24  5 26  2
  20198609.279   -34690314.08249 -27018551.03549  20198608.5344   20198612.3814
  19659468.881   -30747600.19849 -23935392.24749  19659469.0334   19659472.5664
  20488389.294   -24019607.08849 -18665641.63449  20488388.9734   20488392.1394
  21518715.298   -16619095.71949 -12612898.01849  21518714.8544   21518719.5034
  22811100.223    -9612084.33849  -7450074.73049  22811099.9344   22811103.4904
  23464938.157   -15736757.54649 -11950988.62149  23464938.2914   23464942.4464
  21184395.361   -35820317.93349 -27886554.69249  21184395.0284   21184398.8764
 97  1 15  2 28 59.9950000  0  7  7  4  9 24  5 26  2
  20204804.897   -34657755.62249 -26993180.81149  20204804.4654   20204808.0824
  19646264.529   -30816989.67949 -23989461.96649  19646264.7644   19646268.1314
  20473949.336   -24095489.36349 -18724770.68149  20473948.9904   20473951.9674
  21494824.979   -16744639.61549 -12710724.40949  21494824.3034   21494829.8874
  22790447.624    -9720614.76749  -7534643.89749  22790447.2924   22790450.6454
  23474132.312   -15688442.38849 -11913340.45149  23474131.9674   23474136.9304
  21190214.651   -35789737.96149 -27862726.15849  21190214.5104   21190217.9114
 97  1 15  2 29 29.9950000  0  7  7  4  9 24  5 26  2
  20211026.669   -34625060.19249 -26967703.85049  20211026.0884   20211029.8234
  19633159.184   -30885858.74349 -24043126.16349  19633159.3674   19633162.6284
  20459600.539   -24170892.68249 -18783526.51249  20459600.5634   20459603.4194
  21470971.339   -16869990.82149 -12808400.66249  21470970.8964   21470975.5734
  22769782.511    -9829210.59349  -7619264.01649  22769782.2684   22769785.5774
  23483324.114   -15640138.52349 -11875701.09449  23483323.8734   23483328.3884
  21196077.332   -35758929.73749 -27838719.77549  21196076.7414   21196080.8074
 97  1 15  2 29 59.9950000  0  7  7  4  9 24  5 26  2
  20217298.026   -34592104.06349 -26942023.74949  20217297.2364   20217301.5324
  19620175.189   -30954089.96949 -24096293.34149  19620175.4154   19620178.5924
  20445366.124   -24245694.83049 -18841813.89949  20445365.6984   20445369.0504
  21447177.898   -16995025.90249 -12905830.58049  21447178.2874   21447182.7744
  22749129.818    -9937741.22449  -7703833.33649  22749128.4264   22749133.3384
  23492533.753   -15591741.40149 -11837989.04349  23492534.3374   23492538.0214
  21202006.424   -35727772.03649 -27814441.06449  21202005.8274   21202009.8804
 97  1 15  2 30 29.9950000  0  7  7  4  9 24  5 26  2
  20223604.013   -34558965.56149 -26916201.54249  20223603.4914   20223607.1664
  19607302.442   -31021736.81549 -24149005.15749  19607302.6874   19607306.0664
  20431233.005   -24319964.68849 -18899686.51749  20431233.0324   20431236.2024
  21423435.194   -17119794.62849 -13003052.93949  21423435.3544   21423439.6454
  22728479.305   -10046260.50449  -7788393.80649  22728479.0214   22728481.2474
  23501747.418   -15543323.35249 -11800260.68649  23501748.0684   23501751.6654
  21207990.665   -35696324.77849 -27789936.72749  21207990.1644   21207994.2174
 97  1 15  2 30 59.9950000  0  7  7  4  9 24  5 26  2
  20229942.928   -34525654.19149 -26890244.63349  20229942.3324   20229946.2864
  19594539.736   -31088805.10849 -24201266.16049  19594539.9224   19594543.2044
  20417202.656   -24393694.70049 -18957138.47149  20417202.6554   20417205.9794
  21399745.868   -17244282.74349 -13100056.64649  21399745.9044   21399750.5034
  22707838.499   -10154728.89449  -7872914.61749  22707837.8614   22707841.0014
  23510967.577   -15494871.56349 -11762506.04849  23510968.1854   23510972.4674
  21214033.888   -35664567.46549 -27765190.77949  21214033.2004   21214037.4024
 97  1 15  2 31 29.9950000  0  7  7  4  9 24  5 26  2
  20236306.283   -34492214.67849 -26864187.87349  20236305.5474   20236309.1504
  19581877.414   -31155346.05649 -24253116.24449  19581877.7384   19581881.1494
  20403261.847   -24466954.42849 -19014223.98149  20403261.9164   20403264.8384
  21376100.624   -17368539.30949 -13196879.92749  21376100.0144   21376105.5554
  22687201.457   -10263177.29949  -7957419.85349  22687200.9284   22687205.0924
  23520186.393   -15446426.24349 -11724756.45349  23520186.1144   23520191.1804
  21220126.315   -35632551.50849 -27740243.31149  21220125.4634   21220129.8514
 97  1 15  2 31 59.9950000  0  7  7  4  9 24  5 26  2
  20242696.047   -34458636.37749 -26838022.96849  20242695.6534   20242699.3364
  19569319.016   -31221340.89649 -24304540.78649  19569319.2524   19569322.3684
  20389408.679   -24539753.44749 -19070950.49449  20389408.1764   20389411.5664
  21352501.066   -17492555.91349 -13293516.22649  21352500.9814   21352505.0784
  22666568.743   -10371603.11549  -8041907.49849  22666567.7124   22666571.5764
  23529407.858   -15397966.98249 -11686996.00149  23529407.9104   23529412.6854
  21226270.588   -35600263.22949 -27715083.63049  21226269.4994   21226274.7004
 97  1 15  2 32 29.9950000  0  7  7  4  9 24  5 26  2
  20249108.002   -34424941.38149 -26811767.12549  20249107.4954   20249111.3114
  19556862.781   -31286798.86849 -24355546.98849  19556862.8464   19556866.2794
  20375640.042   -24612108.09149 -19127330.73549  20375639.7884   20375643.0854
  21328944.260   -17616347.88749 -13389977.48249  21328943.8894   21328948.6484
  22645937.071   -10480023.44049  -8126390.85049  22645936.9544   22645939.9074
  23538630.588   -15349500.65949 -11649230.05049  23538630.5154   23538635.9524
  21232466.187   -35567705.30049 -27689713.83049  21232465.6104   21232470.2314
 97  1 15  2 32 59.9950000  0  7  7  4  9 24  5 26  2
  20255534.651   -34391169.22349 -26785451.15949  20255534.1754   20255537.8824
  19544499.373   -31351769.00249 -24406173.05749  19544499.5844   19544502.7864
  20361949.524   -24684052.14249 -19183391.03649  20361949.1664   20361952.3714
  21305422.049   -17739957.82349 -13486296.89149  21305421.5744   21305426.1364
  22625295.814   -10588493.67149  -8210913.10949  22625295.2544   22625298.5484
  23547842.968   -15301088.85149 -11611506.57549  23547842.5384   23547847.4244
  21238705.197   -35534918.93849 -27664166.03849  21238705.3104   21238709.1614
 97  1 15  2 33 29.9950000  0  7  7  4  9 24  5 26  2
  20262002.185   -34357182.35549 -26758967.89149  20262001.4184   20262005.4074
  19532259.178   -31416091.75949 -24456294.68149  19532259.4484   19532262.5474
  20348364.355   -24755442.60149 -19239019.97049  20348364.2514   20348367.4664
  21281959.991   -17863251.79549 -13582370.09349  21281960.1164   21281964.7684
  22604664.727   -10696909.91049  -8295393.28349  22604663.8674   22604666.9664
  23557067.270   -15252614.31449 -11573734.22449  23557067.8714   23557071.8054
  21245013.141   -35501770.55849 -27638336.15049  21245012.6744   21245016.8034
 97  1 15  2 33 59.9950000  0  7  7  4  9 24  5 26  2
  20268507.826   -34322994.94849 -26732328.35149  20268507.2144   20268511.1114
  19520142.355   -31479765.97949 -24505910.94749  19520142.5574   19520145.7554
  20334885.877   -24826272.51049 -19294212.11149  20334885.9714   20334888.9574
  21258557.759   -17986230.85949 -13678197.91249  21258557.5374   21258562.1134
  22584040.245   -10805292.05849  -8379846.90849  22584040.5144   22584042.8724
  23566299.865   -15204096.75149 -11535928.34849  23566299.8904   23566305.0624
  21251388.628   -35468267.16049 -27612229.62449  21251387.8204   21251392.7274
 97  1 15  2 34 29.9950000  0  7  7  4  9 24  5 26  2
  20275059.168   -34288567.36749 -26705501.66849  20275058.6094   20275062.4744
  19508153.919   -31542765.51349 -24555001.48549  19508154.0364   19508157.4204
  20321521.611   -24896502.07849 -19348936.45449  20321521.0744   20321524.6334
  21235224.045   -18108850.12249 -13773745.36349  21235223.7604   21235228.2244
  22563429.989   -10913599.87549  -8464242.59149  22563429.9034   22563433.0584
  23575546.182   -15155507.18149 -11498066.35349  23575546.2994   23575551.4894
  21257835.543   -35434388.53949 -27585830.72049  21257834.8874   21257839.6974
 97  1 15  2 34 59.9950000  0  7  7  4  9 24  5 26  2
  20281651.351   -34253925.33949 -26678507.87649  20281650.8354   20281654.6314
  19496288.578   -31605118.30049 -24603588.06249  19496288.8504   19496291.9714
  20308266.328   -24966158.97049 -19403214.55249  20308266.4104   20308269.1684
  21211950.972   -18231150.64149 -13869044.44649  21211950.7524   21211955.4274
  22542827.695   -11021865.17249  -8548605.15049  22542826.4864   22542831.2604
  23584801.463   -15106870.01349 -11460167.28249  23584802.0614   23584806.5594
  21264344.203   -35400185.24849 -27559178.82149  21264343.9814   21264348.3274
 97  1 15  2 35 29.9950000  0  7  7  4  9 24  5 26  2
  20288276.750   -34219108.85549 -26651378.15449  20288276.5184   20288280.1254
  19484540.593   -31666854.44449 -24651694.14549  19484540.9434   19484544.0954
  20295111.274   -25035289.61749 -19457082.59649  20295111.2474   20295114.5864
  21188729.327   -18353181.53249 -13964133.42849  21188729.3684   21188733.5574
  22522228.848   -11130112.47749  -8632953.68049  22522227.9864   22522230.8244
  23594063.515   -15058198.16949 -11422241.18549  23594063.9094   23594069.1284
  21270905.907   -35365703.38949 -27532309.86549  21270904.8494   21270910.1194
 97  1 15  2 35 59.9950000  0  7  7  4  9 24  5 26  2
  20294914.419   -34184227.77349 -26624198.09149  20294913.9534   20294917.5424
  19472885.238   -31728103.75249 -24699420.86949  19472885.4924   19472888.6264
  20282034.902   -25104006.49549 -19510628.22249  20282034.7794   20282037.7744
  21165537.325   -18475056.57649 -14059100.97949  21165536.7644   21165541.6554
  22501615.775   -11238433.88949  -8717359.96949  22501614.3474   22501618.6524
  23603313.065   -15009591.68549 -11384366.03149  23603312.8374   23603318.0204
  21277497.595   -35331063.77649 -27505317.96849  21277497.4954   21277500.9624
 97  1 15  2 36 29.9950000  0  6  7  4  9 24  5  2
  20301595.966   -34149116.08449 -26596838.33849  20301595.3084   20301599.2254
  19461354.898   -31788696.31949 -24746635.85149  19461355.1444   19461358.3354
  20269070.294   -25172136.11849 -19563716.24649  20269070.1354   20269073.0894
  21142406.031   -18596612.26249 -14153819.67249  21142405.8874   21142410.0884
  22481022.789   -11346650.95449  -8801684.94149  22481021.8124   22481026.3774
  21284151.875   -35296095.31049 -27478069.82849  21284152.0784   21284155.2814
 97  1 15  2 36 59.9950000  0  6  7  4  9 24  5  2
  20308307.229   -34113848.01249 -26569356.73149  20308306.5824   20308310.3574
  19449939.149   -31848686.51949 -24793381.45549  19449939.4374   19449942.6844
  20256207.030   -25239732.91749 -19616389.07849  20256206.8804   20256210.0994
  21119323.382   -18717912.33549 -14248339.19249  21119323.3374   21119327.5354
  22460436.558   -11454832.42949  -8885982.18149  22460435.6344   22460438.9854
  21290859.974   -35260844.31849 -27450601.54049  21290859.5454   21290863.9134
 97  1 15  2 37 29.9950000  0  6  7  4  9 24  5  2
  20315052.280   -34078402.28449 -26541736.68849  20315051.7624   20315055.6494
  19438641.303   -31908057.17649 -24839644.29549  19438641.4294   19438644.7924
  20243451.462   -25306763.79549 -19668620.93749  20243451.2204   20243454.5754
  21096301.584   -18838892.67649 -14342609.57249  21096301.0454   21096305.7994
  22439863.906   -11562942.35649  -8970223.69049  22439863.9654   22439867.0254
  21297630.700   -35225263.84149 -27422876.50749  21297630.5674   21297634.6624
 97  1 15  2 37 59.9950000  0  6  7  4  9 24  5  2
  20321791.494   -34042987.52849 -26514140.77849  20321790.7974   20321794.4754
  19427421.154   -31967019.20949 -24885588.72949  19427421.3364   19427424.6404
  20230765.241   -25373430.28949 -19720568.85749  20230765.2034   20230768.3424
  21073303.826   -18959746.39049 -14436781.28349  21073303.8454   21073308.1184
  22419265.910   -11671185.98049  -9054569.38449  22419265.4954   22419268.7714
  21304426.695   -35189551.11649 -27395048.43749  21304425.7834   21304430.5964
 97  1 15  2 38 29.9950000  0  6  7  4  9 24  5  2
  20328571.821   -34007356.51349 -26486376.35449  20328571.2934   20328574.9084
  19416328.151   -32025313.23449 -24931012.63949  19416327.9964   19416331.4244
  20218195.405   -25439485.19649 -19772040.21749  20218195.3554   20218198.8504
  21050378.775   -19080218.23149 -14530655.42449  21050378.3564   21050382.6344
  22398690.142   -11779312.14049  -9138823.53249  22398688.7304   22398693.7024
  21311294.762   -35153459.24749 -27366924.91649  21311293.8484   21311298.6484
 97  1 15  2 38 59.9950000  0  6  7  4  9 24  5  2
  20335368.531   -33971639.47849 -26458544.90249  20335368.2484   20335371.9304
  19405334.866   -32083083.31749 -24976028.27649  19405334.9964   19405338.2134
  20205715.310   -25505068.34549 -19823143.97549  20205714.8454   20205718.2364
  21027501.626   -19200438.25849 -14624333.35949  21027501.2544   21027506.3244
  22378109.883   -11887462.15149  -9223096.25849  22378109.7174   22378112.8764
  21318206.594   -35117137.62749 -27338622.37249  21318205.9234   21318210.3374
 97  1 15  2 39 29.9950000  0  6  7  4  9 24  5  2
  20342193.759   -33935772.72449 -26430596.78249  20342193.4724   20342197.0764
  19394454.074   -32140262.03649 -25020583.11549  19394454.3294   19394457.4734
  20193335.481   -25570124.58949 -19873837.15249  20193335.4554   20193338.6944
  21004684.252   -19320344.55149 -14717766.81449  21004684.2604   21004688.5544
  22357536.536   -11995576.05049  -9307340.85249  22357535.4704   22357540.4844
  21325170.027   -35080544.49449 -27310108.26149  21325169.4124   21325173.9644
 97  1 15  2 39 59.9950000  0  6  7  4  9 24  5  2
  20349040.214   -33899794.91049 -26402562.12749  20349039.6234   20349043.2944
  19383680.268   -32196878.54449 -25064699.86549  19383680.2374   19383683.5454
  20181046.849   -25634701.67449 -19924156.96149  20181046.6924   20181049.9484
  20981912.674   -19440010.35449 -14811012.87949  20981912.5644   20981916.4534
  22336958.728   -12103713.30149  -9391603.64149  22336957.8964   22336961.8544
  21332174.581   -35043735.45149 -27281425.91349  21332174.1234   21332178.6404
 97  1 15  2 40 29.9950000  0  6  7  4  9 24  5  2
  20355952.816   -33863468.97649 -26374256.20749  20355952.4774   20355956.1424
  19373059.193   -32252692.43049 -25108191.20149  19373059.4304   19373062.5504
  20168893.840   -25698566.35949 -19973921.65349  20168893.8554   20168896.9484
  20959232.335   -19559196.28049 -14903885.01349  20959232.4554   20959236.5144
  22316418.590   -12211652.72149  -9475712.27349  22316418.6654   22316421.9894
  21339264.308   -35006478.29649 -27252394.38549  21339263.4654   21339268.4144
 97  1 15  2 40 59.9950000  0  6  7  4  9 24  5  2
  20362882.276   -33827054.41049 -26345881.22449  20362881.5804   20362885.5074
  19362542.761   -32307956.46449 -25151254.07649  19362542.5914   19362545.9904
  20156829.282   -25761966.21449 -20023324.14249  20156829.1284   20156832.1844
  20936596.759   -19678146.96249 -14996573.84749  20936596.4764   20936601.0024
  22295866.177   -12319656.56549  -9559871.10649  22295865.4644   22295869.2544
  21346393.737   -34969013.00749 -27223200.67049  21346393.2494   21346398.1054
 97  1 15  2 41 29.9950000  0  6  7  4  9 24  5  2
  20369834.927   -33790518.12449 -26317411.39649  20369834.2174   20369838.1374
  19352141.641   -32362614.44649 -25193844.71049  19352142.0114   19352145.2614
  20144863.509   -25824846.92049 -20072322.10049  20144863.4814   20144866.3834
  20914015.895   -19796810.05449 -15089038.58649  20914015.7184   20914019.8074
  22275313.661   -12427660.74749  -9644030.20549  22275314.0614   22275316.5124
  21353574.504   -34931277.94449 -27193796.76449  21353574.7184   21353578.6994
 97  1 15  2 41 59.9950000  0  6  7  4  9 24  5  2
  20376830.836   -33753754.27249 -26288764.24549  20376830.1144   20376833.8664
  19341874.831   -32416567.08449 -25235885.72249  19341874.8694   19341878.1734
  20133017.341   -25887099.05949 -20120830.26749  20133017.4524   20133020.4554
  20891511.584   -19915070.84849 -15181189.84149  20891511.3484   20891515.7954
  22254783.248   -12535549.57549  -9728099.40149  22254783.3144   22254785.8344
  21360828.345   -34893159.14749 -27164093.83449  21360827.4474   21360831.2304
 97  1 15  2 42 29.9950000  0  6  7  4  9 24  5  2
  20383841.121   -33716915.00649 -26260058.32149  20383840.7914   20383844.4504
  19331712.660   -32469969.55249 -25277498.02149  19331712.8344   19331715.9534
  20121263.391   -25948866.54049 -20168960.76749  20121263.0094   20121266.5934
  20869057.093   -20033069.78649 -15273137.04949  20869056.5034   20869061.2504
  22234248.186   -12643462.22349  -9812187.16049  22234247.4414   22234251.0344
  21368125.847   -34854810.60149 -27134211.87649  21368125.8644   21368129.6894
 97  1 15  2 42 59.9950000  0  6  7  4  9 24  5  2
  20390900.062   -33679820.26349 -26231153.32849  20390899.5244   20390903.1404
  19321690.944   -32522634.28249 -25318535.46449  19321691.1024   19321694.4014
  20109639.577   -26009950.18849 -20216558.41349  20109639.5464   20109642.7524
  20846687.891   -20150620.51949 -15364735.01249  20846687.8184   20846692.2184
  22213746.470   -12751199.40249  -9896138.19649  22213746.2834   22213749.1324
  21375502.468   -34816046.23149 -27104005.90049  21375501.1784   21375506.3904
 97  1 15  2 43 29.9950000  0  6  7  4  9 24  5  2
  20397970.157   -33642666.45449 -26202202.30849  20397969.2904   20397973.5134
  19311769.205   -32574773.36849 -25359163.31649  19311769.2604   19311772.5574
  20098105.114   -26070564.13549 -20263790.06249  20098104.7024   20098108.0164
  20824364.642   -20267929.89449 -15456144.89749  20824364.5224   20824368.9714
  22193237.023   -12858977.12449  -9980120.82349  22193236.8524   22193239.4564
  21382919.013   -34777071.88949 -27073636.31249  21382919.0934   21382922.3494
 97  1 15  2 43 59.9950000  0  6  7  4  9 24  5  2
  20405067.104   -33605371.34749 -26173141.19649  20405066.4864   20405070.4104
  19301959.490   -32626323.44049 -25399332.20149  19301959.6314   19301962.8984
  20086673.425   -26130638.13749 -20310600.98549  20086673.4354   20086676.5174
  20802099.257   -20384935.24749 -15547317.89249  20802099.2064   20802103.5834
  22172731.014   -12966737.25349 -10064089.77149  22172730.6584   22172733.3414
  21390390.198   -34737810.22449 -27043042.82849  21390389.6814   21390394.0034
 97  1 15  2 44 29.9950000  0  6  7  4  9 24  5  2
  20412184.601   -33567968.81549 -26143996.37249  20412183.8894   20412188.0554
  19292257.389   -32677308.31049 -25439060.66449  19292257.5684   19292260.7554
  20075341.666   -26190187.18549 -20357002.84549  20075341.5204   20075344.8734
  20779887.550   -20501658.52549 -15638271.08349  20779887.1044   20779892.1344
  22152226.036   -13074491.62049 -10148054.19749  22152225.1244   22152228.7144
  21397914.104   -34698271.88949 -27012233.76049  21397913.9624   21397917.5794
 97  1 15  2 44 59.9950000  0  6  7  4  9 24  5  2
  20419315.310   -33530496.74849 -26114797.36049  20419314.6334   20419318.6394
  19282656.118   -32727763.49549 -25478376.38649  19282656.4154   19282659.3724
  20064103.559   -26249243.90449 -20403021.07149  20064103.3804   20064106.6884
  20757727.224   -20618111.75649 -15729013.85249  20757727.2244   20757731.6344
  22131715.313   -13182275.92649 -10232041.95249  22131713.9534   22131717.7394
  21405488.450   -34658468.86249 -26981218.43749  21405488.7294   21405492.4054
 97  1 15  2 45 29.9950000  0  6  7  4  9 24  5  2
  20426474.969   -33492872.42749 -26085479.71349  20426474.5164   20426478.3684
  19273170.032   -32777613.29349 -25517220.37949  19273170.0524   19273173.2314
  20052972.493   -26307738.13849 -20448600.99949  20052972.2064   20052975.6754
  20735633.448   -20734215.38749 -15819484.20549  20735633.1204   20735637.6614
  22111215.375   -13290003.72549 -10315985.68549  22111214.4754   22111217.2514
  21413128.309   -34618321.77349 -26949935.01549  21413127.6504   21413132.9204
 97  1 15  2 45 59.9950000  0  6  7  4  9 24  5  2
  20433671.852   -33455052.93349 -26056009.97949  20433671.4844   20433675.4714
  19263812.694   -32826786.29749 -25555536.99749  19263812.9904   19263816.2534
  20041961.197   -26365602.77549 -20493690.32849  20041960.9494   20041964.4414
  20713616.250   -20849916.32449 -15909640.76249  20713616.1224   20713620.7344
  22090741.764   -13397593.36349 -10399821.76049  22090741.1384   22090744.0044
  21420839.829   -34577797.47449 -26918357.66849  21420840.1414   21420843.7574
 97  1 15  2 46 29.9950000  0  6  7  4  9 24  5  2
  20440876.334   -33417193.10949 -26026508.82149  20440875.5264   20440879.5704
  19254559.659   -32875411.32149 -25593426.62249  19254559.8364   19254563.0374
  20031041.261   -26422987.40549 -20538405.62849  20031041.2194   20031044.5604
  20691650.635   -20965346.56549 -15999586.39849  20691650.1194   20691654.8664
  22070264.688   -13505200.93949 -10483671.80349  22070263.7844   22070266.9414
  21428589.420   -34537073.88549 -26886625.02749  21428588.6074   21428592.7064
 97  1 15  2 46 59.9950000  0  6  7  4  9 24  5  2
  20448086.269   -33379304.64449 -25996985.34649  20448085.8654   20448089.2314
  19245407.683   -32923505.35649 -25630902.48449  19245407.9514   19245411.2954
  20020207.670   -26479918.13549 -20582767.23649  20020207.4094   20020210.9064
  20669732.100   -21080529.20349 -16089339.08749  20669731.9024   20669736.5164
  22049777.853   -13612859.79149 -10567561.80249  22049777.8564   22049781.1254
  21436370.181   -34496185.47649 -26854763.93349  21436369.2704   21436373.6534
 97  1 15  2 47 29.9950000  0  6  7  4  9 24  5  2
  20455332.518   -33341225.53249 -25967313.32149  20455331.6694   20455335.6004
  19236391.088   -32970887.86549 -25667823.92049  19236391.0944   19236394.4044
  20009492.480   -26536226.75549 -20626644.09149  20009492.2574   20009495.8224
  20647888.546   -21195317.74449 -16178784.69349  20647888.2444   20647892.8414
  22029314.007   -13720397.79549 -10651357.63649  22029313.6634   22029316.3504
  21444210.397   -34454984.76049 -26822659.51649  21444209.6534   21444214.4624
 97  1 15  2 47 59.9950000  0  6  7  4  9 24  5  2
  20462599.739   -33303035.82849 -25937555.10849  20462598.9974   20462602.6704
  19227494.906   -33017637.49549 -25704252.19449  19227495.0524   19227498.2894
  19998881.308   -26591988.71649 -20670094.97349  19998880.9534   19998884.6354
  20626105.981   -21309785.66849 -16267980.46549  20626105.7144   20626110.4624
  22008855.656   -13827907.07149 -10735131.08149  22008855.2574   22008858.4574
  21452096.786   -34413541.74449 -26790366.26949  21452096.0834   21452099.9634
 97  1 15  2 48 29.9950000  0  6  7  4  9 24  5  2
  20469871.629   -33264821.28249 -25907777.54149  20469871.3034   20469874.7804
  19218699.012   -33063860.29049 -25740269.95149  19218698.9924   19218702.4324
  19988357.515   -26647291.77449 -20713188.26649  19988357.6084   19988360.8434
  20604370.343   -21424007.06249 -16356984.13449  20604370.2214   20604374.9934
  21988386.268   -13935474.13549 -10818949.56149  21988385.4874   21988388.3934
  21460020.730   -34371901.26149 -26757919.16149  21460020.3174   21460025.4624
 97  1 15  2 48 59.9950000  0  6  7  4  9 24  5  2
  20477187.028   -33226378.64549 -25877822.24949  20477186.5094   20477190.3394
  19210039.617   -33109365.56249 -25775728.59949  19210039.8164   19210043.0134
  19977960.205   -26701930.16849 -20755763.64249  19977960.2064   19977963.3864
  20582718.978   -21537785.63349 -16445642.75149  20582718.7904   20582723.4624
  21967947.569   -14042880.31549 -10902642.68149  21967946.9574   21967950.9124
  21468027.476   -34329826.05449 -26725133.31549  21468027.0844   21468031.4514
 97  1 15  2 49 29.9950000  0  6  7  4  9 24  5  2
  20484519.975   -33187843.83749 -25847795.11949  20484519.4324   20484523.1844
  19201490.528   -33154291.31549 -25810735.67249  19201490.8444   19201493.9584
  19967664.313   -26756035.60249 -20797923.72549  19967664.1044   19967667.6764
  20561127.256   -21651250.64249 -16534057.02649  20561127.1684   20561132.3504
  21947513.439   -14150262.38049 -10986317.01049  21947512.3834   21947515.8974
  21476091.523   -34287449.02049 -26692112.25849  21476090.7224   21476096.0044
 97  1 15  2 49 59.9950000  0  6  7  4  9 24  5  2
  20491876.905   -33149182.80649 -25817669.64449  20491876.6094   20491879.9744
  19193056.060   -33198614.84749 -25845273.48449  19193056.2144   19193059.5454
  19957476.252   -26809574.24949 -20839642.15949  19957476.1674   19957479.4194
  20539604.344   -21764354.71449 -16622190.05849  20539604.3784   20539608.9654
  21927090.309   -14257586.62449 -11069946.28649  21927089.2324   21927092.6064
  21484219.395   -34244736.64349 -26658829.91349  21484219.3544   21484224.0344
 97  1 15  2 50 29.9950000  0  6  7  4  9 24  5  2
  20499242.968   -33110473.75849 -25787506.74949  20499242.2704   20499246.0064
  19184724.139   -33242399.35049 -25879391.27249  19184724.2924   19184727.5224
  19947382.945   -26862614.92849 -20880972.56249  19947382.6944   19947386.0344
  20518135.690   -21877173.36649 -16710100.68749  20518135.4604   20518140.1824
  21906665.022   -14364921.97249 -11153584.20449  21906664.6724   21906668.1094
  21492393.422   -34201782.19049 -26625358.93949  21492392.5364   21492397.7804
 97  1 15  2 50 59.9950000  0  6  7  4  9 24  5  2
  20506616.166   -33071727.06849 -25757314.52349  20506615.4864   20506619.6674
  19176491.750   -33285660.81049 -25913101.49549  19176491.9314   19176495.1464
  19937381.247   -26915174.54349 -20921928.11149  19937381.0184   19937384.2634
  20496715.755   -21989735.91849 -16797811.75549  20496715.9794   20496719.8954
  21886229.998   -14472308.96649 -11237262.37249  21886229.9484   21886233.3684
  21500600.175   -34158654.99449 -26591753.35649  21500599.3554   21500604.2784
 97  1 15  2 51 29.9950000  0  6  7  4  9 24  5  2
  20514023.020   -33032803.71949 -25726984.65049  20514022.6984   20514026.2214
  19168383.284   -33328270.96449 -25946304.21049  19168383.3844   19168386.5384
  19927497.507   -26967113.55849 -20962400.08049  19927497.2814   19927500.5494
  20475371.060   -22101903.04349 -16885214.70149  20475371.0864   20475375.3424
  21865811.540   -14579608.53349 -11320872.42049  21865810.3054   21865814.2564
  21508860.951   -34115244.58749 -26557927.10249  21508860.6464   21508864.3804
 97  1 15  2 51 59.9950000  0  6  7  4  9 24  5  2
  20521446.869   -32993791.09849 -25696585.20349  20521446.7284   20521450.0524
  19160382.538   -33370314.94949 -25979065.75449  19160382.4334   19160386.0024
  19917715.450   -27018518.51249 -21002455.88949  19917715.0834   19917718.4814
  20454084.983   -22213761.96849 -16972377.48449  20454085.0424   20454089.1414
  21845394.301   -14686901.84649 -11404477.60049  21845393.2694   21845397.0894
  21517159.365   -34071636.30949 -26523946.64849  21517158.3014   21517163.4524
 97  1 15  2 52 29.9950000  0  6  7  4  9 24  5  2
  20528892.195   -32954665.72949 -25666097.90049  20528891.8344   20528895.6804
  19152492.230   -33411778.80249 -26011375.24449  19152492.5854   19152495.7184
  19908036.281   -27069382.94249 -21042090.51149  19908036.1634   19908039.5384
  20432859.209   -22325304.16849 -17059293.47349  20432859.1364   20432863.5964
  21824978.919   -14794185.51249 -11488075.24549  21824977.4924   21824981.3814
  21525497.944   -34027816.48649 -26489801.35449  21525496.9394   21525502.1344
 97  1 15  2 52 59.9950000  0  6  7  4  9 24  5  2
  20536371.602   -32915361.15749 -25635470.97249  20536370.9064   20536374.9354
  19144720.161   -33452621.64449 -26043200.83449  19144720.3764   19144723.4834
  19898470.689   -27119650.68349 -21081260.18849  19898470.8354   19898473.7684
  20411706.012   -22436464.91249 -17145912.22349  20411705.9904   20411710.0014
  21804576.022   -14901403.67949 -11571621.87049  21804575.4474   21804579.1454
  21533890.590   -33983712.65949 -26455434.75549  21533889.6284   21533894.3194
 97  1 15  2 53 29.9950000  0  6  7  4  9 24  5  2
  20543868.307   -32875965.64149 -25604773.17249  20543867.7864   20543871.8114
  19137055.111   -33492901.49449 -26074587.72749  19137055.4924   19137058.3654
  19889002.495   -27169406.34149 -21120030.83449  19889002.1904   19889005.6524
  20390612.636   -22547311.22049 -17232285.96249  20390612.2334   20390616.9174
  21784173.095   -15008621.34249 -11655168.09849  21784171.9024   21784175.8834
  21542330.312   -33939361.59049 -26420875.50549  21542329.8654   21542334.4404
 97  1 15  2 53 59.9950000  0  6  7  4  9 24  5  2
  20551409.936   -32836334.11449 -25573891.46249  20551409.5754   20551413.4484
  19129529.698   -33532447.90049 -26105403.10449  19129529.9524   19129532.8864
  19879659.892   -27218501.66649 -21158286.93349  19879659.9684   19879663.0894
  20369610.554   -22657677.66449 -17318285.77249  20369610.6324   20369615.1004
  21763798.247   -15115691.83049 -11738599.63949  21763797.4674   21763801.9024
  21550848.276   -33894599.34049 -26385995.85249  21550847.1494   21550852.2704
 97  1 15  2 54 29.9950000  0  6  7  4  9 24  5  2
  20558964.278   -32796635.76749 -25542957.69149  20558963.5364   20558968.1584
  19122114.578   -33571414.81949 -26135766.92749  19122114.8254   19122118.0004
  19870412.098   -27267099.28449 -21196155.20749  19870412.0304   19870415.1024
  20348669.925   -22767721.19649 -17404033.96349  20348669.5294   20348674.5264
  21743422.242   -15222768.35649 -11822035.89949  21743420.9934   21743425.3134
  21559412.882   -33849592.27449 -26350925.43149  21559412.0104   21559416.7494
 97  1 15  2 54 59.9950000  0  6  7  4  9 24  5  2
  20566534.196   -32756855.29149 -25511959.92249  20566533.4454   20566537.5544
  19114817.071   -33609763.56949 -26165649.06749  19114817.3974   19114820.5794
  19861266.503   -27315159.59049 -21233604.80449  19861266.1724   19861269.6994
  20327799.215   -22877397.09149 -17489495.68949  20327798.9684   20327803.3644
  21723056.285   -15329791.95249 -11905430.90249  21723055.7314   21723058.7444
  21568031.667   -33804300.23749 -26315632.97049  21568032.0324   21568036.3214
 97  1 15  2 55 29.9950000  0  6  7  4  9 24  5  2
  20574104.348   -32717073.62849 -25480961.22749  20574103.8944   20574107.7224
  19107627.527   -33647545.03249 -26195089.16249  19107627.6254   19107630.8624
  19852212.476   -27362738.85449 -21270679.56249  19852212.4694   19852215.7964
  20306986.312   -22986769.33849 -17574720.80649  20306986.1764   20306990.6164
  21702690.447   -15436814.83749 -11988825.35649  21702689.6014   21702693.5384
  21576689.569   -33758803.16149 -26280180.73449  21576689.9784   21576694.0444
 97  1 15  2 55 59.9950000  0  6  7  4  9 24  5  2
  20581669.202   -32677320.38549 -25449984.67849  20581668.8874   20581672.9254
  19100537.619   -33684802.43249 -26224120.89649  19100537.6834   19100540.8974
  19843245.524   -27409860.78449 -21307397.95349  19843245.6474   19843248.8134
  20286226.234   -23095864.53649 -17659730.03849  20286225.8184   20286230.6264
  21682319.081   -15543866.76849 -12072242.43349  21682318.4034   21682322.5164
  21585376.551   -33713152.98649 -26244609.19649  21585376.4354   21585380.8294
 97  1 15  2 56 29.9950000  0  6  7  4  9 24  5  2
  20589269.298   -32637381.53449 -25418863.49349  20589268.8964   20589272.7804
  19093587.085   -33721327.52449 -26252581.99849  19093587.2654   19093590.3644
  19834407.686   -27456304.08449 -21343587.54049  19834407.3164   19834410.9264
  20265558.570   -23204473.61349 -17744360.47049  20265558.0064   20265563.0054
  21661981.867   -15650739.74149 -12155520.06849  21661981.5624   21661984.3404
  21594134.067   -33667131.90349 -26208748.63149  21594134.0624   21594138.5544
 97  1 15  2 56 59.9950000  0  6  7  4  9 24  5  2
  20596868.528   -32597447.24949 -25387745.87649  20596868.1254   20596871.9214
  19086737.278   -33757323.36449 -26280630.69649  19086737.2774   19086740.5954
  19825665.240   -27502245.66449 -21379386.17849  19825664.9484   19825668.2974
  20244946.779   -23312789.07249 -17828762.10349  20244946.2854   20244951.0984
  21641640.266   -15757635.40949 -12238815.38749  21641639.0854   21641643.7774
  21602927.505   -33620922.16549 -26172741.07249  21602926.6154   21602930.5384
 97  1 15  2 57 29.9950000  0  6  7  4  9 24  5  2
  20604488.304   -32557405.00149 -25356544.13449  20604487.9804   20604492.0804
  19080008.376   -33792684.16449 -26308184.56149  19080008.7954   19080011.6304
  19817037.160   -27547586.26449 -21414716.52149  19817036.8314   19817040.4814
  20224410.761   -23420706.22449 -17912853.38549  20224410.5924   20224415.4214
  21621311.270   -15864464.57249 -12322058.88649  21621310.1284   21621314.3154
  21611777.016   -33574417.83349 -26136503.96349  21611776.6684   21611781.2504
 97  1 15  2 57 59.9950000  0  6  7  4  9 24  5  2
  20612109.998   -32517352.92649 -25325334.73349  20612109.6634   20612113.7624
  19073380.716   -33827512.78549 -26335323.74249  19073380.9234   19073383.9954
  19808502.588   -27592435.60449 -21449664.06149  19808502.3994   19808505.9114
  20203932.901   -23528318.30449 -17996706.93849  20203932.6984   20203937.4234
  21600976.573   -15971324.02149 -12405325.98349  21600975.7164   21600979.2364
  21620669.175   -33527689.49749 -26100092.29749  21620668.6634   21620672.4894
 97  1 15  2 58 29.9950000  0  6  7  4  9 24  5  2
  20619762.139   -32477140.98949 -25294000.76049  20619762.1364   20619765.3324
  19066883.762   -33861654.26549 -26361927.48549  19066883.8214   19066887.1124
  19800090.755   -27636640.26949 -21484109.25949  19800090.7024   19800094.0534
  20183540.407   -23635481.57849 -18080210.77549  20183540.4264   20183544.6974
  21580667.436   -16078049.05349 -12488488.34349  21580666.9654   21580670.7754
  21629634.395   -33480577.19149 -26063381.43149  21629633.3564   21629638.1054
 97  1 15  2 58 59.9940000  0  6  7  4  9 24  5  2
  20627430.000   -32436846.29849 -25262602.30449  20627429.6884   20627433.3634
  19060500.933   -33895196.12549 -26388063.99149  19060501.2104   19060504.4524
  19791787.235   -27680275.54349 -21518110.77349  19791787.1714   19791790.5474
  20163221.495   -23742258.16349 -18163413.29949  20163221.6924   20163226.1124
  21560373.936   -16184691.83149 -12571586.60549  21560373.5344   21560376.5654
  21638657.068   -33433162.35449 -26026434.82149  21638656.0904   21638659.8644
 97  1 15  2 59 29.9940000  0  6  7  4  9 24  5  2
  20635104.787   -32396515.12049 -25231175.41649  20635104.0754   20635107.8974
  19054222.285   -33928190.67549 -26413774.03049  19054222.5364   19054225.6434
  19783578.635   -27723412.05449 -21551723.64349  19783578.5244   19783581.9534
  20142966.660   -23848698.47949 -18246353.80449  20142966.8444   20142970.9454
  21540086.614   -16291302.61049 -12654659.92849  21540085.5894   21540089.4134
  21647728.043   -33385494.12049 -25989290.76249  21647727.6004   21647732.4454
 97  1 15  2 59 59.9940000  0  6  7  4  9 24  5  2
  20642788.290   -32356138.02549 -25199712.74549  20642788.0254   20642791.6014
  19048048.254   -33960635.47149 -26439055.68149  19048048.4304   19048051.7004
  19775468.145   -27766032.84349 -21584934.65049  19775467.9984   19775471.6484
  20122778.844   -23954786.38749 -18329019.69749  20122778.5204   20122782.8784
  21519809.254   -16397860.79549 -12737692.27949  21519808.7364   21519812.9814
  21656846.802   -33337574.70349 -25951950.98449  21656846.3874   21656850.3654
 97  1 15  3  0 29.9940000  0  6  7  4  9 24  5  2
  20650503.282   -32315595.38049 -25168121.07649  20650502.7044   20650506.0994
  19041999.065   -33992424.19849 -26463826.11549  19041999.0984   19042002.5454
  19767478.880   -27808016.56749 -21617649.24449  19767478.5894   19767482.2114
  20102679.997   -24060406.56249 -18411321.12349  20102680.0144   20102684.1224
  21499559.533   -16504273.94949 -12820611.62049  21499558.9254   21499562.6104
  21666029.358   -33289319.87449 -25914349.83949  21666029.0904   21666033.7034
 97  1 15  3  0 59.9940000  0  6  7  4  9 24  5  2
  20658228.755   -32274997.43649 -25136486.32449  20658228.5064   20658232.1924
  19036052.205   -34023674.93049 -26488177.33449  19036052.4154   19036055.4734
  19759589.612   -27849474.79349 -21649954.36049  19759589.5814   19759592.9594
  20082650.646   -24165661.74949 -18493338.15049  20082650.5504   20082654.4034
  21479311.419   -16610678.46449 -12903524.22749  21479311.3624   21479314.7524
  21675252.760   -33240850.67049 -25876581.66949  21675252.4454   21675256.9534
 97  1 15  3  1 29.9940000  0  6  7  4  9 24  5  2
  20665969.537   -32234319.43549 -25104789.18449  20665969.1474   20665972.7924
  19030215.784   -34054345.65349 -26512076.59349  19030216.0264   19030219.1594
  19751805.191   -27890382.59549 -21681830.57349  19751805.2604   19751808.5184
  20062692.399   -24270542.86549 -18575063.68549  20062692.1674   20062696.4314
  21459064.830   -16717075.17449 -12986430.75049  21459064.2794   21459068.0714
  21684518.568   -33192158.56349 -25838639.78649  21684518.9404   21684522.6894
 97  1 15  3  1 59.9940000  0  6  7  4  9 24  5  2
  20673719.030   -32193595.70349 -25073056.40749  20673718.7524   20673722.0694
  19024485.587   -34084457.94149 -26535540.71249  19024485.6434   19024488.9164
  19744123.428   -27930750.89249 -21713286.40149  19744123.3784   19744126.6784
  20042798.657   -24375085.05449 -18656525.12249  20042798.4794   20042802.6674
  21438811.161   -16823509.46849 -13069366.56949  21438811.0504   21438813.6244
  21693818.921   -33143284.59249 -25800556.19649  21693818.7424   21693823.3454
 97  1 15  3  2 29.9940000  0  6  7  4  9 24  5  2
  20681484.246   -32152788.98449 -25041258.96449  20681483.8874   20681487.5494
  19018872.927   -34113952.58249 -26558523.54549  19018873.1684   19018876.2114
  19736553.527   -27970531.10249 -21744283.97049  19736553.4684   19736556.6974
  20022977.383   -24479246.18149 -18737689.62849  20022977.2514   20022981.3584
  21418556.360   -16929949.53849 -13152306.89049  21418555.3634   21418558.9604
  21703164.168   -33094175.36149 -25762289.30449  21703164.4724   21703167.9274
 97  1 15  3  2 59.9940000  0  6  7  4  9 24  5  2
  20689256.587   -32111945.14649 -25009432.59049  20689256.1864   20689259.6744
  19013371.041   -34142865.31949 -26581052.94149  19013371.2274   19013374.5954
  19729085.214   -28009777.37649 -21774865.47949  19729084.9194   19729088.1974
  20003219.542   -24583074.28749 -18818594.63249  20003219.1004   20003223.6344
  21398295.593   -17036420.68349 -13235271.40749  21398294.7294   21398298.4484
  21712546.998   -33044869.07149 -25723868.83949  21712546.9574   21712550.7014
 97  1 15  3  3 29.9940000  0  6  7  4  9 24  5  2
  20697045.872   -32071012.33449 -24977536.89449  20697045.4244   20697048.8794
  19007991.280   -34171136.12749 -26603082.14249  19007991.3614   19007994.8684
  19721726.346   -28048448.40449 -21804998.75849  19721726.0634   19721729.3264
  19983534.713   -24686518.69449 -18899200.66349  19983534.5474   19983538.6914
  21378043.521   -17142845.85249 -13318200.12549  21378043.3894   21378046.6974
  21721979.425   -32995301.27549 -25685244.60349  21721978.0684   21721984.1534
 97  1 15  3  3 59.9940000  0  6  7  4  9 24  5  2
  20704833.055   -32030090.60549 -24945649.83749  20704832.1434   20704836.5604
  19002713.992   -34198868.53549 -26624691.80649  19002714.2354   19002717.3604
  19714456.960   -28086649.18849 -21834765.60849  19714456.9354   19714460.3414
  19963907.658   -24789659.44649 -18979570.07449  19963907.5544   19963911.7624
  21357786.451   -17249297.39949 -13401149.37649  21357785.9624   21357789.7384
  21731447.539   -32945545.99249 -25646474.28649  21731447.3724   21731451.4004
 97  1 15  3  4 29.9940000  0  6  7  4  9 24  5  2
  20712625.156   -31989142.68349 -24913742.36449  20712624.8884   20712628.1994
  18997543.171   -34226041.38949 -26645865.45149  18997543.3544   18997546.3764
  19707279.218   -28124368.60949 -21864157.37049  19707279.0054   19707282.2324
  19944345.812   -24892457.66649 -19059672.57349  19944345.7974   19944350.0534
  21337533.623   -17355727.26449 -13484081.73449  21337533.1234   21337536.6364
  21740958.684   -32895564.61549 -25607527.78249  21740957.3884   21740962.1764
 97  1 15  3  4 59.9940000  0  6  7  4  9 24  5  2
  20720434.856   -31948102.19149 -24881762.75849  20720434.3024   20720438.2394
  18992487.180   -34252610.45349 -26666568.61649  18992487.1754   18992490.4644
  19700203.556   -28161551.60749 -21893131.13749  19700203.3934   19700206.7914
  19924861.021   -24994851.30249 -19139459.81749  19924860.7264   19924864.8884
  21317299.713   -17462057.05649 -13566936.11349  21317298.9014   21317302.4904
  21750524.280   -32845296.65249 -25568357.97749  21750525.1154   21750527.7084
 97  1 15  3  5 29.9940000  0  6  7  4  9 24  5  2
  20728250.246   -31907031.71749 -24849759.79449  20728249.5614   20728253.3734
  18987536.711   -34278625.33249 -26686839.94249  18987536.9724   18987540.2044
  19693223.576   -28198231.57449 -21921712.93349  19693223.5354   19693226.8084
  19905443.000   -25096893.60049 -19218973.28449  19905442.6894   19905447.0044
  21297076.316   -17568331.62949 -13649747.46649  21297075.1424   21297078.8874
  21760136.266   -32794786.42749 -25528999.36749  21760136.0114   21760139.6994
 97  1 15  3  5 59.9940000  0  6  7  4  9 24  5  2
  20736081.573   -31865877.34549 -24817691.45249  20736081.2204   20736085.0854
  18982700.156   -34304041.76949 -26706644.95349  18982700.4204   18982703.3434
  19686353.535   -28234333.97449 -21949844.67449  19686353.1914   19686356.7704
  19886102.394   -25198528.98649 -19298169.68049  19886102.4184   19886106.2834
  21276872.668   -17674502.42949 -13732477.96049  21276872.2184   21276875.9984
  21769802.809   -32743988.95549 -25489416.95749  21769802.5494   21769806.5294
 97  1 15  3  6 29.9940000  0  6  7  4  9 24  5  2
  20743922.989   -31824670.43249 -24785582.16649  20743922.6814   20743926.5064
  18977971.402   -34328891.24849 -26726008.17949  18977971.4644   18977974.6004
  19679589.910   -28269877.04349 -21977540.57749  19679589.4844   19679593.0084
  19866832.985   -25299790.45749 -19377074.71349  19866832.8384   19866837.1984
  21256682.547   -17780601.95549 -13815152.90949  21256681.9154   21256685.6844
  21779515.727   -32692947.67449 -25449644.54749  21779515.6454   21779519.9404
 97  1 15  3  6 59.9940000  0  6  7  4  9 24  5  2
  20751771.280   -31783427.28849 -24753444.66049  20751771.0384   20751774.7124
  18973349.148   -34353181.31849 -26744935.50449  18973349.3244   18973352.5574
  19672934.242   -28304852.56749 -22004794.23449  19672933.7614   19672937.3764
  19847633.019   -25400686.75849 -19455695.20349  19847632.9604   19847637.0954
  21236506.279   -17886628.82549 -13897771.24549  21236505.5534   21236509.5234
  21789272.805   -32641673.92649 -25409691.00349  21789272.3014   21789276.0884
 97  1 15  3  7 29.9940000  0  6  7  4  9 24  5  2
  20759615.266   -31742206.57149 -24721324.62449  20759615.1974   20759619.0954
  18968824.329   -34376959.36149 -26763463.84449  18968824.5264   18968827.6754
  19666376.796   -28339312.04849 -22031645.78349  19666376.6114   19666379.9774
  19828493.376   -25501266.44049 -19534068.97249  19828493.2504   19828497.3934
  21216332.179   -17992644.32449 -13980380.71649  21216331.2304   21216334.9844
  21799062.775   -32590226.80249 -25369602.36549  21799060.9444   21799066.4634
 97  1 15  3  7 59.9940000  0  6  7  4  9 24  5  2
  20767456.553   -31701000.19349 -24689215.76149  20767455.9394   20767460.1894
  18964396.887   -34400225.78449 -26781593.51949  18964397.2514   18964400.3154
  19659913.651   -28373276.15249 -22058111.31549  19659913.4754   19659917.0194
  19809417.153   -25601512.65949 -19612182.90049  19809417.2164   19809420.9774
  21196158.213   -18098659.30849 -14062989.78849  21196157.5654   21196161.0804
  21808884.665   -32538612.49749 -25329383.44149  21808884.8434   21808889.0204
 97  1 15  3  8 29.9940000  0  6  7  4  9 24  5  2
  20775312.852   -31659715.02749 -24657045.51649  20775312.7504   20775316.6304
  18960088.866   -34422864.56149 -26799234.12049  18960088.9944   18960092.1754
  19653561.729   -28406656.04549 -22084121.62549  19653561.7724   19653565.2434
  19790425.557   -25701313.95749 -19689950.13749  19790425.1244   19790429.3954
  21176003.666   -18204572.59549 -14145519.62449  21176003.5084   21176006.9204
  21818757.542   -32486730.54549 -25288955.97849  21818757.0994   21818761.1184
 97  1 15  3  8 59.9940000  0  6  7  4  9 24  5  2
  20783174.211   -31618403.09549 -24624854.39849  20783173.6084   20783178.0384
  18955889.171   -34444934.14849 -26816431.19449  18955889.2914   18955892.4024
  19647309.103   -28439513.98349 -22109725.21549  19647308.7614   19647312.2304
  19771506.382   -25800734.55449 -19767420.72549  19771506.0614   19771510.5274
  21155855.095   -18310453.69249 -14228024.36449  21155854.3674   21155858.2604
  21828668.877   -32434646.58849 -25248371.10149  21828668.1184   21828671.4054
 97  1 15  3  9 29.9940000  0  6  7  4  9 24  5  2
  20791039.671   -31577070.22449 -24592646.96749  20791039.4134   20791043.9164
  18951798.542   -34466430.46249 -26833181.56549  18951798.7134   18951801.7334
  19641153.291   -28471862.95049 -22134932.20949  19641153.2434   19641156.7004
  19752658.607   -25899780.18449 -19844599.12849  19752658.5594   19752662.6164
  21135707.885   -18416327.86349 -14310523.70749  21135707.1744   21135711.2344
  21838616.364   -32382371.90949 -25207637.61149  21838616.0414   21838620.8534
 97  1 15  3  9 59.9940000  0  6  7  4  9 24  5  2
  20798915.805   -31535681.33149 -24560395.88149  20798915.9504   20798919.6884
  18947822.300   -34487325.55449 -26849463.45149  18947822.5654   18947825.9634
  19635102.038   -28503662.63349 -22159711.18749  19635101.6624   19635105.0984
  19733887.616   -25998422.43849 -19921463.21349  19733887.4144   19733891.9324
  21115568.146   -18522162.94049 -14392992.59349  21115567.5074   21115570.7074
  21848606.023   -32329875.84749 -25166731.61649  21848606.0554   21848609.8624
 97  1 15  3 10 29.9940000  0  6  7  4  9 24  5  2
  20806804.928   -31494224.04349 -24528091.50449  20806804.8094   20806808.9864
  18943962.503   -34507609.07649 -26865268.79249  18943962.7674   18943966.1054
  19629161.905   -28534878.01449 -22184034.87049  19629161.8144   19629165.2804
  19715194.117   -26096657.69249 -19998010.15949  19715193.9754   19715197.9334
  21095438.574   -18627944.55849 -14475419.83049  21095438.1224   21095441.6054
  21858641.395   -32277139.71249 -25125638.53649  21858641.2784   21858645.6174
 97  1 15  3 10 59.9940000  0  6  7  4  9 24  5  2
  20814689.961   -31452788.27949 -24495803.90349  20814689.8304   20814693.6364
  18940200.911   -34527376.35649 -26880671.86149  18940201.2724   18940204.3974
  19623317.438   -28565590.98649 -22207967.06149  19623317.3004   19623320.9764
  19696560.630   -26194577.26449 -20074311.11549  19696560.4354   19696564.9624
  21075302.924   -18733758.22749 -14557872.03249  21075302.4424   21075305.7924
  21868707.588   -32224241.62049 -25084419.26249  21868706.9294   21868711.8064
 97  1 15  3 11 29.9940000  0  6  7  4  9 24  5  2
  20822582.056   -31411314.84449 -24463486.94349  20822581.7474   20822585.8104
  18936548.929   -34546567.54749 -26895626.02849  18936549.0204   18936552.5314
  19617580.477   -28595739.12049 -22231459.11249  19617580.4124   19617583.8764
  19678002.624   -26292100.03649 -20150302.87549  19678002.5924   19678006.8544
  21055176.944   -18839520.71049 -14640284.34449  21055176.1754   21055180.0734
  21878821.647   -32171092.52449 -25043004.40749  21878820.6984   21878825.7784
 97  1 15  3 11 59.9940000  0  6  7  4  9 24  5  2
  20830486.911   -31369774.75349 -24431118.04149  20830486.6144   20830490.6834
  18933009.786   -34565165.88949 -26910118.23849  18933010.2404   18933013.2274
  19611956.275   -28625294.37049 -22254489.18549  19611956.0354   19611959.3254
  19659527.603   -26389186.83449 -20225954.91349  19659527.1334   19659531.7254
  21035069.372   -18945186.61449 -14722621.41349  21035068.7954   21035072.2064
  21888988.465   -32117665.69649 -25001373.13949  21888988.2194   21888992.3654
 97  1 15  3 12 29.9940000  0  6  7  4  9 24  5  2
  20838404.518   -31328167.59149 -24398696.87749  20838404.2234   20838408.1964
  18929583.031   -34583173.63849 -26924150.24449  18929583.2524   18929586.3294
  19606444.451   -28654259.28649 -22277059.25749  19606444.4414   19606447.6204
  19641139.878   -26485814.94249 -20301249.53649  19641139.9024   19641143.8514
  21014984.506   -19050733.62949 -14804865.83049  21014984.4094   21014987.3724
  21899209.789   -32063952.44949 -24959518.69249  21899209.7034   21899213.9664
 97  1 15  3 12 59.9940000  0  6  7  4  9 24  5  2
  20846331.895   -31286508.72549 -24366235.43149  20846331.1554   20846335.5194
  18926262.047   -34600625.52849 -26937749.11549  18926262.1514   18926265.3414
  19601037.933   -28682670.88549 -22299198.16849  19601037.9844   19601041.2304
  19622837.686   -26581993.80049 -20376194.09149  19622837.6624   19622841.7194
  20994921.150   -19156167.53649 -14887022.11149  20994920.3794   20994924.1834
  21909481.614   -32009973.69449 -24917457.35449  21909481.1024   21909485.7464
 97  1 15  3 13 29.9940000  0  6  7  4  9 24  5  2
  20854278.512   -31244748.72349 -24333695.17949  20854278.2644   20854281.8204
  18923051.774   -34617495.49449 -26950894.54449  18923052.0644   18923055.1064
  19595743.216   -28710495.07149 -22320879.35749  19595742.9294   19595746.1354
  19604627.758   -26677687.85449 -20450760.87649  19604627.5794   19604631.9294
  20974886.313   -19261451.31949 -14969061.42049  20974885.7294   20974889.0404
  21919807.124   -31955712.45049 -24875175.91349  21919806.2244   21919811.9574
 97  1 15  3 13 59.9940000  0  6  7  4  9 24  5  2
  20862238.317   -31202919.73949 -24301101.16349  20862237.9934   20862241.8524
  18919948.541   -34633803.08549 -26963601.74949  18919948.7024   18919952.0914
  19590556.339   -28737751.92949 -22342118.47349  19590556.3404   19590559.5014
  19586504.377   -26772926.84249 -20524973.06249  19586503.9554   19586508.4064
  20954875.334   -19366609.65049 -15051002.96149  20954874.6124   20954878.4594
  21930178.709   -31901209.26449 -24832705.93749  21930178.1144   21930182.4414
 97  1 15  3 14 29.9940000  0  6  7  4  9 24  5  2
  20870207.775   -31161040.19849 -24268467.76449  20870207.3764   20870211.2634
  18916951.260   -34649553.88849 -26975875.09749  18916951.4374   18916954.6464
  19585473.946   -28764460.36949 -22362930.25049  19585473.8694   19585477.2404
  19568461.745   -26867741.05549 -20598854.26349  19568461.6964   19568465.9574
  20934882.912   -19471669.99549 -15132868.17149  20934882.4724   20934886.0124
  21940593.860   -31846477.42249 -24790057.78849  21940594.1634   21940597.9524
 97  1 15  3 14 59.9940000  0  6  7  4  9 24  5  2
  20878187.136   -31119108.49049 -24235793.70749  20878186.4424   20878189.9864
  18914063.929   -34664727.04749 -26987698.33249  18914064.0464   18914067.2884
  19580496.269   -28790618.18849 -22383312.97249  19580496.1454   19580499.4314
  19550497.031   -26962146.42149 -20672416.87449  19550497.0234   19550501.1144
  20914904.925   -19576654.89049 -15214674.58149  20914904.3634   20914907.7114
  21951051.874   -31791520.88949 -24747234.55149  21951051.4034   21951055.5974
 97  1 15  3 15 29.9940000  0  6  7  4  9 24  5  2
  20886179.716   -31077107.07649 -24203065.34149  20886179.3894   20886183.0494
  18911295.506   -34679275.17949 -26999034.53649  18911295.5824   18911298.9474
  19575629.832   -28816191.51449 -22403240.24449  19575629.4644   19575633.2584
  19532616.681   -27056108.32649 -20745633.93349  19532616.3214   19532620.6724
  20894943.812   -19681551.15349 -15296411.93349  20894943.3124   20894946.8104
  21961557.016   -31736316.40549 -24704218.10449  21961556.4914   21961559.5804
 97  1 15  3 15 59.9940000  0  6  7  4  9 24  5  2
  20894179.599   -31035066.93849 -24170306.80249  20894179.0814   20894182.5564
  18908644.927   -34693204.01249 -27009888.17049  18908645.0874   18908648.2794
  19570871.080   -28841198.95349 -22422726.56749  19570871.0084   19570874.4524
  19514818.277   -27149639.34049 -20818515.23449  19514817.9734   19514822.3764
  20874993.880   -19786388.93749 -15378103.71249  20874993.6534   20874996.6204
  21972107.269   -31680874.49349 -24661016.63449  21972106.7874   21972110.5604
 97  1 15  3 16 29.9940000  0  6  7  4  9 24  5  2
  20902191.669   -30992963.50649 -24137498.94049  20902191.7544   20902195.5254
  18906115.413   -34706496.60649 -27020246.02849  18906115.5594   18906118.7084
  19566222.833   -28865625.45049 -22441760.20849  19566222.7264   19566226.3794
  19497104.960   -27242723.14849 -20891048.06349  19497104.7654   19497109.2014
  20855055.359   -19891166.48149 -15459748.55649  20855054.9964   20855058.1914
  21982706.045   -31625177.31749 -24617616.26249  21982705.2904   21982711.1104
 97  1 15  3 16 59.9940000  0  6  7  4  9 24  5  2
  20910214.610   -30950803.01949 -24104646.61049  20910214.2604   20910217.9604
  18903701.696   -34719180.86649 -27030129.86449  18903701.8104   18903704.8494
  19561683.740   -28889478.56949 -22460347.06349  19561683.7184   19561687.1624
  19479477.395   -27335356.58249 -20963229.95349  19479477.1794   19479481.5984
  20835128.604   -19995882.40349 -15541345.36549  20835127.8214   20835131.4744
  21993353.632   -31569223.97049 -24574016.30049  21993352.7794   21993355.8374
 97  1 15  3 17 29.9940000  0  6  7  4  9 24  5  2
  20918252.168   -30908565.72349 -24071734.43949  20918251.8164   20918255.6264
  18901403.891   -34731255.74149 -27039538.85549  18901404.0804   18901407.3834
  19557257.018   -28912741.14749 -22478473.75449  19557256.9534   19557260.4524
  19461940.316   -27427514.49049 -21035041.30049  19461940.1894   19461944.7894
  20815221.627   -20100494.44649 -15622861.24849  20815221.2424   20815224.7354
  22004053.316   -31512996.31149 -24530202.54549  22004052.8214   22004057.3894
 97  1 15  3 17 59.9940000  0  7  7  4 16  9 24  5  2
  20926302.962   -30866258.11649 -24038767.46849  20926302.6824   20926307.0384
  18899218.851   -34742738.38349 -27048486.36249  18899219.2234   18899222.1364
  22983334.652    -7645629.42349  -5747036.20849  22983333.8194   22983338.4464
  19552940.742   -28935423.71749 -22496148.48749  19552940.6614   19552944.1944
  19444489.491   -27519219.24149 -21106499.54049  19444489.1504   19444493.4934
  20795335.373   -20204997.35349 -15704292.08349  20795334.6894   20795338.8184
  22014804.150   -31456500.57649 -24486179.92249  22014803.5594   22014807.5014
 97  1 15  3 18 29.9940000  0  7  7  4 16  9 24  5  2
  20934365.858   -30823887.52249 -24005751.42249  20934365.5104   20934369.2174
  18897142.088   -34753651.99249 -27056990.46849  18897142.3214   18897145.4334
  22976386.377    -7682142.17949  -5775487.72549  22976385.9494   22976391.9184
  19548732.867   -28957536.38249 -22513379.14049  19548732.8644   19548736.1914
  19427125.427   -27610468.08249 -21177602.52549  19427125.2914   19427129.7464
  20775473.270   -20309373.40749 -15785624.06849  20775473.0794   20775476.2144
  22025605.789   -31399737.98549 -24441949.36649  22025605.4714   22025610.2694
 97  1 15  3 18 59.9940000  0  7  7  4 16  9 24  5  2
  20942436.900   -30781474.11249 -23972702.01749  20942436.6434   20942440.4234
  18895170.886   -34764010.59049 -27065062.10049  18895170.9454   18895174.2794
  22969531.980    -7718161.85549  -5803554.97649  22969529.4564   22969535.4624
  19544632.579   -28979083.88149 -22530169.40949  19544632.4534   19544635.7674
  19409847.760   -27701262.79849 -21248351.64549  19409847.6824   19409852.0764
  20755637.560   -20413610.86849 -15866848.06249  20755637.1914   20755640.1544
  22036455.074   -31342725.02049 -24397523.70349  22036454.3004   22036458.4234
 97  1 15  3 19 29.9940000  0  7  7  4 16  9 24  5  2
  20950507.224   -30739064.32649 -23939655.43549  20950506.7864   20950510.9204
  18893301.293   -34773835.27749 -27072717.69649  18893301.5004   18893304.5814
  22962764.057    -7753726.78349  -5831267.89549  22962762.4204   22962769.0954
  19540632.758   -29000103.10049 -22546548.02749  19540632.5324   19540635.8804
  19392649.611   -27791639.55649 -21318775.08749  19392649.4284   19392653.7254
  20735819.969   -20517752.90949 -15947997.70449  20735819.4114   20735823.1274
  22047341.073   -31285518.89249 -24352947.52549  22047340.1244   22047344.8414
 97  1 15  3 19 59.9940000  0  7  7  4 16  9 24  5  2
  20958583.501   -30696623.00649 -23906584.27749  20958582.7754   20958586.5214
  18891542.016   -34783080.41349 -27079921.69049  18891542.1974   18891545.6104
  22956087.136    -7788814.39149  -5858608.86149  22956086.4924   22956092.0184
  19536742.433   -29020546.97849 -22562478.32449  19536742.3354   19536745.7174
  19375540.448   -27881548.83449 -21388834.25649  19375540.3334   19375544.3034
  20716026.885   -20621766.07149 -16029046.91249  20716026.0944   20716029.7794
  22058270.660   -31228082.62249 -24308192.00549  22058269.7484   22058275.3164
 97  1 15  3 20 29.9940000  0  7  7  4 16  9 24  5  2
  20966664.738   -30654155.78749 -23873492.94049  20966664.0414   20966668.1744
  18889889.089   -34791766.62549 -27086690.16649  18889889.2924   18889892.5014
  22949494.571    -7823458.25449  -5885604.08149  22949493.4564   22949498.7244
  19532958.513   -29040431.68849 -22577972.90949  19532958.3244   19532961.7994
  19358517.219   -27971006.40749 -21458541.45149  19358517.0084   19358521.3464
  20696253.990   -20725673.29349 -16110013.57549  20696253.8224   20696257.4964
  22069240.539   -31170434.19449 -24263271.17749  22069240.0534   22069245.5374
 97  1 15  3 20 59.9940000  0  7  7  4 16  9 24  5  2
  20974751.646   -30611658.85849 -23840378.44949  20974751.4224   20974755.2354
  18888343.132   -34799890.58349 -27093020.51649  18888343.3224   18888346.4504
  22942984.568    -7857668.21649  -5912261.20349  22942984.3324   22942989.7044
  19529278.918   -29059767.85249 -22593040.05249  19529278.8824   19529282.2434
  19341575.767   -28060034.31249 -21527913.83449  19341575.4964   19341579.8114
  20676496.850   -20829497.99949 -16190915.94449  20676496.7494   20676499.8124
  22080248.131   -31112589.62049 -24218197.50849  22080246.6634   22080252.2184
 97  1 15  3 21 29.9940000  0  7  7  4 16  9 24  5  2
  20982852.611   -30569088.17049 -23807206.47949  20982851.9044   20982856.1674
  18886910.921   -34807416.82649 -27098885.11649  18886911.3034   18886914.1694
  22936564.683    -7891406.00449  -5938550.35549  22936564.9374   22936567.3924
  19525707.688   -29078534.88549 -22607663.72049  19525707.4244   19525710.9484
  19324720.669   -28148608.09149 -21596932.35549  19324720.5044   19324724.8684
  20656758.091   -20933226.03049 -16271742.97549  20656757.5744   20656761.2614
  22091301.042   -31054505.78049 -24172937.39949  22091299.8614   22091304.4604
 97  1 15  3 21 59.9940000  0  7  7  4 16  9 24  5  2
  20990964.073   -30526462.33749 -23773991.55249  20990963.4484   20990968.1934
  18885585.064   -34814384.40649 -27104314.39449  18885585.3514   18885588.4674
  22930232.019    -7924685.24349  -5964482.21749  22930231.6114   22930237.1784
  19522240.926   -29096753.06249 -22621859.70749  19522240.7744   19522244.1794
  19307947.743   -28236750.34149 -21665614.61949  19307947.3564   19307952.0124
  20637033.256   -21036880.87049 -16352512.97749  20637032.5204   20637036.2914
  22102398.096   -30996190.13949 -24127496.68049  22102397.3994   22102403.1184
 97  1 15  3 22 29.9940000  0  7  7  4 16  9 24  5  2
  20999091.805   -30483750.74549 -23740709.80449  20999091.5414   20999095.5304
  18884371.082   -34820763.95149 -27109285.46649  18884371.3424   18884374.3634
  22923998.399    -7957443.68149  -5990008.27549  22923998.5964   22924001.3004
  19518882.540   -29114401.44949 -22635611.70349  19518882.4094   19518885.9114
  19291261.765   -28324435.65049 -21733940.82949  19291261.4484   19291265.9864
  20617330.030   -21140422.04049 -16433194.40549  20617329.3204   20617333.1234
  22113547.545   -30937599.62249 -24081841.76449  22113547.2504   22113552.2954
 97  1 15  3 22 59.9940000  0  7  7  4 16  9 24  5  2
  21007226.671   -30441002.00549 -23707399.11149  21007226.1704   21007229.9684
  18883264.895   -34826576.99549 -27113815.10749  18883265.1384   18883268.2764
  22917860.772    -7989697.56449  -6015141.15049  22917860.1364   22917866.5874
  19515628.508   -29131501.39649 -22648936.34549  19515628.2824   19515631.6714
  19274659.568   -28411680.42749 -21801923.76649  19274659.5414   19274664.0354
  20597646.325   -21243860.57849 -16513795.86249  20597645.9664   20597649.5284
  22124745.329   -30878754.65649 -24035988.58949  22124745.3684   22124749.7364
 97  1 15  3 23 29.9940000  0  7  7  4 16  9 24  5  2
  21015374.893   -30398182.18649 -23674033.01949  21015374.8894   21015378.6824
  18882276.452   -34831771.37449 -27117862.66849  18882276.8124   18882279.7734
  22911828.521    -8021397.93549  -6039842.74149  22911828.6114   22911831.5614
  19512489.553   -29147996.87949 -22661789.96949  19512489.2454   19512492.9844
  19258153.967   -28498418.27549 -21869511.68749  19258153.6584   19258157.9064
  20577995.023   -21347128.73749 -16594264.55649  20577994.7214   20577997.9364
  22136001.917   -30819600.60749 -23989894.54349  22136001.1654   22136006.6364
 97  1 15  3 23 59.9940000  0  7  7  4 16  9 24  5  2
  21023530.178   -30355326.31049 -23640638.83149  21023529.8134   21023533.7844
  18881397.296   -34836391.79649 -27121462.99549  18881397.6704   18881400.6674
  22905896.049    -8052573.89349  -6064135.67349  22905894.8194   22905900.4474
  19509460.462   -29163914.56249 -22674193.36449  19509460.0524   19509463.5244
  19241741.070   -28584668.56049 -21936719.69649  19241741.1904   19241745.3664
  20558374.899   -21450232.85949 -16674605.42349  20558374.1144   20558378.1754
  22147310.715   -30760172.60649 -23943587.05149  22147309.7564   22147316.6104
 97  1 15  3 24 29.9940000  0  7  7  4 16  9 24  5  2
  21031691.606   -30312438.11349 -23607219.46249  21031691.1234   21031695.2294
  18880627.957   -34840434.70849 -27124613.31249  18880628.2234   18880631.3274
  22900058.759    -8083247.66649  -6088037.31749  22900058.4594   22900062.6444
  19506539.885   -29179262.31149 -22686152.65949  19506539.6844   19506543.1404
  19225419.164   -28670440.95549 -22003555.31949  19225418.9894   19225423.3834
  20538787.260   -21553166.26749 -16754813.27749  20538786.8744   20538790.6314
  22158668.695   -30700486.00149 -23897078.04549  22158668.2634   22158673.8024
 97  1 15  3 24 59.9940000  0  7  7  4 16  9 24  5  2
  21039866.543   -30269478.70749 -23573744.61149  21039865.9844   21039870.3094
  18879975.962   -34843861.01649 -27127283.15949  18879976.2044   18879979.3144
  22894316.302    -8113424.06249  -6111551.38949  22894313.9564   22894320.7454
  19503734.129   -29194006.75849 -22697641.84349  19503733.9864   19503737.3394
  19209194.618   -28755701.54549 -22069992.13349  19209194.6414   19209198.8304
  20519235.653   -21655910.61949 -16834873.81249  20519235.2794   20519238.9124
  22170078.444   -30640527.19149 -23850356.92349  22170078.2744   22170083.7714
 97  1 15  3 25 29.9940000  0  7  7  4 16  9 24  5  2
  21048049.830   -30226475.10349 -23540235.31249  21048048.7294   21048053.2904
  18879432.397   -34846717.48649 -27129508.97649  18879432.5914   18879435.7214
  22888660.676    -8143143.40649  -6134709.30249  22888659.3914   22888664.9844
  19501033.676   -29208197.62549 -22708699.66849  19501033.6654   19501036.9724
  19193059.929   -28840490.05449 -22136061.08749  19193059.7814   19193063.8164
  20499708.062   -21758528.63049 -16914835.89249  20499707.6384   20499711.0894
  22181529.941   -30580349.86749 -23803465.54049  22181529.8364   22181534.5434
 97  1 15  3 25 59.9940000  0  7  7  4 16  9 24  5  2
  21056235.533   -30183458.57349 -23506715.93549  21056234.8924   21056239.2824
  18878986.554   -34849060.49549 -27131334.69849  18878986.7094   18878989.6964
  22883086.108    -8172437.47549  -6157535.85349  22883085.8594   22883090.9954
  19498431.520   -29221872.18849 -22719355.18449  19498431.0774   19498434.6254
  19177006.849   -28924849.50349 -22201795.71549  19177006.6754   19177011.0244
  20480194.145   -21861075.12049 -16994742.24249  20480193.7574   20480197.3674
  22193014.747   -30519997.47249 -23756437.72349  22193013.8664   22193019.4384
 97  1 15  3 26 29.9940000  0  7  7  4 16  9 24  5  2
  21064447.953   -30140301.99749 -23473087.44049  21064448.0064   21064452.3824
  18878666.085   -34850744.65749 -27132647.02649  18878666.3814   18878669.3064
  22877615.867    -8201184.28049  -6179935.94049  22877615.4864   22877620.2904
  19495952.710   -29234897.96449 -22729505.14149  19495952.5734   19495956.0094
  19161059.534   -29008653.34749 -22267097.39949  19161059.4554   19161063.7324
  20460715.491   -21963436.01549 -17074503.97549  20460714.8624   20460718.5834
  22204554.863   -30459353.71149 -23709182.86749  22204554.7974   22204559.9134
 97  1 15  3 26 59.9940000  0  7  7  4 16  9 24  5  2
  21072665.698   -30097117.73849 -23439437.37849  21072665.3474   21072669.1824
  18878449.728   -34851881.55049 -27133532.91849  18878450.0214   18878452.8294
  22872231.979    -8229476.70949  -6201981.98449  22872230.8544   22872235.7464
  19493576.722   -29247384.23249 -22739234.70949  19493576.8684   19493580.0984
  19145200.991   -29091990.53149 -22332035.45649  19145200.7634   19145205.2344
  20441249.412   -22065730.66349 -17154214.09349  20441248.9184   20441252.2824
  22216130.168   -30398524.76249 -23661783.70849  22216129.9034   22216134.8674
 97  1 15  3 27 29.9940000  0  7  7  4 16  9 24  5  2
  21080897.814   -30053857.70149 -23405728.25549  21080897.2884   21080901.9624
  18878343.803   -34852438.17149 -27133966.64649  18878344.0144   18878347.1574
  22866948.499    -8257240.18349  -6223615.86149  22866947.6424   22866952.2784
  19491314.610   -29259272.03449 -22748497.93749  19491314.6644   19491317.8474
  19129441.862   -29174805.22549 -22396566.38049  19129441.7234   19129445.9264
  20421807.066   -22167901.01449 -17233827.34849  20421806.9274   20421810.0594
  22227752.854   -30337447.57749 -23614191.12849  22227752.2274   22227757.4064
 97  1 15  3 27 59.9940000  0  7  7  4 16  9 24  5  2
  21089153.359   -30010475.12649 -23371923.66349  21089153.0934   21089156.9254
  18878356.986   -34852369.17649 -27133912.88149  18878357.2354   18878360.2504
  22861771.678    -8284444.45449  -6244813.96549  22861770.9754   22861776.5394
  19489175.096   -29270515.52749 -22757259.10849  19489174.9854   19489178.4714
  19113789.050   -29257061.16349 -22460661.90949  19113788.8094   19113793.1734
  20402401.716   -22269877.24549 -17313289.34549  20402401.4214   20402404.8284
  22239430.313   -30276081.79849 -23566373.64149  22239429.7134   22239434.7934
 97  1 15  3 28 29.9940000  0  7  7  4 16  9 24  5  2
  21097436.889   -29966944.97149 -23338004.07149  21097436.4194   21097440.2584
  18878497.684   -34851629.87849 -27133336.80249  18878497.9284   18878500.8484
  22856704.660    -8311071.91249  -6265562.63349  22856703.7634   22856708.2264
  19487162.214   -29281093.40349 -22765501.61649  19487162.1184   19487165.3694
  19098248.268   -29338728.38049 -22524298.69249  19098248.0784   19098252.5424
  20383041.929   -22371613.27149 -17392564.17449  20383041.4844   20383045.2834
  22251167.474   -30214403.53449 -23518312.68649  22251167.6674   22251170.2424
 97  1 15  3 28 59.9940000  0  7  7  4 16  9 24  5  2
  21105729.726   -29923365.18149 -23304045.80449  21105729.2184   21105732.9104
  18878746.718   -34850321.35149 -27132317.17049  18878746.9054   18878749.8594
  22851733.402    -8337196.94149  -6285919.79149  22851732.9944   22851737.4624
  19485258.644   -29291097.01449 -22773296.64849  19485258.6464   19485261.8994
  19082802.625   -29419895.74049 -22587545.98149  19082802.5014   19082806.9834
  20363711.988   -22473192.95849 -17471717.17649  20363711.4664   20363715.0714
  22262950.711   -30152483.09849 -23470063.01649  22262951.0104   22262953.8784
 97  1 15  3 29 29.9940000  0  7  7  4 16  9 24  5  2
  21114026.041   -29879768.31049 -23270074.22949  21114025.5844   21114029.6184
  18879097.342   -34848478.85649 -27130881.45549  18879097.6334   18879100.6254
  22846852.429    -8362846.87949  -6305906.74049  22846851.3244   22846855.9414
  19483459.312   -29300552.41149 -22780664.49749  19483459.4424   19483462.6064
  19067444.567   -29500602.87449 -22650434.64849  19067444.3434   19067448.6254
  20344410.070   -22574625.65949 -17550755.64649  20344409.5684   20344413.2774
  22274773.592   -30090353.79149 -23421650.58749  22274773.6854   22274778.3094
 97  1 15  3 29 59.9940000  0  7  7  4 16  9 24  5  2
  21122325.186   -29836156.29749 -23236090.84749  21122324.5894   21122328.5194
  18879552.767   -34846085.61749 -27129016.59049  18879553.1074   18879555.9144
  22842063.965    -8388010.32049  -6325514.59249  22842063.1294   22842068.2834
  19481764.334   -29309459.72649 -22787605.26749  19481764.1754   19481767.7394
  19052176.985   -29580834.33449 -22712952.65849  19052177.0224   19052181.2514
  20325138.848   -22675896.75649 -17629668.18549  20325138.4594   20325142.1214
  22286637.299   -30028009.67849 -23373070.78749  22286637.3724   22286641.3914
 97  1 15  3 30 29.9940000  0  7  7  4 16  9 24  5  2
  21130619.747   -29792567.99049 -23202125.93549  21130619.1274   21130622.9494
  18880108.014   -34843167.80749 -27126742.96849  18880108.3234   18880111.2074
  22837368.763    -8412683.23049  -6344740.23049  22837369.3684   22837373.5044
  19480169.944   -29317838.16549 -22794133.92749  19480169.7594   19480173.3414
  19036996.288   -29660609.48149 -22775115.10349  19036996.1624   19037000.5384
  20305889.881   -22777051.04349 -17708489.70549  20305889.5954   20305892.7044
  22298539.692   -29965461.57849 -23324332.05649  22298537.6344   22298544.2694
 97  1 15  3 30 59.9930000  0  7  7  4 16  9 24  5  2
  21138917.721   -29748961.37249 -23168146.76449  21138916.5734   21138920.9484
  18880767.772   -34839700.89249 -27124041.47549  18880767.9864   18880770.8074
  22832777.552    -8436811.08349  -6363541.15149  22832777.8974   22832781.8744
  19478684.155   -29325646.12449 -22800218.05649  19478684.1684   19478687.4354
  19021908.723   -29739895.20049 -22836896.17349  19021908.6874   19021912.8654
  20286669.255   -22878056.11049 -17787194.95549  20286669.0614   20286672.0844
  22310489.364   -29902665.35849 -23275399.96449  22310487.8414   22310494.1184
 97  1 15  3 31 29.9930000  0  7  7  4 16  9 24  5  2
  21147219.424   -29705335.37349 -23134152.48449  21147218.7554   21147222.8214
  18881530.945   -34835690.37549 -27120916.38949  18881531.2284   18881534.1454
  22828286.151    -8460413.12449  -6381932.33849  22828285.5374   22828291.3794
  19477304.848   -29332894.57649 -22805866.20749  19477304.5234   19477308.2714
  19006910.890   -29818709.36549 -22898309.79549  19006910.7004   19006915.0384
  20267475.841   -22978918.21249 -17865788.80349  20267475.5994   20267478.7234
  22322481.322   -29839646.55849 -23226294.44249  22322481.9374   22322485.0654
 97  1 15  3 31 59.9930000  0  7  7  4 16  9 24  5  2
  21155528.904   -29661668.15449 -23100126.07549  21155527.8334   21155532.2014
  18882401.352   -34831116.36149 -27117352.22149  18882401.5854   18882404.4254
  22823896.122    -8483481.66149  -6399907.81949  22823896.5754   22823900.9284
  19476032.606   -29339579.99249 -22811075.62849  19476031.9344   19476035.9904
  18992005.071   -29897040.16549 -22959346.77649  18992005.0194   18992008.9904
  20248309.443   -23079638.23749 -17944271.94449  20248308.9974   20248312.4204
  22334517.982   -29776394.19449 -23177006.91049  22334517.5854   22334523.5724
 97  1 15  3 32 29.9930000  0  7  7  4 16  9 24  5  2
  21163846.469   -29617959.01149 -23066067.01849  21163846.8344   21163849.7574
  18883375.261   -34825998.49049 -27113364.26449  18883375.5214   18883378.3414
  22819604.559    -8506034.12249  -6417481.16249  22819604.1774   22819609.0094
  19474865.796   -29345711.23249 -22815853.22749  19474865.9214   19474869.2474
  18977186.258   -29974913.56549 -23020027.34149  18977186.1574   18977190.3744
  20229167.895   -23180227.76749 -18022653.39849  20229167.6094   20229170.6414
  22346595.084   -29712929.40249 -23127553.85049  22346595.0244   22346600.1164
 97  1 15  3 32 59.9930000  0  7  7  4 16  9 24  5  2
  21172172.410   -29574205.95349 -23031973.72749  21172171.4414   21172175.3124
  18884450.243   -34820349.33349 -27108962.32149  18884450.6374   18884453.4194
  22815405.697    -8528099.80249  -6434675.17149  22815404.9844   22815410.7334
  19473801.017   -29351306.90549 -22820213.49749  19473801.0584   19473804.2794
  18962454.556   -30052329.24249 -23080351.23749  18962454.4464   18962458.5204
  20210053.363   -23280675.41149 -18100924.28649  20210053.0814   20210056.1954
  22358709.897   -29649265.74449 -23077945.84349  22358709.4884   22358715.6484
 97  1 15  3 33 29.9930000  0  7  7  4 16  9 24  5  2
  21180501.780   -29530434.51149 -22997866.12449  21180501.9244   21180505.6794
  18885622.056   -34814191.60149 -27104164.08449  18885622.2864   18885625.1844
  22811292.956    -8549711.51349  -6451515.47249  22811291.7414   22811298.3634
  19472832.878   -29356394.74449 -22824178.05849  19472832.8784   19472836.2924
  18947809.482   -30129289.61949 -23140320.35249  18947809.1954   18947813.2494
  20190962.611   -23380997.96949 -18179097.70949  20190961.8784   20190965.4214
  22370858.168   -29585426.94649 -23028201.35549  22370857.7974   22370863.0794
 97  1 15  3 33 59.9930000  0  7  7  4 16  9 24  5  2
  21188845.005   -29486590.65349 -22963702.08449  21188844.8484   21188848.7954
  18886899.760   -34807477.18949 -27098932.07249  18886899.9414   18886902.7374
  22807277.002    -8570815.78849  -6467960.35549  22807277.0414   22807281.3354
  19471972.426   -29360916.70149 -22827701.66849  19471972.2944   19471975.9794
  18933264.498   -30205723.88149 -23199879.51049  18933264.2244   18933268.5924
  20171906.156   -23481140.11149 -18257130.54149  20171905.5404   20171909.5194
  22383053.045   -29521343.16749 -22978265.97549  22383053.2954   22383057.3634
 97  1 15  3 34 29.9930000  0  7  7  4 16  9 24  5  2
  21197189.605   -29442739.58749 -22929532.42449  21197189.6914   21197193.5074
  18888272.226   -34800264.70849 -27093311.95049  18888272.1214   18888275.3244
  22803348.099    -8591462.52049  -6484048.70749  22803346.9714   22803352.5214
  19471211.175   -29364917.02149 -22830818.80849  19471210.6714   19471214.4874
  18918813.108   -30281666.26249 -23259055.38349  18918812.9384   18918817.2234
  20152878.542   -23581130.94049 -18335045.47049  20152877.8034   20152881.6244
  22395286.406   -29457056.80449 -22928172.73149  22395285.9364   22395290.9884
 97  1 15  3 34 59.9930000  0  7  7  4 16  9 24  5  2
  21205534.099   -29398889.57249 -22895363.60149  21205533.4854   21205537.8544
  18889740.760   -34792547.16349 -27087298.27849  18889740.8654   18889743.9614
  22799503.727    -8611664.54149  -6499790.53549  22799503.4824   22799508.4314
  19470548.743   -29368397.89649 -22833531.18749  19470548.4904   19470552.1164
  18904459.315   -30357095.79249 -23317831.63449  18904459.1154   18904463.4054
  20133881.787   -23680959.51749 -18412833.97249  20133881.5144   20133884.5824
  22407560.039   -29392558.61549 -22877914.43349  22407559.8594   22407564.7394
 97  1 15  3 35 29.9930000  0  7  7  4 16  9 24  5  2
  21213874.556   -29355060.34849 -22861210.96049  21213874.7904   21213878.5304
  18891304.768   -34784328.10949 -27080893.81749  18891304.9424   18891307.9624
  22795743.421    -8631425.88649  -6515188.99249  22795742.6164   22795748.2594
  19469984.330   -29371364.10849 -22835842.52349  19469984.2504   19469987.6224
  18890199.621   -30432031.04749 -23376222.73049  18890199.5474   18890203.3394
  20114913.478   -23780638.84749 -18490506.16849  20114912.7764   20114916.7744
  22419869.591   -29327871.82349 -22827509.17749  22419869.7574   22419874.3524
 97  1 15  3 35 59.9930000  0  7  7  4 16  9 24  5  2
  21222204.582   -29311285.04949 -22827100.32549  21222204.3444   21222208.5794
  18892958.923   -34775635.15949 -27074120.08749  18892958.9274   18892962.3204
  22792060.739    -8650777.44349  -6530268.12849  22792060.4454   22792065.5794
  19469511.892   -29373847.12049 -22837777.34449  19469511.9874   19469515.2924
  18876025.879   -30506514.61149 -23434261.86349  18876025.8094   18876029.9434
  20095964.586   -23880215.75549 -18568098.55449  20095964.0644   20095967.6174
  22432207.033   -29263038.04349 -22776989.37849  22432206.3674   22432211.5804
 97  1 15  3 36 29.9930000  0  7  7  4 16  9 24  5  2
  21230534.214   -29267512.48349 -22792991.84849  21230533.4484   21230537.4544
  18894712.516   -34766419.90349 -27066939.37049  18894712.5934   18894716.0514
  22788464.961    -8669673.66349  -6544992.45149  22788464.7044   22788469.0404
  19469138.711   -29375808.51749 -22839305.71349  19469138.6564   19469141.9934
  18861942.992   -30580520.65849 -23491928.90549  18861942.8494   18861947.0134
  20077041.387   -23979657.95149 -18645585.97849  20077040.7744   20077044.5714
  22444578.904   -29198023.80449 -22726328.97349  22444578.5924   22444583.3554
 97  1 15  3 36 59.9930000  0  7  7  4 16  9 24  5  2
  21238871.037   -29223702.53149 -22758854.22049  21238870.7364   21238874.0754
  18896571.179   -34756652.15549 -27059328.13549  18896571.3064   18896574.6854
  22784962.477    -8688080.41849  -6559335.34549  22784962.7394   22784965.9714
  19468869.184   -29377225.03349 -22840409.50049  19468868.9324   19468872.3564
  18847953.125   -30654037.84249 -23549215.01649  18847952.8844   18847957.0784
  20058144.861   -24078959.80449 -18722964.03849  20058144.4964   20058147.4384
  22456987.551   -29132816.65949 -22675518.24449  22456987.3314   22456992.4694
 97  1 15  3 37 29.9930000  0  7  7  4 16  9 24  5  2
  21247218.796   -29179834.43349 -22724671.29949  21247218.5774   21247222.7774
  18898534.305   -34746335.79649 -27051289.41249  18898534.6174   18898537.6154
  22781558.071    -8705970.82049  -6573275.90249  22781557.4864   22781562.3274
  19468704.963   -29378088.12849 -22841082.05249  19468704.9464   19468708.4374
  18834057.517   -30727059.91849 -23606115.32349  18834057.3234   18834061.5214
  20039273.828   -24178127.72349 -18800237.73749  20039273.2204   20039276.6844
  22469433.731   -29067412.09849 -22624553.68249  22469432.3164   22469437.2914
 97  1 15  3 37 59.9930000  0  7  7  4 16  9 24  5  2
  21255585.033   -29135869.55649 -22690412.94549  21255584.1054   21255589.1134
  18900605.582   -34735451.32549 -27042808.00249  18900605.8834   18900608.9854
  22778256.028    -8723323.39849  -6586797.40149  22778255.6924   22778259.4034
  19468651.059   -29378371.36049 -22841302.75949  19468650.8044   19468654.5104
  18820261.944   -30799556.11749 -23662605.86149  18820261.7744   18820265.8134
  20020434.038   -24277131.67249 -18877383.66649  20020433.7224   20020436.9634
  22481923.884   -29001775.63149 -22573408.42049  22481924.7874   22481927.6434
 97  1 15  3 38 29.9930000  0  7  7  4 16  9 24  5  2
  21263949.758   -29091912.26549 -22656160.51649  21263950.0244   21263953.9604
  18902763.962   -34724109.08949 -27033969.89449  18902764.1494   18902767.4564
  22775039.288    -8740227.43949  -6599969.37849  22775039.9984   22775044.2754
  19468687.160   -29378181.44249 -22841154.77549  19468687.0184   19468690.4894
  18806547.088   -30871628.08349 -23718765.82349  18806546.7494   18806551.0404
  20001612.649   -24376039.01049 -18954454.31649  20001612.2724   20001615.4684
  22494439.836   -28936004.08049 -22522157.90949  22494438.7244   22494444.5844
 97  1 15  3 38 59.9930000  0  7  7  4 16  9 24  5  2
  21272320.356   -29047924.30749 -22621884.17649  21272320.3794   21272325.0364
  18905016.560   -34712271.52749 -27024745.81749  18905016.7294   18905019.8084
  22771919.617    -8756623.49049  -6612745.49649  22771919.3084   22771922.7454
  19468823.094   -29377466.96649 -22840598.04549  19468822.9444   19468826.6694
  18792925.520   -30943209.89149 -23774543.84849  18792925.1694   18792929.2774
  19982823.036   -24474779.12349 -19031394.66649  19982822.6604   19982825.7554
  22506991.818   -28870043.40749 -22470760.04549  22506990.7654   22506995.5144
 97  1 15  3 39 29.9930000  0  7  7  4 16  9 24  5  2
  21280697.190   -29003903.98649 -22587582.63949  21280697.3304   21280701.2254
  18907364.657   -34699932.06149 -27015130.64949  18907364.8844   18907367.9924
  22768897.753    -8772503.92349  -6625119.84549  22768895.6924   22768901.3434
  19469062.163   -29376210.88949 -22839619.29549  19469062.2394   19469065.5414
  18779399.711   -31014288.27349 -23829929.59149  18779399.6724   18779403.7284
  19964070.690   -24573323.56749 -19108182.54349  19964070.2824   19964073.2874
  22519583.266   -28803874.96849 -22419200.23549  22519582.1084   22519587.4684
 97  1 15  3 39 59.9930000  0  6  7  4 16  9 24  5
  21289076.943   -28959868.38749 -22553269.19449  21289077.1894   21289080.3834
  18909810.388   -34687079.76249 -27005115.86949  18909810.7704   18909813.5894
  22765972.714    -8787873.57049  -6637096.21149  22765971.0064   22765976.5794
  19469403.327   -29374418.07649 -22838222.30149  19469402.9834   19469406.5124
  18765967.256   -31084876.29749 -23884933.23849  18765966.9914   18765971.1974
  19945357.758   -24671660.83649 -19184808.98549  19945357.3864   19945360.5384
 97  1 15  3 40 29.9930000  0  6  7  4 16  9 24  5
  21297461.363   -28915807.87649 -22518936.34049  21297460.6754   21297465.2644
  18912357.523   -34673694.47449 -26994685.77149  18912357.7774   18912360.7764
  22763152.407    -8802693.05049  -6648643.84249  22763150.7394   22763157.1484
  19469850.249   -29372069.35649 -22836392.13549  19469849.9434   19469853.3794
  18752633.062   -31154947.68149 -23939534.30649  18752633.0324   18752637.1334
  19926688.329   -24769769.44649 -19261257.25149  19926687.7214   19926690.8614
 97  1 15  3 40 59.9930000  0  7  7  4 16  9 24  5 30
  21305849.194   -28871729.53649 -22484589.60049  21305849.2574   21305852.7834
  18915004.588   -34659783.94149 -26983846.39349  18915004.8854   18915007.8024
  22760431.831    -8816990.04749  -6659784.33849  22760430.6624   22760434.1554
  19470401.350   -29369173.02349 -22834135.26249  19470401.1724   19470404.7784
  18739394.101   -31224518.86049 -23993745.60849  18739393.9874   18739397.8834
  19908055.120   -24867687.38249 -19337556.94249  19908054.2114   19908057.9204
  22686292.384    -5015163.81649  -3879483.64949  22686292.7964   22686295.0484
 97  1 15  3 41 29.9930000  0  7  7  4 16  9 24  5 30
  21314236.406   -28827654.51449 -22450245.43249  21314236.4314   21314240.6264
  18917747.868   -34645368.02749 -26972613.21049  18917748.1654   18917751.0474
  22757803.044    -8830804.54549  -6670548.90549  22757802.7714   22757808.4724
  19471049.760   -29365765.61549 -22831480.14449  19471049.5634   19471053.2544
  18726244.529   -31293620.39649 -24047590.95349  18726244.4914   18726248.4214
  19889450.952   -24965452.63849 -19413737.65749  19889450.5904   19889453.4934
  22662832.097    -5138448.26849  -3975549.44749  22662832.3284   22662835.1294
 97  1 15  3 41 59.9930000  0  7  7  4 16  9 24  5 30
  21322622.642   -28783584.76449 -22415905.36949  21322623.3954   21322626.4284
  18920586.746   -34630449.51949 -26960988.39949  18920586.8104   18920589.7934
  22755266.490    -8844133.75049  -6680935.27049  22755265.9874   22755270.6054
  19471792.512   -29361862.45549 -22828438.72949  19471792.2994   19471796.0644
  18713187.190   -31362237.25549 -24101058.62849  18713187.1504   18713191.3044
  19870874.271   -25063073.54949 -19489805.89649  19870873.4414   19870876.8664
  22639364.793                    -4071644.23849  22639364.784    22639367.5084
 97  1 15  3 42 29.9930000  0  7  7  4 16  9 24  5 30
  21331013.545   -28739490.69249 -22381546.35649  21331012.4274   21331017.0254
  18923521.535   -34615026.84549 -26948970.72949  18923521.8084   18923524.9214
  22752827.157    -8856951.54249  -6690923.15149  22752824.3274   22752831.3954
  19472633.190   -29357444.57949 -22824996.23349  19472632.8874   19472636.4734
  18700228.007   -31430338.23849 -24154124.32349  18700227.8124   18700231.9554
  19852329.099   -25160528.88849 -19565745.11549  19852328.3694   19852331.9134
  22615894.095                                    22615893.553    22615896.7124
 97  1 15  3 42 59.9930000  0  7  7  4 16  9 24  5 30
  21339404.823   -28695393.89849 -22347185.23449  21339405.2374   21339408.9674
  18926547.945   -34599123.11149 -26936578.20449  18926548.0034   18926551.1794
  22750478.028    -8869293.60149  -6700540.34349  22750478.8114   22750481.9584
  19473567.967   -29352532.37649 -22821168.55049  19473567.7604   19473571.5434
  18687362.467   -31497947.01749 -24206806.48249  18687362.1884   18687366.4154
  19833811.558   -25257839.08049 -19641571.23149  19833811.0584   19833814.6294
  22592412.325    -5508506.40159  -4263906.51559  22592411.2294   22592414.6464
 97  1 15  3 43 29.9930000  0  7  7  4 16  9 24  5 30
  21347794.873   -28651304.35949 -22312829.76749  21347794.7494   21347799.2754
  18929665.465   -34582740.61649 -26923812.62249  18929665.8454   18929668.6484
  22748221.228    -8881153.86749  -6709782.09749  22748220.5954   22748226.7454
  19474595.891   -29347130.91849 -22816959.63349  19474595.8084   19474599.4814
  18674591.802   -31565057.08749 -24259100.03649  18674591.5694   18674595.9794
  19815325.159   -25354985.85649 -19717270.01749  19815324.8364   19815328.3784
  22568919.435                    -4360105.71859  22568918.233    22568921.0364
 97  1 15  3 43 59.9930000  0  7  7  4 16  9 24  5 30
  21356178.429   -28607248.89449 -22278500.83949  21356178.1464   21356182.3504
  18932868.821   -34565907.01449 -26910695.52349  18932869.1274   18932872.0574
  22746054.067    -8892542.66649  -6718656.45449  22746053.6954   22746059.3054
  19475714.104   -29341254.72349 -22812380.78249  19475713.8244   19475717.1544
  18661911.382   -31631693.15749 -24311024.23649  18661911.3684   18661915.3044
  19796867.776   -25451980.11749 -19792849.95149  19796867.3644   19796870.6724
  22545413.495    -5755486.37659  -4456358.48049  22545413.7254   22545416.6454
 97  1 15  3 44 29.9930000  0  6  7  4  9 24  5 30
  21364553.614   -28563236.98149 -22244205.85449  21364553.8974   21364557.2804
  18936156.921   -34548627.96249 -26897231.32849  18936157.0414   18936159.9834
  19476923.392   -29334899.84549 -22807428.93749  19476923.3674   19476927.0494
  18649315.699   -31697883.91449 -24362601.44249  18649315.4384   18649319.6374
  19778438.787   -25548825.20749 -19868313.65849  19778438.3724   19778441.6304
  22521890.569    -5879099.79849  -4552680.67949  22521889.9704   22521893.5614
 97  1 15  3 44 59.9930000  0  6  7  4  9 24  5 30
  21372926.218   -28519239.43349 -22209922.05549  21372926.2314   21372930.4634
  18939536.861   -34530866.07249 -26883390.89449  18939536.9614   18939539.9824
  19478229.029   -29328038.90249 -22802082.75649  19478228.9334   19478232.6054
  18636808.236   -31763610.73049 -24413817.14149  18636807.8564   18636812.2824
  19760042.666   -25645497.59449 -19943642.78849  19760042.3274   19760045.7094
  22498354.366    -6002783.88849  -4649057.89449  22498355.6624   22498356.8194
 97  1 15  3 45 29.9930000  0  6  7  4  9 24  5 30
  21381304.829   -28475209.81149 -22175613.27349  21381304.5914   21381308.9404
  18943013.799   -34512594.49849 -26869153.30349  18943014.1044   18943017.0214
  19479636.056   -29320645.14349 -22796321.38949  19479636.1884   19479639.5864
  18624396.617   -31828834.15349 -24464640.57949  18624396.5394   18624400.9574
  19741686.202   -25741961.21949 -20018809.24849  19741685.8254   19741689.2084
  22474814.338    -6126486.47749  -4745449.53649  22474814.1904   22474816.8474
 97  1 15  3 45 59.9930000  0  6  7  4  9 24  5 30
  21389682.039   -28431187.28049 -22141310.01249  21389681.0324   21389686.0414
  18946578.929   -34493859.79249 -26854554.82349  18946579.1464   18946582.2784
  19481136.414   -29312760.88949 -22790177.82049  19481136.2604   19481139.7324
  18612072.722   -31893596.61749 -24515104.82649  18612072.6704   18612076.9534
  19723358.202   -25838275.54149 -20093859.36349  19723357.9534   19723361.3414
  22451262.079    -6250253.78449  -4841891.58149  22451261.8054   22451263.5024
 97  1 15  3 46 29.9930000  0  6  7  4  9 24  5 30
  21398070.818   -28387103.77549 -22106959.23349  21398069.9744   21398074.1714
  18950244.898   -34474595.07449 -26839543.35249  18950245.2184   18950248.0364
  19482741.265   -29304327.41149 -22783606.28849  19482740.9894   19482744.3864
  18599848.711   -31957834.07449 -24565159.97949  18599848.6934   18599852.8874
  19705069.858   -25934381.79649 -20168747.35049  19705069.5344   19705072.8394
  22427707.359    -6374033.88349  -4938343.58449  22427707.1414   22427709.5234
 97  1 15  3 46 59.9930000  0  6  7  4  9 24  5 30
  21406458.158   -28343027.60949 -22072614.18149  21406456.9984   21406461.2824
  18953996.442   -34454880.86949 -26824181.63049  18953996.6714   18953999.5304
  19484434.346   -29295429.77549 -22776673.07049  19484434.0674   19484437.8354
  18587714.058   -32021602.15449 -24614849.38549  18587714.0234   18587718.0374
  19686808.226   -26030347.22449 -20243525.60049  19686807.4974   19686811.1874
  22404140.710    -6497877.28249  -5034844.89649  22404141.3564   22404142.6284
 97  1 15  3 47 29.9930000  0  6  7  4  9 24  5 30
  21414849.376   -28298931.50249 -22038253.57349  21414849.1484   21414853.3614
  18957840.016   -34434682.90649 -26808442.95549  18957839.9804   18957843.1194
  19486223.650   -29286026.86249 -22769346.13149  19486223.2884   19486226.9694
  18575677.290   -32084855.63949 -24664137.80649  18575677.2364   18575681.3714
  19668581.386   -26126129.72049 -20318161.30749  19668580.7754   19668584.4164
  22380573.548    -6621723.63549  -5131348.50749  22380573.5914   22380577.3444
 97  1 15  3 47 59.9930000  0  6  7  4  9 24  5 30
  21423228.565   -28254898.86849 -22003942.43349  21423228.3484   21423232.7844
  18961762.192   -34414071.77849 -26792382.33749  18961762.4054   18961765.4824
  19488096.758   -29276183.67749 -22761676.13349  19488096.3924   19488100.3344
  18563723.751   -32147671.93849 -24713085.56949  18563723.7314   18563727.8654
  19650375.387   -26221802.86449 -20392711.81249  19650374.9194   19650378.4384
  22356992.343    -6745643.95449  -5227909.76249  22356993.1464   22356995.6424
 97  1 15  3 48 29.9930000  0  6  7  4  9 24  5 30
  21431607.235   -28210868.27949 -21969632.88349  21431607.3974   21431610.1394
  18965773.795   -34392990.52849 -26775955.38749  18965773.7184   18965776.8794
  19490066.694   -29265831.50049 -22753609.50649  19490066.5684   19490070.2074
  18551867.699   -32209976.12249 -24761634.27449  18551867.4494   18551871.7994
  19632207.237   -26317277.07749 -20467107.30549  19632207.0164   19632209.9224
  22333412.595    -6869557.29149  -5324465.59449  22333413.4804   22333415.2844
 97  1 15  3 48 59.9930000  0  6  7  4  9 24  5 30
  21439979.949   -28166869.42049 -21935348.05749  21439979.1314   21439983.3914
  18969867.216   -34371479.04849 -26759193.19049  18969867.3544   18969870.4344
  19492128.675   -29254995.80149 -22745166.11249  19492128.6004   19492132.3214
  18540105.259   -32271788.16049 -24809799.48949  18540104.9124   18540109.2944
  19614071.840   -26412579.43749 -20541368.87849  19614071.3714   19614074.5924
  22309831.103    -6993479.09349  -5421028.02549  22309831.6854   22309833.7664
 97  1 15  3 49 29.9930000  0  6  7  4  9 24  5 30
  21448345.891   -28122905.92149 -21901090.79149  21448345.8594   21448349.1784
  18974040.904   -34349546.21549 -26742102.67049  18974041.1554   18974044.2414
  19494280.863   -29243685.95949 -22736353.25349  19494280.6304   19494284.1494
  18528434.977   -32333115.67049 -24857587.15749  18528434.7424   18528438.9214
  19595967.115   -26507720.37649 -20615504.67749  19595966.6654   19595969.8984
  22286243.911    -7117431.01049  -5517613.94749  22286243.9244   22286246.4764
 97  1 15  3 49 59.9930000  0  6  7  4  9 24  5 30
  21456708.852   -28078958.36349 -21866845.96149  21456708.3004   21456712.5794
  18978297.531   -34327177.34449 -26724672.37849  18978297.8484   18978300.8534
  19496523.904   -29231898.82949 -22727168.48749  19496523.6784   19496527.3624
  18516860.787   -32393938.26449 -24904981.37749  18516860.5944   18516864.8264
  19577896.875   -26602680.07549 -20689499.24949  19577896.4644   19577899.8904
  22262651.522    -7241410.02249  -5614220.95949  22262651.9674   22262654.2034
 97  1 15  3 50 29.9930000  0  7  7  4  9 24  5 10 30
  21465072.121   -28035008.97049 -21832599.67249  21465071.3404   21465075.9034
  18982639.683   -34304359.43449 -26706892.18549  18982639.9824   18982643.1894
  19498858.835   -29219628.66649 -22717607.32349  19498858.8814   19498862.7544
  18505383.986   -32454249.26849 -24951976.95249  18505383.7294   18505388.1654
  19559863.040   -26697448.53249 -20763344.79349  19559862.3294   19559865.8894
  22647481.446    -4711542.54749  -3109515.46749  22647479.2964   22647486.4614
  22239055.723    -7365407.19049  -5710842.12849  22239055.9324   22239058.7034
 97  1 15  3 50 59.9930000  0  7  7  4  9 24  5 10 30
  21473431.325   -27991080.97349 -21798370.07149  21473431.1734   21473436.3094
  18987062.023   -34281119.98749 -26688783.52149  18987062.4304   18987065.4154
  19501278.621   -29206912.67549 -22707698.76749  19501278.4464   19501282.3514
  18493996.478   -32514091.05749 -24998606.91149  18493996.3234   18494000.4634
  19541858.369   -26792063.54549 -20837070.77549  19541857.7234   19541861.3104
  22624870.957    -4830361.83949  -3202101.91449  22624870.5084   22624875.7264
  22215450.892    -7489450.93349  -5807499.59049  22215450.6044   22215453.5054
 97  1 15  3 51 29.9930000  0  7  7  4  9 24  5 10 30
  21481783.620   -27947188.65149 -21764168.26449  21481782.4024   21481788.1114
  18991562.588   -34257469.64449 -26670354.68149  18991562.8554   18991566.0174
  19503778.114   -29193777.74749 -22697463.76549  19503777.9954   19503781.4584
  18482693.131   -32573490.46249 -25044892.15249  18482693.0984   18482697.1504
  19523881.400   -26886532.88149 -20910683.24149  19523880.8194   19523884.4574
  22602230.784    -4949337.25749  -3294810.03849  22602230.5714   22602234.5014
  22191833.394    -7613561.35449  -5904209.02649  22191834.2434   22191836.5914
 97  1 15  3 51 59.9930000  0  7  7  4  9 24  5 10 30
  21490144.082   -27903253.68849 -21729933.23449  21490142.9244   21490147.8234
  18996156.714   -34233327.53149 -26651542.64449  18996156.8744   18996159.9984
  19506375.594   -29180128.44649 -22686827.95749  19506375.3974   19506379.0224
  18471488.955   -32632368.94849 -25090771.48249  18471488.8344   18471492.9024
  19505949.055   -26980768.06149 -20984113.24849  19505948.3134   19505951.9694
  22579576.317    -5068387.53149  -3387576.48049  22579575.3754   22579580.9714
  22168221.265    -7737643.85549  -6000896.68849  22168221.6304   22168224.0644
 97  1 15  3 52 29.9930000  0  7  7  4  9 24  5 10 30
  21498504.755   -27859317.79749 -21695697.49049  21498504.3754   21498508.6684
  19000833.175   -34208752.34549 -26632393.15149  19000833.4574   19000836.5674
  19509062.334   -29166009.58949 -22675826.26049  19509062.1974   19509065.5054
  18460372.950   -32690783.71649 -25136289.47949  18460372.8904   18460376.8514
  19488053.515   -27074809.61149 -21057392.37649  19488053.1624   19488056.4664
  22556897.082    -5187567.67149  -3480444.10949  22556896.2564   22556901.2734
  22144605.541    -7861745.01149  -6097598.89649  22144605.4494   22144607.5174
 97  1 15  3 52 59.9930000  0  7  7  4  9 24  5 10 30
  21506849.959   -27815463.03049 -21661524.96449  21506849.8484   21506855.1594
  19005575.535   -34183831.19549 -26612974.07549  19005575.7844   19005578.8044
  19511820.380   -29151516.13049 -22664532.66649  19511820.4084   19511823.9024
  18449331.539   -32748806.74049 -25181502.21349  18449331.5644   18449335.7434
  19470182.090   -27168724.28749 -21130572.63749  19470181.7544   19470185.2404
  22534178.369    -5306955.39949  -3573473.49849  22534177.7134   22534182.9044
  22120969.785    -7985952.04549  -6194383.62649  22120969.8114   22120972.8724
 97  1 15  3 53 29.9930000  0  7  7  4  9 24  5 10 30
  21515206.867   -27771548.07849 -21627305.52549  21515207.1624   21515211.8764
  19010410.756   -34158421.66649 -26593174.44249  19010410.8064   19010414.0024
  19514677.855   -29136499.97049 -22652831.77649  19514677.5204   19514681.1574
  18438394.149   -32806283.07749 -25226288.96549  18438394.2054   18438398.3094
  19452363.698   -27262360.45349 -21203535.88149  19452363.3794   19452366.4434
  22511450.182    -5426392.84749  -3666541.64349  22511449.4884   22511455.0434
  22097340.419    -8110125.19349  -6291141.92249  22097339.3304   22097342.6834
 97  1 15  3 53 59.9930000  0  7  7  4  9 24  5 10 30
  21523563.456   -27727634.06649 -21593086.82349  21523563.1874   21523567.9224
  19015327.807   -34132582.19249 -26573039.78249  19015328.0624   19015331.0914
  19517624.136   -29121016.96049 -22640767.09949  19517623.8504   19517627.6054
  18427551.382   -32863262.13049 -25270688.21849  18427551.5524   18427555.5214
  19434586.371   -27355781.18549 -21276331.25449  19434586.2264   19434589.6314
  22488702.731    -5545931.26549  -3759688.47549  22488701.7164   22488707.4574
  22073709.018    -8234309.02949  -6387908.56149  22073710.4084   22073711.1784
 97  1 15  3 54 29.9930000  0  7  7  4  9 24  5 10 30
  21531922.429   -27683707.58649 -21558858.41949  21531922.3604   21531926.9854
  19020330.466   -34106293.01949 -26552554.71549  19020330.6094   19020333.6664
  19520657.700   -29105075.42249 -22628345.13549  19520657.6004   19520661.1844
  18416804.741   -32919736.33649 -25314694.08749  18416804.6514   18416808.7994
  19416853.262   -27448969.83749 -21348945.79049  19416852.9924   19416856.2124
  22465938.732    -5665556.96849  -3852903.30649  22465938.4444   22465943.7364
  22050076.744    -8358497.72549  -6484678.99349  22050076.0904   22050079.7084
 97  1 15  3 54 59.9930000  0  7  7  4  9 24  5 10 30
  21540286.540   -27639754.21449 -21524609.04049  21540286.1504   21540290.2024
  19025424.019   -34079526.21149 -26531697.46549  19025424.2634   19025427.5254
  19523783.999   -29088646.36749 -22615543.28649  19523783.8064   19523787.3384
  18406161.928   -32975664.77349 -25358274.68149  18406161.7194   18406166.0704
  19399168.934   -27541901.75049 -21421360.26449  19399168.4754   19399171.9754
  22443163.356    -5785243.15849  -3946165.28349  22443162.5824   22443167.6954
  22026450.424    -8482654.81249  -6581424.78649  22026450.4364   22026452.6594
 97  1 15  3 55 29.9930000  0  7  7  4  9 24  5 10 30
  21548643.720   -27595837.06949 -21490387.89649  21548642.9554   21548648.2114
  19030594.899   -34052352.86349 -26510523.42249  19030595.0234   19030598.2444
  19526994.170   -29071776.80149 -22602398.17249  19526994.3134   19526997.3734
  18395609.649   -33031117.15749 -25401484.31849  18395609.5054   18395613.9154
  19381519.059   -27634652.23449 -21493633.36449  19381518.5844   19381522.0304
  22420363.312    -5905058.19549  -4039527.65549  22420362.7664   22420367.2984
  22002818.181    -8606842.90649  -6678194.72349  22002817.8864   22002820.6364
 97  1 15  3 55 59.9930000  0  7  7  4  9 24  5 10 30
  21557003.552   -27551905.65249 -21456155.62449  21557002.4584   21557007.9054
  19035851.896   -34024727.08249 -26488996.84549  19035852.2144   19035855.2234
  19530296.259   -29054424.49749 -22588876.90749  19530296.2274   19530299.7744
  18385154.365   -33086060.13049 -25444297.02349  18385154.3334   18385158.4974
  19363910.627   -27727185.19049 -21565736.96249  19363910.0044   19363913.6894
  22397547.392    -6024956.80649  -4132955.14949  22397546.7614   22397551.6004
  21979187.495    -8731022.89949  -6774958.37649  21979187.9154   21979188.9134
 97  1 15  3 56 29.9930000  0  7  7  4  9 24  5 10 30
  21565371.870   -27507929.65749 -21421888.64749  21565371.9144   21565375.8904
  19041198.813   -33996629.27949 -26467102.44949  19041199.1324   19041202.2734
  19533697.166   -29036552.91049 -22574951.00849  19533697.2234   19533700.3574
  18374802.282   -33140460.81049 -25486687.15149  18374802.2294   18374806.4284
  19346350.921   -27819461.79149 -21637640.79949  19346350.5004   19346353.7844
  22374720.330    -6144913.73049  -4226428.08149  22374720.2344   22374723.9754
  21955559.495    -8855187.67349  -6871710.12449  21955559.1434   21955561.6914
 97  1 15  3 56 59.9930000  0  7  7  4  9 24  5 10 30
  21573740.946   -27463950.03449 -21387618.81249  21573741.5794   21573745.0934
  19046627.021   -33968103.96149 -26444874.93049  19046627.0544   19046630.2914
  19537193.115   -29018181.65249 -22560635.75149  19537192.9534   19537196.3834
  18364549.789   -33194337.94849 -25528669.33249  18364549.7474   18364553.7514
  19328833.828   -27911514.67049 -21709370.31549  19328833.2974   19328836.7054
  22351877.171    -6264955.67249  -4319967.26449  22351876.1084   22351881.1244
  21931928.075    -8979370.53249  -6968475.98249  21931927.6424   21931932.2924
 97  1 15  3 57 29.9930000  0  7  7  4  9 24  5 10 30
  21582109.296   -27419974.63649 -21353352.27149  21582109.7464   21582113.8524
  19052134.933   -33939159.88549 -26422321.10049  19052135.2914   19052138.1154
  19540779.916   -28999333.07849 -22545948.56049  19540779.6704   19540783.2764
  18354390.338   -33247726.29149 -25570270.62849  18354390.3204   18354394.2934
  19311355.499   -28003364.11149 -21780941.30149  19311354.7674   19311358.3934
  22329018.324    -6385079.70249  -4413570.39249  22329016.8434   22329022.0964
  21908290.762    -9103585.33349  -7065266.70049  21908290.5664   21908293.7274
 97  1 15  3 57 59.9930000  0  7  7  4  9 24  5 10 30
  21590483.839   -27375966.92249 -21319060.56049  21590483.1604   21590488.2914
  19057733.094   -33909741.52149 -26399397.69949  19057733.1964   19057736.3684
  19544462.212   -28979982.46449 -22530870.16849  19544461.8714   19544465.4864
  18344333.324   -33300576.16849 -25611452.34549  18344333.0334   18344337.1834
  19293926.944   -28094951.35449 -21852307.98149  19293926.3034   19293929.8084
  22306153.586    -6505233.96949  -4507197.07949  22306152.5724   22306158.1724
  21884659.283    -9227769.47449  -7162033.55049  21884659.2464   21884662.9294
 97  1 15  3 58 29.9930000  0  7  7  4  9 24  5 10 30
  21598858.257   -27331958.58949 -21284768.35649  21598857.7124   21598861.9164
  19063415.778   -33879878.69049 -26376127.95849  19063415.9124   19063419.1494
  19548234.296   -28960159.61449 -22515423.80249  19548233.9194   19548237.9004
  18334378.044   -33352891.44649 -25652217.48949  18334377.8544   18334382.0134
  19276548.131   -28186277.35949 -21923471.10349  19276547.7844   19276551.1254
  22283279.095    -6625440.31049  -4600864.34849  22283279.2474   22283282.9694
  21861031.721    -9351933.43349  -7258784.66949  21861032.3624   21861034.5814
 97  1 15  3 58 59.9930000  0  7  7  4  9 24  5 10 30
  21607228.793   -27287970.60449 -21250492.02149  21607228.8474   21607233.1734
  19069178.321   -33849596.02149 -26352531.06949  19069178.4924   19069181.4964
  19552089.736   -28939899.16749 -22499636.45249  19552089.6404   19552092.8654
  18324516.149   -33404716.13249 -25692600.35649  18324516.2714   18324520.1054
  19259213.579   -28277371.14849 -21994453.27549  19259213.1844   19259216.4484
  22260392.594    -6745710.23749  -4694581.18549  22260392.8514   22260396.4634
  21837407.882    -9476077.99149  -7355520.66949  21837407.7574   21837411.4524
 97  1 15  3 59 29.9930000  0  7  7  4  9 24  5 10 30
  21615602.405   -27243967.24749 -21216203.68749  21615602.4104   21615607.2044
  19075025.155   -33818870.79349 -26328589.32849  19075025.4954   19075028.2144
  19556032.506   -28919180.03649 -22483491.68449  19556032.6304   19556035.9474
  18314748.672   -33456044.43849 -25732596.42949  18314748.5534   18314752.6794
  19241928.216   -28368206.44849 -22065234.02749  19241927.8414   19241931.2414
  22237498.454    -6866019.43049  -4788328.60149  22237497.5814   22237502.3664
  21813793.615    -9600172.12349  -7452217.37849  21813794.0354   21813796.8244
 97  1 15  3 59 59.9930000  0  7  7  4  9 24  5 10 30
  21623976.125   -27199963.04949 -21181914.71649  21623975.5534   21623980.4424
  19080952.144   -33787724.51049 -26304319.49749  19080952.4224   19080955.3614
  19560061.819   -28898006.02649 -22466992.47049  19560061.8714   19560065.1114
  18305076.638   -33506871.43949 -25772201.87749  18305076.4694   18305080.6334
  19224692.874   -28458779.00949 -22135810.04349  19224692.3224   19224696.0124
  22214592.667    -6986389.95049  -4882123.81749  22214591.4284   22214596.3724
  21790183.767    -9724242.95249  -7548895.94049  21790183.8804   21790186.9634
 97  1 15  4  0 29.9930000  0  7  7  4  9 24  5 10 30
  21632358.921   -27155911.12249 -21147588.54949  21632358.5904   21632362.5684
  19086964.666   -33756128.70649 -26279699.38749  19086964.8194   19086967.9244
  19564186.811   -28876329.23649 -22450101.47849  19564186.9254   19564190.3984
  18295505.433   -33557168.45849 -25811394.35149  18295505.4154   18295509.3664
  19207514.194   -28549053.60249 -22206153.88349  19207513.8254   19207517.3244
  22191684.529    -7106772.93149  -4975928.71549  22191683.3874   22191688.2534
  21766583.979    -9848260.51649  -7645532.99649  21766584.4274   21766586.9724
 97  1 15  4  0 59.9930000  0  7  7  4  9 24  5 10 30
  21640749.207   -27111820.65549 -21113232.34549  21640749.3314   21640753.5484
  19093061.323   -33724090.42649 -26254734.49549  19093061.3994   19093064.4214
  19568404.127   -28854167.27549 -22432832.43149  19568403.9264   19568407.4234
  18286030.787   -33606958.13349 -25850191.49749  18286030.5944   18286034.7814
  19190386.615   -28639059.78049 -22276288.56349  19190386.3224   19190389.7304
  22168773.792    -7227169.88349  -5069744.50449  22168772.9184   22168777.3264
  21742993.454    -9972229.35849  -7742132.08449  21742993.3994   21742996.6364
 97  1 15  4  1 29.9930000  0  7  7  4  9 24  5 10 30
  21649145.073   -27067700.13349 -21078852.73849  21649144.9294   21649149.1424
  19099242.461   -33691608.13549 -26229423.61849  19099242.6694   19099245.6534
  19572712.519   -28831526.54749 -22415190.31549  19572712.5134   19572715.9684
  18276659.960   -33656202.12749 -25888563.43149  18276659.8024   18276663.9634
  19173311.362   -28728791.13349 -22346209.09749  19173311.0134   19173314.3334
  22145863.232    -7347566.17449  -5163559.75849  22145862.1794   22145866.6244
  21719412.213   -10096149.80849  -7838693.46749  21719412.9534   21719415.4094
 97  1 15  4  1 59.9930000  0  7  7  4  9 24  5 10 30
  21657540.558   -27023581.12249 -21044474.28449  21657540.6474   21657544.3444
  19105502.617   -33658710.99149 -26203789.47549  19105502.7564   19105505.7314
  19577106.043   -28808438.47149 -22397199.61649  19577105.7924   19577109.7274
  18267394.846   -33704890.35049 -25926502.29549  18267394.6564   18267398.9344
  19156284.676   -28818267.01949 -22415930.56249  19156284.2404   19156287.5154
  22122950.259    -7467975.13749  -5257384.90149  22122949.7014   22122953.9654
  21695837.003   -10220038.63049  -7935230.21249  21695837.8144   21695839.8444
 97  1 15  4  2 29.9920000  0  7  7  4  9 24  5 10 30
  21665931.836   -26979484.75649 -21010113.48949  21665931.6884   21665935.3754
  19111836.669   -33625425.31449 -26177852.58749  19111836.8614   19111839.7734
  19581578.084   -28784937.81949 -22378887.43149  19581578.1264   19581581.7254
  18258232.434   -33753039.28049 -25964020.93849  18258232.3094   18258236.5424
  19139300.645   -28907518.77649 -22485477.38549  19139300.0684   19139303.5564
  22100032.166    -7588410.96249  -5351230.96749  22100030.1774   22100036.1314
  21672268.620   -10343891.24149  -8031738.73749  21672268.9404   21672271.8634
 97  1 15  4  2 59.9920000  0  7  7  4  9 24  5 10 30
  21674327.237   -26935366.59849 -20975735.72449  21674327.1364   21674330.3674
  19118251.494   -33591714.97249 -26151584.78249  19118251.6704   19118254.7004
  19586138.066   -28760974.97549 -22360215.09449  19586137.9094   19586141.9244
  18249183.897   -33800589.74949 -26001073.24249  18249183.6134   18249187.5764
  19122365.763   -28996511.88349 -22554822.65949  19122365.1824   19122368.7034
  22077115.215    -7708839.21549  -5445071.15149  22077114.6124   22077119.9044
  21648713.800   -10467672.76549  -8128191.85749  21648713.4984   21648716.4284
 97  1 15  4  3 29.9920000  0  7  7  4  9 24  5 10 30
  21682725.994   -26891230.78249 -20941344.18349  21682725.2524   21682729.1024
  19124744.372   -33557594.72149 -26124997.57449  19124744.4554   19124747.4844
  19590787.897   -28736540.06949 -22341174.91749  19590788.1404   19590791.4274
  18240246.533   -33847555.81849 -26037670.17049  18240246.5904   18240250.5824
  19105482.854   -29085232.06149 -22623955.26449  19105482.3404   19105485.7014
  22054197.065    -7829274.81749  -5538917.05949  22054195.8384   22054201.1994
  21625170.235   -10591395.36349  -8224599.06749  21625170.7364   21625172.8254
 97  1 15  4  3 59.9920000  0  7  7  4  9 24  5 10 30
  21691131.401   -26847060.09849 -20906925.47749  21691130.5634   21691135.3524
  19131316.318   -33523058.74449 -26098086.42049  19131316.4754   19131319.3874
  19595529.948   -28711620.55749 -22321757.12449  19595529.9874   19595533.3624
  18231412.755   -33893977.54149 -26073842.93549  18231412.4864   18231416.7044
  19088651.519   -29173681.06049 -22692876.55749  19088651.2424   19088654.6554
  22031274.470    -7949733.48849  -5632780.94649  22031273.3174   22031278.0124
  21601638.202   -10715057.02549  -8320958.78149  21601638.5274   21601641.6664
 97  1 15  4  4 29.9920000  0  7  7  4  9 24  5 10 30
  21699541.757   -26802863.12849 -20872486.28149  21699541.9904   21699545.3514
  19137965.951   -33488114.52749 -26070857.16349  19137965.9324   19137969.0914
  19600362.081   -28686227.51649 -22301970.35449  19600361.8924   19600365.5984
  18222672.182   -33939909.52149 -26109634.08249  18222672.2174   18222675.9534
  19071866.996   -29261884.53149 -22761606.53749  19071866.7914   19071870.1934
  22008345.927    -8070222.44849  -5726668.43049  22008345.1004   22008350.0474
  21578114.033   -10838677.22149  -8417286.20049  21578113.8134   21578117.7424
 97  1 15  4  4 59.9920000  0  7  7  4  9 24  5 10 30
  21707958.282   -26758633.66049 -20838021.76049  21707958.5434   21707962.3204
  19144693.842   -33452759.10649 -26043307.48449  19144693.9944   19144697.2334
  19605284.169   -28660361.73349 -22281815.20749  19605283.9444   19605287.8784
  18214021.479   -33985369.09049 -26145057.11749  18214021.3154   18214025.3634
  19055132.433   -29349825.67449 -22830132.10349  19055132.1374   19055135.4364
  21985413.627    -8190732.12649  -5820572.06049  21985412.0864   21985417.7364
  21554597.157   -10962259.73149  -8513584.25049  21554597.5234   21554600.1284
 97  1 15  4  5 29.9920000  0  7  7  4  9 24  5 10 30
  21716382.523   -26714363.49749 -20803525.53049  21716381.3924   21716386.8534
  19151502.896   -33416977.27349 -26015425.53349  19151503.0604   19151506.2044
  19610294.455   -28634032.51649 -22261298.94449  19610294.0464   19610297.6024
  18205458.096   -34030369.99549 -26180122.74749  18205457.8344   18205461.8914
  19038449.399   -29437495.98649 -22898446.62949  19038448.9864   19038452.2654
  21962477.010    -8311265.18949  -5914493.90149  21962476.3144   21962480.8784
  21531089.239   -11085794.77749  -8609845.32349  21531089.7774   21531092.2964
 97  1 15  4  5 59.9920000  0  7  7  4  9 24  5 10 30
  21724811.400   -26670068.61349 -20769010.04749  21724810.8064   21724815.6384
  19158390.001   -33380785.32649 -25987224.01849  19158390.4024   19158393.1794
  19615386.860   -28607271.70549 -22240446.37649  19615386.8304   19615390.5064
  18196982.709   -34074908.49349 -26214828.06449  18196982.6714   18196986.6044
  19021813.237   -29524919.52649 -22966568.87049  19021812.7834   19021816.2244
  21939534.886    -8431826.80749  -6008438.00349  21939534.5164   21939539.4154
  21507586.972   -11209300.16249  -8706083.29249  21507587.0374   21507589.8244
 97  1 15  4  6 29.9920000  0  7  7  4  9 24  5 10 30
  21733239.825   -26625776.43449 -20734496.67849  21733239.4414   21733243.8974
  19165349.033   -33344215.40249 -25958727.97249  19165349.0954   19165352.0974
  19620553.934   -28580118.98649 -22219288.42949  19620554.0234   19620557.4374
  18188597.235   -34118974.52349 -26249165.22349  18188597.1464   18188601.1204
  19005223.962   -29612096.58049 -23034499.03749  19005223.6174   19005227.0404
  21916584.963    -8552429.37949  -6102414.03749  21916584.9844   21916589.1464
  21484087.556   -11332790.63949  -8802309.62849  21484087.6864   21484090.1974
 97  1 15  4  6 59.9920000  0  7  7  4  9 24  5 10 30
  21741666.876   -26581492.04649 -20699989.39449  21741665.6784   21741670.7994
  19172378.591   -33307274.74949 -25929943.04549  19172378.7484   19172381.8024
  19625792.845   -28552588.09049 -22197835.78649  19625792.6264   19625796.3204
  18180304.605   -34162552.51949 -26283122.09549  18180304.4374   18180308.4854
  18988685.041   -29699009.14649 -23102223.11349  18988684.3674   18988688.0504
  21893623.670    -8673092.02549  -6196436.88649  21893622.8604   21893627.5094
  21460590.854   -11456266.41049  -8898524.50649  21460589.7434   21460594.0074
 97  1 15  4  7 29.9920000  0  7  7  4  9 24  5 10 30
  21750089.917   -26537228.19949 -20665498.11349  21750089.3964   21750095.0544
  19179477.020   -33269972.33149 -25900876.22449  19179477.2644   19179480.3914
  19631104.948   -28524672.82749 -22176083.64849  19631104.8294   19631108.4264
  18172107.967   -34205626.13849 -26316685.95449  18172107.7824   18172111.9054
  18972196.104   -29785658.86749 -23169742.38049  18972195.6924   18972198.9694
  21870651.934    -8793809.77549  -6290502.66549  21870651.0234   21870656.6694
  21437095.982   -11579732.58749  -8994731.91349  21437096.1774   21437097.6834
 97  1 15  4  7 59.9920000  0  7  7  4  9 24  5 10 30
  21758521.200   -26492921.17549 -20630973.17749  21758521.2094   21758526.5724
  19186655.533   -33232249.21849 -25871481.59349  19186655.9444   19186658.9444
  19636502.175   -28496310.09849 -22153982.82949  19636501.9634   19636505.9734
  18164022.417   -34248116.03549 -26349794.95849  18164022.3194   18164026.1434
  18955771.880   -29871968.99749 -23236997.02749  18955771.4134   18955774.8034
  21847686.096    -8914495.88549  -6384543.78349  21847685.1524   21847690.4224
  21413617.560   -11703112.48549  -9090872.08849  21413617.7514   21413620.5964
 97  1 15  4  8 29.9920000  0  7  7  4  9 24  5 10 30
  21766957.376   -26448589.38149 -20596428.92749  21766957.6694   21766962.0664
  19193912.333   -33194114.48849 -25841766.21449  19193912.4814   19193915.7704
  19641985.112   -28467496.85049 -22131530.95349  19641984.9574   19641988.4414
  18156043.432   -34290045.91349 -26382467.58049  18156043.3434   18156047.2914
  18939412.412   -29957938.69149 -23303986.39449  18939412.0084   18939415.1984
  21824726.805    -9035147.87749  -6478558.31849  21824726.5664   21824731.0614
  21390157.259   -11826397.40849  -9186938.25249  21390157.6724   21390160.2904
 97  1 15  4  8 59.9920000  0  7  7  4  9 24  5 10 30
  21775391.338   -26404269.27349 -20561893.79749  21775391.1904   21775396.3744
  19201241.956   -33155596.93149 -25811752.53649  19201242.1674   19201245.3814
  19647551.315   -28438246.40849 -22108738.41149  19647551.4734   19647555.1524
  18148163.178   -34331456.75249 -26414735.76649  18148163.1184   18148166.8814
  18923109.242   -30043612.31749 -23370745.06549  18923108.6644   18923111.9814
  21801770.455    -9155784.06149  -6572560.55149  21801769.5394   21801774.0994
  21366707.910   -11949624.65049  -9282959.46749  21366708.3264   21366710.2274
 97  1 15  4  9 29.9920000  0  7  7  4  9 24  5 10 30
  21783828.238   -26359933.73649 -20527346.65049  21783827.7404   21783832.8804
  19208648.923   -33116673.43149 -25781422.53649  19208649.2594   19208652.3764
  19653207.125   -28408525.17349 -22085579.02249  19653207.2384   19653210.7544
  18140388.396   -34372313.33349 -26446572.05849  18140388.3604   18140392.2784
  18906866.125   -30128970.37649 -23437257.83849  18906865.4894   18906868.9964
  21778827.126    -9276351.59649  -6666509.26949  21778826.2424   21778831.9534
  21343277.126   -12072754.60349  -9378904.86749  21343278.2264   21343279.6644
 97  1 15  4  9 59.9920000  0  7  7  4  9 24  5 10 30
  21792253.330   -26315660.37749 -20492847.93449  21792252.9874   21792257.3634
  19216118.435   -33077421.12049 -25750836.31549  19216118.7084   19216121.6604
  19658934.964   -28378425.48049 -22062124.71949  19658934.8334   19658938.7934
  18132702.510   -34412703.21949 -26478044.68849  18132702.4014   18132706.4574
  18890666.653   -30214098.86349 -23503591.71749  18890666.2344   18890669.6404
  21755881.426    -9396931.59249  -6760467.69249  21755881.1774   21755885.0024
  21319851.602   -12195856.52249  -9474828.43349  21319851.9044   21319854.6564
 97  1 15  4 10 29.9920000  0  7  7  4  9 24  5 10 30
  21800685.346   -26271350.03049 -20458320.41049  21800685.3404   21800689.5874
  19223668.175   -33037747.00149 -25719921.42249  19223668.3514   19223671.4664
  19664753.662   -28347848.11949 -22038298.21649  19664753.2954   19664757.2524
  18125124.707   -34452524.79149 -26509074.48249  18125124.5174   18125128.5964
  18874529.813   -30298898.51949 -23569669.36949  18874529.3054   18874532.9064
  21732950.940    -9517432.67349  -6854364.63549  21732950.4414   21732955.5004
  21296449.050   -12318837.61449  -9570657.84849  21296449.4454   21296451.5504
 97  1 15  4 10 59.9920000  0  7  7  4  9 24  5 10 30
  21809112.807   -26227063.00549 -20423811.04049  21809113.1054   21809116.5944
  19231282.900   -32997731.12649 -25688740.21449  19231282.9604   19231286.4364
  19670646.618   -28316880.72249 -22014167.78649  19670646.1354   19670650.0874
  18117642.519   -34491844.01849 -26539712.83549  18117642.5074   18117646.5674
  18858443.763   -30383431.26749 -23635539.03249  18858443.1024   18858446.7024
  21710021.397    -9637928.45949  -6948257.44049  21710020.3064   21710025.8424
  21273056.301   -12441767.00049  -9666446.98249  21273056.7894   21273058.0234
 97  1 15  4 11 29.9920000  0  7  7  4  9 24  5 10 30
  21817545.387   -26182749.98149 -20389281.42449  21817544.8284   21817549.7304
  19238970.038   -32957335.04749 -25657262.75349  19238970.2984   19238973.3684
  19676620.349   -28285488.16749 -21989706.06849  19676620.0694   19676624.2014
  18110264.538   -34530615.67949 -26569924.51649  18110264.4354   18110268.4204
  18842419.407   -30467639.60849 -23701155.91849  18842418.9554   18842422.7024
  21687098.962    -9758386.92449  -7042121.17949  21687098.3244   21687103.3714
  21249684.208   -12564587.81949  -9762151.49249  21249684.7594   21249686.4174
 97  1 15  4 11 59.9920000  0  7  7  4  9 24  5 10 30
  21825980.756   -26138422.09949 -20354740.23849  21825980.7784   21825984.5444
  19246727.131   -32916571.23549 -25625498.74649  19246727.4284   19246730.3784
  19682671.344   -28253689.73849 -21964928.08049  19682671.3504   19682674.7544
  18102984.114   -34568874.62749 -26599736.67949  18102984.0354   18102987.9934
  18826455.772   -30551528.92449 -23766524.21449  18826455.1864   18826458.9304
  21664176.724    -9878844.34649  -7135984.09449  21664176.4034   21664181.4584
  21226328.356   -12687323.69049  -9857789.82649  21226328.6484   21226330.6114
 97  1 15  4 12 29.9920000  0  7  7  4  9 24  5 10 30
  21834421.416   -26094066.04349 -20320177.09549  21834421.8844   21834425.8494
  19254554.185   -32875439.89549 -25593448.35249  19254554.3194   19254557.3714
  19688800.204   -28221482.58949 -21939831.61249  19688800.5474   19688804.0174
  18095798.413   -34606635.56549 -26629160.78049  18095798.2504   18095802.2284
  18810552.986   -30635098.59349 -23831643.43149  18810552.6354   18810556.1774
  21641255.412    -9999297.37549  -7229843.59849  21641254.9614   21641259.1374
  21202987.119   -12809982.91049  -9953368.44249  21202987.6774   21202990.1104
 97  1 15  4 12 59.9920000  0  7  7  4  9 24  5 10 30
  21842873.680   -26049649.91049 -20285567.11349  21842873.5134   21842877.3834
  19262458.483   -32833902.57949 -25561081.61249  19262458.5874   19262461.6294
  19695013.334   -28188832.81549 -21914390.24249  19695013.5064   19695016.9554
  18088710.803   -34643881.17049 -26658183.32349  18088710.7064   18088714.5904
  18794715.921   -30718323.10449 -23896493.69949  18794715.5594   18794718.9304
  21618342.864   -10119703.87549  -7323666.83849  21618342.1534   21618346.4944
  21179666.895   -12932531.63149 -10048860.94249  21179668.0814   21179669.8514
 97  1 15  4 13 29.9920000  0  7  7  4  9 24  5 10 30
  21851321.592   -26005255.95349 -20250974.43549  21851321.4554   21851325.0514
  19270425.293   -32792036.56249 -25528458.74249  19270425.5424   19270428.3964
  19701296.014   -28155817.44149 -21888663.99049  19701295.9574   19701299.1594
  18081706.053   -34680691.51049 -26686866.69849  18081705.8464   18081709.8414
  18778925.659   -30801301.82249 -23961152.43949  18778925.1014   18778928.5814
  21595424.952   -10240138.29449  -7417511.83949  21595424.1294   21595429.7674
  21156350.298   -13055061.22849 -10144338.54349  21156350.5534   21156353.1994
 97  1 15  4 13 59.9920000  0  7  7  4  9 24  5 10 30
  21859771.519   -25960850.86949 -20216373.09549  21859770.6864   21859776.2204
  19278460.948   -32749808.67449 -25495553.89449  19278461.0594   19278464.2004
  19707654.328   -28122404.10449 -21862627.63549  19707654.3154   19707657.7044
  18074791.187   -34717029.12549 -26715181.71849  18074791.0434   18074795.0154
  18763186.130   -30884013.36149 -24025602.98849  18763185.5474   18763189.0464
  21572510.735   -10360553.27649  -7511341.68749  21572511.1114   21572514.4334
  21133041.573   -13177548.93549 -10239783.50149  21133041.8404   21133044.2594
 97  1 15  4 14 29.9920000  0  7  7  4  9 24  5 10 30
  21868229.436   -25916403.88349 -20181739.11149  21868229.1504   21868234.7244
  19286570.417   -32707193.16149 -25462347.00349  19286570.3854   19286573.6544
  19714096.214   -28088551.81049 -21836249.23849  19714096.1654   19714099.6804
  18067978.736   -34752828.84849 -26743077.60449  18067978.6794   18067982.6304
  18747505.875   -30966413.62049 -24089810.98649  18747505.5324   18747508.9604
  21549612.090   -10480887.05949  -7605108.27049  21549611.2254   21549615.3054
  21109749.447   -13299949.61949 -10335160.62949  21109749.4954   21109752.5694
 97  1 15  4 14 59.9920000  0  7  7  4  9 24  5 10 30
  21876680.651   -25871992.40449 -20147132.78749  21876679.2804   21876684.9114
  19294741.105   -32664255.71349 -25428889.25149  19294741.3194   19294744.2874
  19720608.212   -28054330.90549 -21809583.60849  19720607.8974   19720611.7554
  18061261.607   -34788127.53449 -26770583.06649  18061261.4994   18061265.4084
  18731876.037   -31048549.19449 -24153812.73149  18731875.5824   18731878.8474
  21526716.450   -10601204.54749  -7698862.14849  21526715.7754   21526721.4674
  21086463.836   -13422316.43049 -10430511.38349  21086464.3744   21086467.0204
 97  1 15  4 15 29.9920000  0  7  7  4  9 24  5 10 30
  21885131.375   -25827583.20549 -20112528.23049  21885131.3594   21885135.5814
  19302977.899   -32620970.88349 -25395160.81449  19302978.1164   19302981.0904
  19727193.838   -28019723.18149 -21782616.56349  19727193.7984   19727197.6724
  18054647.787   -34822883.16449 -26797665.37049  18054647.7474   18054651.7294
  18716306.229   -31130369.29049 -24217568.64949  18716305.9214   18716309.2334
  21503828.677   -10721480.44149  -7792583.61149  21503827.1304   21503832.4874
  21063191.255   -13544614.92249 -10525808.90149  21063192.0864   21063193.1934
 97  1 15  4 15 59.9920000  0  7  7  4  9 24  5 10 30
  21893583.277   -25783168.54149 -20077919.42649  21893582.2084   21893587.0024
  19311282.107   -32577332.20049 -25361156.64449  19311282.2474   19311285.3114
  19733851.884   -27984735.12649 -21755353.15049  19733851.6194   19733855.5134
  18048138.217   -34857091.25349 -26824321.01249  18048137.9644   18048141.8844
  18700799.561   -31211857.58949 -24281066.02149  18700799.1564   18700802.3804
  21480950.371   -10841705.96849  -7886265.82349  21480949.6684   21480954.7974
  21039934.260   -13666831.70549 -10621042.74549  21039934.3374   21039936.6904
 97  1 15  4 16 29.9920000  0  7  7  4  9 24  5 10 30
  21902040.758   -25738724.37149 -20043287.64149  21902040.7334   21902045.2574
  19319658.137   -32533315.95049 -25326858.26449  19319658.2994   19319661.4174
  19740585.805   -27949348.29149 -21727778.99949  19740585.3774   19740589.1134
  18041734.289   -34890744.03649 -26850543.95549  18041734.1874   18041738.4204
  18685361.586   -31292984.56549 -24344281.84949  18685361.2244   18685364.5184
  21458088.619   -10961845.02849  -7979880.66249  21458088.1554   21458092.2654
  21016697.774   -13788940.29949 -10716192.29749  21016697.8134   21016700.6544
 97  1 15  4 16 59.9920000  0  7  7  4  9 24  5 10 30
  21910506.988   -25694234.30649 -20008620.06649  21910506.4224   21910510.1584
  19328107.018   -32488916.59449 -25292261.35949  19328107.2004   19328110.2924
  19747395.779   -27913561.11949 -21699892.89349  19747395.6124   19747399.4224
  18035431.824   -34923863.62849 -26876351.42149  18035431.5914   18035435.6404
  18669991.140   -31373756.84549 -24407221.28249  18669990.6544   18669994.0434
  21435243.049   -11081899.11749  -8073429.27649  21435242.7404   21435247.1834
  20993485.242   -13910922.94649 -10811243.70149  20993485.4524   20993487.4364
 97  1 15  4 17 29.9920000  0  7  7  4  9 24  5 10 30
  21918978.878   -25649714.36849 -19973929.23549  21918978.1974   21918983.4234
  19336620.439   -32444178.38849 -25257400.42249  19336620.6164   19336623.6214
  19754278.852   -27877390.37049 -21671707.90749  19754279.0274   19754282.2804
  18029222.604   -34956493.17449 -26901777.03649  18029222.5294   18029226.7484
  18654678.673   -31454224.45849 -24469923.31949  18654678.2754   18654681.6594
  21412408.133   -11201897.12049  -8166934.19849  21412407.2194   21412412.5614
  20970291.979   -14032804.13949 -10906216.06449  20970293.0284   20970294.3154
 97  1 15  4 17 59.9920000  0  7  7  4  9 24  5 10 30
  21927449.068   -25605203.53549 -19939245.49249  21927449.6724   21927453.8964
  19345190.277   -32399143.80149 -25222308.53549  19345190.3934   19345193.4144
  19761231.692   -27840853.00549 -21643237.24949  19761231.6344   19761235.3314
  18023098.007   -34988678.14249 -26926856.22749  18023097.9494   18023101.8294
  18639415.231   -31534434.37849 -24532424.55649  18639414.7324   18639418.2314
  21389577.305   -11321873.97749  -8260422.64549  21389576.6744   21389581.4044
  20947112.508   -14154612.87449 -11001131.96149  20947111.9064   20947115.2264
 97  1 15  4 18 29.9920000  0  7  7  4  9 24  5 10 30
  21935924.362   -25560665.86249 -19904540.83149  21935924.0564   21935929.3984
  19353820.874   -32353789.97549 -25186967.89149  19353821.0884   19353824.0224
  19768261.631   -27803910.46449 -21614450.85949  19768261.5874   19768265.2144
  18017063.260   -35020390.85949 -26951567.42749  18017062.9174   18017067.1714
  18624210.150   -31614337.77349 -24594686.93449  18624209.6184   18624213.2284
  21366755.267   -11441805.17249  -8353875.49949  21366754.4644   21366759.0914
  20923954.995   -14276305.86449 -11095957.67249  20923955.5174   20923957.4514
